Time,TemperatureF,DewpointF,PressureIn,WindDirection,WindDirectionDegrees,WindSpeedMPH,WindSpeedGustMPH,Humidity,HourlyPrecipIn,Conditions,Clouds,dailyrainin,SolarRadiationWatts/m^2,SoftwareType,DateUTC
2013-03-15 00:00:00,36.3,21.3,30.22,SSW,213,5.0,5.0,54,0.00,,---,0.00,0.00,VWS V14.01,2013-03-15 04:00:00,
2013-03-15 00:01:00,36.5,21.5,30.22,WSW,244,0.0,5.0,54,0.00,,---,0.00,0.00,VWS V14.01,2013-03-15 04:01:00,
2013-03-15 00:02:00,36.5,21.5,30.22,WSW,248,2.0,5.0,54,0.00,,---,0.00,0.00,VWS V14.01,2013-03-15 04:02:00,
2013-03-15 00:03:00,36.5,21.5,30.22,SW,228,3.0,5.0,54,0.00,,---,0.00,0.00,VWS V14.01,2013-03-15 04:03:00,
2013-03-15 00:04:00,36.5,21.5,30.22,WSW,248,3.0,5.0,54,0.00,,---,0.00,0.00,VWS V14.01,2013-03-15 04:04:00,
2013-03-15 00:05:00,36.5,21.5,30.22,West,267,0.0,6.0,54,0.00,,---,0.00,0.00,VWS V14.01,2013-03-15 04:05:00,
2013-03-15 00:06:00,36.5,21.5,30.22,WSW,246,2.0,7.0,54,0.00,,---,0.00,0.00,VWS V14.01,2013-03-15 04:06:00,
2013-03-15 00:07:00,36.5,21.5,30.22,WNW,290,0.0,7.0,54,0.00,,---,0.00,0.00,VWS V14.01,2013-03-15 04:07:00,
2013-03-15 00:08:00,36.5,21.5,30.22,WSW,242,2.0,7.0,54,0.00,,---,0.00,0.00,VWS V14.01,2013-03-15 04:08:00,
2013-03-15 00:09:00,36.5,21.9,30.22,WSW,245,3.0,7.0,55,0.00,,---,0.00,0.00,VWS V14.01,2013-03-15 04:09:00,
2013-03-15 00:10:00,36.5,21.9,30.22,SW,229,5.0,5.0,55,0.00,,---,0.00,0.00,VWS V14.01,2013-03-15 04:10:00,
2013-03-15 00:11:00,36.5,21.5,30.22,WSW,243,5.0,5.0,54,0.00,,---,0.00,0.00,VWS V14.01,2013-03-15 04:11:00,
2013-03-15 00:12:00,36.4,21.8,30.22,SW,227,4.0,5.0,55,0.00,,---,0.00,0.00,VWS V14.01,2013-03-15 04:12:00,
2013-03-15 00:13:00,36.4,21.4,30.22,WSW,242,3.0,5.0,54,0.00,,---,0.00,0.00,VWS V14.01,2013-03-15 04:13:00,
2013-03-15 00:14:00,36.4,21.8,30.22,SW,232,0.0,5.0,55,0.00,,---,0.00,0.00,VWS V14.01,2013-03-15 04:14:00,
2013-03-15 00:15:00,36.4,21.8,30.22,WSW,248,3.0,7.0,55,0.00,,---,0.00,0.00,VWS V14.01,2013-03-15 04:15:00,
2013-03-15 00:16:00,36.5,21.5,30.22,WSW,246,0.0,7.0,54,0.00,,---,0.00,0.00,VWS V14.01,2013-03-15 04:16:00,
2013-03-15 00:17:00,36.4,21.8,30.22,WSW,244,6.0,7.0,55,0.00,,---,0.00,0.00,VWS V14.01,2013-03-15 04:17:00,
2013-03-15 00:18:00,36.5,21.9,30.22,WSW,242,2.0,7.0,55,0.00,,---,0.00,0.00,VWS V14.01,2013-03-15 04:18:00,
2013-03-15 00:19:00,36.4,21.8,30.22,WSW,240,8.0,9.0,55,0.00,,---,0.00,0.00,VWS V14.01,2013-03-15 04:19:00,
2013-03-15 00:20:00,36.5,21.9,30.22,WSW,240,5.0,6.0,55,0.00,,---,0.00,0.00,VWS V14.01,2013-03-15 04:20:00,
2013-03-15 00:21:00,36.5,21.9,30.22,WSW,248,2.0,6.0,55,0.00,,---,0.00,0.00,VWS V14.01,2013-03-15 04:21:00,
2013-03-15 00:22:00,36.4,21.8,30.22,WSW,241,5.0,5.0,55,0.00,,---,0.00,0.00,VWS V14.01,2013-03-15 04:22:00,
2013-03-15 00:23:00,36.6,22.0,30.22,NW,304,3.0,7.0,55,0.00,,---,0.00,0.00,VWS V14.01,2013-03-15 04:23:00,
2013-03-15 00:24:00,36.6,21.5,30.22,WSW,244,3.0,7.0,54,0.00,,---,0.00,0.00,VWS V14.01,2013-03-15 04:24:00,
2013-03-15 00:25:00,36.7,22.1,30.22,SW,234,4.0,7.0,55,0.00,,---,0.00,0.00,VWS V14.01,2013-03-15 04:25:00,
2013-03-15 00:26:00,36.8,21.7,30.22,WSW,240,1.0,7.0,54,0.00,,---,0.00,0.00,VWS V14.01,2013-03-15 04:26:00,
2013-03-15 00:27:00,36.4,21.8,30.22,WSW,250,2.0,7.0,55,0.00,,---,0.00,0.00,VWS V14.01,2013-03-15 04:27:00,
2013-03-15 00:28:00,36.8,21.7,30.22,WSW,242,6.0,7.0,54,0.00,,---,0.00,0.00,VWS V14.01,2013-03-15 04:28:00,
2013-03-15 00:29:00,36.9,22.3,30.22,WSW,246,4.0,7.0,55,0.00,,---,0.00,0.00,VWS V14.01,2013-03-15 04:29:00,
2013-03-15 00:30:00,36.9,21.8,30.22,SW,232,6.0,6.0,54,0.00,,---,0.00,0.00,VWS V14.01,2013-03-15 04:30:00,
2013-03-15 00:32:00,36.6,22.0,30.22,WSW,256,4.0,6.0,55,0.00,,---,0.00,0.00,VWS V14.01,2013-03-15 04:32:00,
2013-03-15 00:33:00,36.9,22.3,30.22,SW,227,5.0,7.0,55,0.00,,---,0.00,0.00,VWS V14.01,2013-03-15 04:33:00,
2013-03-15 00:34:00,36.9,21.8,30.22,WSW,246,2.0,7.0,54,0.00,,---,0.00,0.00,VWS V14.01,2013-03-15 04:34:00,
2013-03-15 00:35:00,36.9,21.8,30.22,SW,223,4.0,7.0,54,0.00,,---,0.00,0.00,VWS V14.01,2013-03-15 04:35:00,
2013-03-15 00:36:00,36.9,21.8,30.22,WSW,244,0.0,7.0,54,0.00,,---,0.00,0.00,VWS V14.01,2013-03-15 04:36:00,
2013-03-15 00:37:00,36.8,21.7,30.22,WSW,238,0.0,7.0,54,0.00,,---,0.00,0.00,VWS V14.01,2013-03-15 04:37:00,
2013-03-15 00:38:00,36.9,22.3,30.22,SW,236,5.0,7.0,55,0.00,,---,0.00,0.00,VWS V14.01,2013-03-15 04:38:00,
2013-03-15 00:39:00,36.9,22.3,30.22,West,275,3.0,7.0,55,0.00,,---,0.00,0.00,VWS V14.01,2013-03-15 04:39:00,
2013-03-15 00:40:00,36.9,21.8,30.22,West,280,1.0,2.0,54,0.00,,---,0.00,0.00,VWS V14.01,2013-03-15 04:40:00,
2013-03-15 00:41:00,36.9,21.8,30.22,West,267,5.0,5.0,54,0.00,,---,0.00,0.00,VWS V14.01,2013-03-15 04:41:00,
2013-03-15 00:42:00,36.9,22.3,30.22,SW,227,3.0,7.0,55,0.00,,---,0.00,0.00,VWS V14.01,2013-03-15 04:42:00,
2013-03-15 00:43:00,36.9,21.8,30.22,WSW,258,2.0,7.0,54,0.00,,---,0.00,0.00,VWS V14.01,2013-03-15 04:43:00,
2013-03-15 00:44:00,36.9,21.8,30.22,WSW,243,3.0,7.0,54,0.00,,---,0.00,0.00,VWS V14.01,2013-03-15 04:44:00,
2013-03-15 00:45:00,36.9,21.8,30.22,SW,215,0.0,7.0,54,0.00,,---,0.00,0.00,VWS V14.01,2013-03-15 04:45:00,
2013-03-15 00:47:00,36.9,22.3,30.22,WSW,241,3.0,7.0,55,0.00,,---,0.00,0.00,VWS V14.01,2013-03-15 04:47:00,
2013-03-15 00:48:00,36.9,21.8,30.22,SW,227,2.0,7.0,54,0.00,,---,0.00,0.00,VWS V14.01,2013-03-15 04:48:00,
2013-03-15 00:49:00,36.9,21.8,30.22,WNW,291,0.0,7.0,54,0.00,,---,0.00,0.00,VWS V14.01,2013-03-15 04:49:00,
2013-03-15 00:50:00,37.0,21.9,30.22,SW,232,5.0,6.0,54,0.00,,---,0.00,0.00,VWS V14.01,2013-03-15 04:50:00,
2013-03-15 00:51:00,37.0,21.9,30.22,SW,233,1.0,6.0,54,0.00,,---,0.00,0.00,VWS V14.01,2013-03-15 04:51:00,
2013-03-15 00:52:00,36.9,21.8,30.22,WSW,258,2.0,7.0,54,0.00,,---,0.00,0.00,VWS V14.01,2013-03-15 04:52:00,
2013-03-15 00:53:00,37.0,21.9,30.22,WSW,240,2.0,6.0,54,0.00,,---,0.00,0.00,VWS V14.01,2013-03-15 04:53:00,
2013-03-15 00:54:00,37.0,22.4,30.22,WSW,241,0.0,6.0,55,0.00,,---,0.00,0.00,VWS V14.01,2013-03-15 04:54:00,
2013-03-15 00:55:00,37.0,22.4,30.22,West,276,4.0,6.0,55,0.00,,---,0.00,0.00,VWS V14.01,2013-03-15 04:55:00,
2013-03-15 00:56:00,37.0,21.9,30.22,SW,225,2.0,6.0,54,0.00,,---,0.00,0.00,VWS V14.01,2013-03-15 04:56:00,
2013-03-15 00:57:00,37.0,22.4,30.22,WSW,242,6.0,6.0,55,0.00,,---,0.00,0.00,VWS V14.01,2013-03-15 04:57:00,
2013-03-15 00:58:00,37.0,21.9,30.22,WNW,292,2.0,7.0,54,0.00,,---,0.00,0.00,VWS V14.01,2013-03-15 04:58:00,
2013-03-15 00:59:00,37.0,21.9,30.22,SW,219,3.0,6.0,54,0.00,,---,0.00,0.00,VWS V14.01,2013-03-15 04:59:00,
2013-03-15 01:00:00,37.0,21.9,30.22,SW,234,3.0,3.0,54,0.00,,---,0.00,0.00,VWS V14.01,2013-03-15 05:00:00,
2013-03-15 01:01:00,37.0,21.9,30.22,SW,227,4.0,4.0,54,0.00,,---,0.00,0.00,VWS V14.01,2013-03-15 05:01:00,
2013-03-15 01:02:00,37.0,21.9,30.22,WSW,257,3.0,5.0,54,0.00,,---,0.00,0.00,VWS V14.01,2013-03-15 05:02:00,
2013-03-15 01:03:00,37.0,21.9,30.22,WSW,241,0.0,6.0,54,0.00,,---,0.00,0.00,VWS V14.01,2013-03-15 05:03:00,
2013-03-15 01:04:00,37.0,21.9,30.22,WSW,246,5.0,5.0,54,0.00,,---,0.00,0.00,VWS V14.01,2013-03-15 05:04:00,
2013-03-15 01:05:00,37.1,21.6,30.22,WSW,243,5.0,6.0,53,0.00,,---,0.00,0.00,VWS V14.01,2013-03-15 05:05:00,
2013-03-15 01:06:00,37.1,22.0,30.22,WSW,248,2.0,6.0,54,0.00,,---,0.00,0.00,VWS V14.01,2013-03-15 05:06:00,
2013-03-15 01:07:00,37.1,21.6,30.22,WNW,294,2.0,6.0,53,0.00,,---,0.00,0.00,VWS V14.01,2013-03-15 05:07:00,
2013-03-15 01:08:00,37.0,22.4,30.22,SW,215,5.0,6.0,55,0.00,,---,0.00,0.00,VWS V14.01,2013-03-15 05:08:00,
2013-03-15 01:09:00,37.2,22.1,30.22,WSW,241,5.0,6.0,54,0.00,,---,0.00,0.00,VWS V14.01,2013-03-15 05:09:00,
2013-03-15 01:10:00,37.2,22.1,30.22,West,260,2.0,4.0,54,0.00,,---,0.00,0.00,VWS V14.01,2013-03-15 05:10:00,
2013-03-15 01:11:00,37.2,22.1,30.22,SW,231,1.0,4.0,54,0.00,,---,0.00,0.00,VWS V14.01,2013-03-15 05:11:00,
2013-03-15 01:12:00,37.2,22.1,30.22,SW,230,1.0,4.0,54,0.00,,---,0.00,0.00,VWS V14.01,2013-03-15 05:12:00,
2013-03-15 01:13:00,37.0,21.9,30.22,SW,216,3.0,5.0,54,0.00,,---,0.00,0.00,VWS V14.01,2013-03-15 05:13:00,
2013-03-15 01:14:00,37.2,22.1,30.21,WSW,238,2.0,5.0,54,0.00,,---,0.00,0.00,VWS V14.01,2013-03-15 05:14:00,
2013-03-15 01:15:00,37.2,21.7,30.21,WSW,252,0.0,5.0,53,0.00,,---,0.00,0.00,VWS V14.01,2013-03-15 05:15:00,
2013-03-15 01:17:00,37.3,21.8,30.21,SW,231,0.0,5.0,53,0.00,,---,0.00,0.00,VWS V14.01,2013-03-15 05:17:00,
2013-03-15 01:18:00,37.2,22.1,30.22,WSW,240,2.0,6.0,54,0.00,,---,0.00,0.00,VWS V14.01,2013-03-15 05:18:00,
2013-03-15 01:19:00,37.3,22.2,30.21,WSW,244,2.0,5.0,54,0.00,,---,0.00,0.00,VWS V14.01,2013-03-15 05:19:00,
2013-03-15 01:20:00,37.3,21.8,30.21,SW,236,3.0,5.0,53,0.00,,---,0.00,0.00,VWS V14.01,2013-03-15 05:20:00,
2013-03-15 01:21:00,37.3,21.8,30.21,WSW,244,4.0,6.0,53,0.00,,---,0.00,0.00,VWS V14.01,2013-03-15 05:21:00,
2013-03-15 01:22:00,37.4,21.9,30.21,West,271,2.0,6.0,53,0.00,,---,0.00,0.00,VWS V14.01,2013-03-15 05:22:00,
2013-03-15 01:23:00,37.2,22.1,30.21,WSW,238,3.0,5.0,54,0.00,,---,0.00,0.00,VWS V14.01,2013-03-15 05:23:00,
2013-03-15 01:24:00,37.5,21.5,30.21,West,271,1.0,6.0,52,0.00,,---,0.00,0.00,VWS V14.01,2013-03-15 05:24:00,
2013-03-15 01:25:00,37.5,21.5,30.21,SW,236,0.0,6.0,52,0.00,,---,0.00,0.00,VWS V14.01,2013-03-15 05:25:00,
2013-03-15 01:26:00,37.5,21.9,30.21,West,262,0.0,6.0,53,0.00,,---,0.00,0.00,VWS V14.01,2013-03-15 05:26:00,
2013-03-15 01:27:00,37.5,21.5,30.21,SW,229,6.0,6.0,52,0.00,,---,0.00,0.00,VWS V14.01,2013-03-15 05:27:00,
2013-03-15 01:28:00,37.5,21.9,30.21,WSW,251,5.0,6.0,53,0.00,,---,0.00,0.00,VWS V14.01,2013-03-15 05:28:00,
2013-03-15 01:29:00,37.3,22.2,30.21,SW,223,5.0,5.0,54,0.00,,---,0.00,0.00,VWS V14.01,2013-03-15 05:29:00,
2013-03-15 01:30:00,37.6,22.0,30.21,SW,229,3.0,3.0,53,0.00,,---,0.00,0.00,VWS V14.01,2013-03-15 05:30:00,
2013-03-15 01:31:00,37.5,21.5,30.21,WSW,244,2.0,5.0,52,0.00,,---,0.00,0.00,VWS V14.01,2013-03-15 05:31:00,
2013-03-15 01:32:00,37.6,21.6,30.21,West,261,1.0,5.0,52,0.00,,---,0.00,0.00,VWS V14.01,2013-03-15 05:32:00,
2013-03-15 01:33:00,37.6,22.0,30.21,WSW,242,2.0,5.0,53,0.00,,---,0.00,0.00,VWS V14.01,2013-03-15 05:33:00,
2013-03-15 01:34:00,37.5,21.5,30.21,West,269,1.0,6.0,52,0.00,,---,0.00,0.00,VWS V14.01,2013-03-15 05:34:00,
2013-03-15 01:35:00,37.6,21.6,30.21,WSW,253,3.0,6.0,52,0.00,,---,0.00,0.00,VWS V14.01,2013-03-15 05:35:00,
2013-03-15 01:36:00,37.6,21.6,30.21,West,277,2.0,6.0,52,0.00,,---,0.00,0.00,VWS V14.01,2013-03-15 05:36:00,
2013-03-15 01:37:00,37.6,21.6,30.21,SW,222,3.0,6.0,52,0.00,,---,0.00,0.00,VWS V14.01,2013-03-15 05:37:00,
2013-03-15 01:38:00,37.6,21.6,30.21,SW,227,2.0,6.0,52,0.00,,---,0.00,0.00,VWS V14.01,2013-03-15 05:38:00,
2013-03-15 01:39:00,37.6,21.6,30.21,WSW,247,2.0,2.0,52,0.00,,---,0.00,0.00,VWS V14.01,2013-03-15 05:39:00,
2013-03-15 01:40:00,37.6,21.6,30.20,SSW,208,0.0,1.0,52,0.00,,---,0.00,0.00,VWS V14.01,2013-03-15 05:40:00,
2013-03-15 01:41:00,37.6,21.6,30.20,SSW,208,1.0,2.0,52,0.00,,---,0.00,0.00,VWS V14.01,2013-03-15 05:41:00,
2013-03-15 01:42:00,37.6,21.6,30.20,SW,236,1.0,6.0,52,0.00,,---,0.00,0.00,VWS V14.01,2013-03-15 05:42:00,
2013-03-15 01:43:00,37.6,21.6,30.20,SSW,195,0.0,6.0,52,0.00,,---,0.00,0.00,VWS V14.01,2013-03-15 05:43:00,
2013-03-15 01:44:00,37.6,22.0,30.21,West,278,1.0,6.0,53,0.00,,---,0.00,0.00,VWS V14.01,2013-03-15 05:44:00,
2013-03-15 01:45:00,37.5,21.5,30.20,WSW,240,1.0,6.0,52,0.00,,---,0.00,0.00,VWS V14.01,2013-03-15 05:45:00,
2013-03-15 01:46:00,37.5,21.5,30.20,WSW,240,0.0,6.0,52,0.00,,---,0.00,0.00,VWS V14.01,2013-03-15 05:46:00,
2013-03-15 01:47:00,37.5,21.5,30.20,WSW,240,0.0,6.0,52,0.00,,---,0.00,0.00,VWS V14.01,2013-03-15 05:47:00,
2013-03-15 01:48:00,37.5,21.5,30.20,WSW,240,0.0,6.0,52,0.00,,---,0.00,0.00,VWS V14.01,2013-03-15 05:48:00,
2013-03-15 01:49:00,37.6,21.6,30.20,SSW,208,1.0,1.0,52,0.00,,---,0.00,0.00,VWS V14.01,2013-03-15 05:49:00,
2013-03-15 01:50:00,37.4,21.4,30.20,WSW,241,4.0,4.0,52,0.00,,---,0.00,0.00,VWS V14.01,2013-03-15 05:50:00,
2013-03-15 01:51:00,37.4,21.9,30.20,WSW,242,0.0,4.0,53,0.00,,---,0.00,0.00,VWS V14.01,2013-03-15 05:51:00,
2013-03-15 01:52:00,37.4,22.3,30.20,WSW,242,1.0,4.0,54,0.00,,---,0.00,0.00,VWS V14.01,2013-03-15 05:52:00,
2013-03-15 01:53:00,37.4,21.9,30.20,SW,226,0.0,4.0,53,0.00,,---,0.00,0.00,VWS V14.01,2013-03-15 05:53:00,
2013-03-15 01:54:00,37.5,21.5,30.20,WSW,240,3.0,6.0,52,0.00,,---,0.00,0.00,VWS V14.01,2013-03-15 05:54:00,
2013-03-15 01:55:00,37.3,21.8,30.20,SW,226,0.0,4.0,53,0.00,,---,0.00,0.00,VWS V14.01,2013-03-15 05:55:00,
2013-03-15 01:56:00,37.3,21.8,30.20,West,275,1.0,4.0,53,0.00,,---,0.00,0.00,VWS V14.01,2013-03-15 05:56:00,
2013-03-15 01:57:00,37.3,21.3,30.20,WSW,238,0.0,4.0,52,0.00,,---,0.00,0.00,VWS V14.01,2013-03-15 05:57:00,
2013-03-15 01:58:00,37.3,21.8,30.20,WSW,240,0.0,4.0,53,0.00,,---,0.00,0.00,VWS V14.01,2013-03-15 05:58:00,
2013-03-15 01:59:00,37.5,21.5,30.20,WSW,242,3.0,3.0,52,0.00,,---,0.00,0.00,VWS V14.01,2013-03-15 05:59:00,
2013-03-15 02:00:00,37.2,22.1,30.20,WSW,240,0.0,0.0,54,0.00,,---,0.00,0.00,VWS V14.01,2013-03-15 06:00:00,
2013-03-15 02:02:00,37.2,21.7,30.20,WSW,241,3.0,4.0,53,0.00,,---,0.00,0.00,VWS V14.01,2013-03-15 06:02:00,
2013-03-15 02:03:00,37.1,21.6,30.20,WSW,238,1.0,5.0,53,0.00,,---,0.00,0.00,VWS V14.01,2013-03-15 06:03:00,
2013-03-15 02:04:00,37.3,21.8,30.20,SW,226,0.0,4.0,53,0.00,,---,0.00,0.00,VWS V14.01,2013-03-15 06:04:00,
2013-03-15 02:05:00,37.2,21.7,30.20,WSW,240,3.0,5.0,53,0.00,,---,0.00,0.00,VWS V14.01,2013-03-15 06:05:00,
2013-03-15 02:06:00,37.2,21.7,30.20,WSW,240,0.0,5.0,53,0.00,,---,0.00,0.00,VWS V14.01,2013-03-15 06:06:00,
2013-03-15 02:07:00,37.2,22.1,30.20,SW,234,3.0,5.0,54,0.00,,---,0.00,0.00,VWS V14.01,2013-03-15 06:07:00,
2013-03-15 02:08:00,37.2,22.1,30.20,SW,230,2.0,5.0,54,0.00,,---,0.00,0.00,VWS V14.01,2013-03-15 06:08:00,
2013-03-15 02:09:00,37.2,21.7,30.20,SW,230,2.0,5.0,53,0.00,,---,0.00,0.00,VWS V14.01,2013-03-15 06:09:00,
2013-03-15 02:10:00,37.2,22.1,30.20,WSW,239,2.0,3.0,54,0.00,,---,0.00,0.00,VWS V14.01,2013-03-15 06:10:00,
2013-03-15 02:12:00,37.2,22.1,30.20,SW,231,0.0,2.0,54,0.00,,---,0.00,0.00,VWS V14.01,2013-03-15 06:12:00,
2013-03-15 02:13:00,37.2,22.1,30.20,SW,231,0.0,2.0,54,0.00,,---,0.00,0.00,VWS V14.01,2013-03-15 06:13:00,
2013-03-15 02:14:00,37.1,22.4,30.20,WSW,257,1.0,3.0,55,0.00,,---,0.00,0.00,VWS V14.01,2013-03-15 06:14:00,
2013-03-15 02:15:00,37.2,21.7,30.20,WSW,240,2.0,5.0,53,0.00,,---,0.00,0.00,VWS V14.01,2013-03-15 06:15:00,
2013-03-15 02:17:00,37.1,22.4,30.19,WSW,257,0.0,3.0,55,0.00,,---,0.00,0.00,VWS V14.01,2013-03-15 06:17:00,
2013-03-15 02:18:00,37.0,21.9,30.19,WSW,257,1.0,3.0,54,0.00,,---,0.00,0.00,VWS V14.01,2013-03-15 06:18:00,
2013-03-15 02:19:00,37.0,21.9,30.19,WSW,257,0.0,3.0,54,0.00,,---,0.00,0.00,VWS V14.01,2013-03-15 06:19:00,
2013-03-15 02:20:00,37.2,22.1,30.20,SW,231,1.0,2.0,54,0.00,,---,0.00,0.00,VWS V14.01,2013-03-15 06:20:00,
2013-03-15 02:21:00,37.0,21.9,30.19,WSW,248,2.0,3.0,54,0.00,,---,0.00,0.00,VWS V14.01,2013-03-15 06:21:00,
2013-03-15 02:22:00,36.9,21.8,30.19,WSW,248,1.0,3.0,54,0.00,,---,0.00,0.00,VWS V14.01,2013-03-15 06:22:00,
2013-03-15 02:23:00,36.9,21.8,30.19,SW,236,2.0,7.0,54,0.00,,---,0.00,0.00,VWS V14.01,2013-03-15 06:23:00,
2013-03-15 02:24:00,36.9,21.4,30.19,WSW,237,0.0,7.0,53,0.00,,---,0.00,0.00,VWS V14.01,2013-03-15 06:24:00,
2013-03-15 02:25:00,36.9,21.8,30.19,WSW,237,1.0,7.0,54,0.00,,---,0.00,0.00,VWS V14.01,2013-03-15 06:25:00,
2013-03-15 02:26:00,37.1,22.4,30.19,WSW,257,0.0,3.0,55,0.00,,---,0.00,0.00,VWS V14.01,2013-03-15 06:26:00,
2013-03-15 02:27:00,36.8,22.2,30.19,WSW,242,1.0,7.0,55,0.00,,---,0.00,0.00,VWS V14.01,2013-03-15 06:27:00,
2013-03-15 02:28:00,36.8,22.2,30.19,WSW,242,2.0,7.0,55,0.00,,---,0.00,0.00,VWS V14.01,2013-03-15 06:28:00,
2013-03-15 02:29:00,36.7,22.1,30.19,WSW,255,2.0,7.0,55,0.00,,---,0.00,0.00,VWS V14.01,2013-03-15 06:29:00,
2013-03-15 02:30:00,36.8,21.7,30.19,SW,231,3.0,4.0,54,0.00,,---,0.00,0.00,VWS V14.01,2013-03-15 06:30:00,
2013-03-15 02:31:00,36.9,21.8,30.19,WSW,248,0.0,3.0,54,0.00,,---,0.00,0.00,VWS V14.01,2013-03-15 06:31:00,
2013-03-15 02:32:00,36.8,22.2,30.19,SW,234,0.0,4.0,55,0.00,,---,0.00,0.00,VWS V14.01,2013-03-15 06:32:00,
2013-03-15 02:33:00,36.8,22.2,30.19,WSW,241,2.0,5.0,55,0.00,,---,0.00,0.00,VWS V14.01,2013-03-15 06:33:00,
2013-03-15 02:34:00,36.8,21.7,30.19,WSW,241,1.0,5.0,54,0.00,,---,0.00,0.00,VWS V14.01,2013-03-15 06:34:00,
2013-03-15 02:35:00,36.8,22.2,30.19,WSW,241,0.0,5.0,55,0.00,,---,0.00,0.00,VWS V14.01,2013-03-15 06:35:00,
2013-03-15 02:36:00,36.8,22.6,30.19,WSW,239,2.0,7.0,56,0.00,,---,0.00,0.00,VWS V14.01,2013-03-15 06:36:00,
2013-03-15 02:37:00,36.8,22.6,30.19,WSW,254,3.0,5.0,56,0.00,,---,0.00,0.00,VWS V14.01,2013-03-15 06:37:00,
2013-03-15 02:38:00,36.8,22.2,30.20,SW,232,5.0,5.0,55,0.00,,---,0.00,0.00,VWS V14.01,2013-03-15 06:38:00,
2013-03-15 02:39:00,36.8,22.2,30.20,WSW,241,0.0,5.0,55,0.00,,---,0.00,0.00,VWS V14.01,2013-03-15 06:39:00,
2013-03-15 02:40:00,36.8,22.6,30.20,WSW,241,2.0,2.0,56,0.00,,---,0.00,0.00,VWS V14.01,2013-03-15 06:40:00,
2013-03-15 02:41:00,36.8,22.2,30.19,SW,234,1.0,4.0,55,0.00,,---,0.00,0.00,VWS V14.01,2013-03-15 06:41:00,
2013-03-15 02:42:00,36.7,22.5,30.20,WSW,238,1.0,4.0,56,0.00,,---,0.00,0.00,VWS V14.01,2013-03-15 06:42:00,
2013-03-15 02:43:00,36.8,22.2,30.20,WSW,240,1.0,4.0,55,0.00,,---,0.00,0.00,VWS V14.01,2013-03-15 06:43:00,
2013-03-15 02:44:00,36.8,22.6,30.19,WNW,291,2.0,4.0,56,0.00,,---,0.00,0.00,VWS V14.01,2013-03-15 06:44:00,
2013-03-15 02:45:00,36.7,22.5,30.20,West,277,2.0,4.0,56,0.00,,---,0.00,0.00,VWS V14.01,2013-03-15 06:45:00,
2013-03-15 02:46:00,36.8,22.6,30.19,WSW,241,3.0,5.0,56,0.00,,---,0.00,0.00,VWS V14.01,2013-03-15 06:46:00,
2013-03-15 02:47:00,36.8,22.2,30.19,WSW,254,0.0,10.0,55,0.00,,---,0.00,0.00,VWS V14.01,2013-03-15 06:47:00,
2013-03-15 02:48:00,36.8,22.2,30.19,SW,232,2.0,10.0,55,0.00,,---,0.00,0.00,VWS V14.01,2013-03-15 06:48:00,
2013-03-15 02:49:00,36.9,22.3,30.19,WSW,249,3.0,10.0,55,0.00,,---,0.00,0.00,VWS V14.01,2013-03-15 06:49:00,
2013-03-15 02:50:00,36.9,22.3,30.19,WSW,257,4.0,4.0,55,0.00,,---,0.00,0.00,VWS V14.01,2013-03-15 06:50:00,
2013-03-15 02:52:00,36.8,22.2,30.20,WSW,241,1.0,4.0,55,0.00,,---,0.00,0.00,VWS V14.01,2013-03-15 06:52:00,
2013-03-15 02:53:00,37.0,22.4,30.19,SW,234,1.0,5.0,55,0.00,,---,0.00,0.00,VWS V14.01,2013-03-15 06:53:00,
2013-03-15 02:54:00,37.0,22.8,30.18,WSW,254,0.0,5.0,56,0.00,,---,0.00,0.00,VWS V14.01,2013-03-15 06:54:00,
2013-03-15 02:55:00,37.0,22.4,30.19,SW,220,3.0,5.0,55,0.00,,---,0.00,0.00,VWS V14.01,2013-03-15 06:55:00,
2013-03-15 02:56:00,37.0,21.9,30.19,SW,232,0.0,9.0,54,0.00,,---,0.00,0.00,VWS V14.01,2013-03-15 06:56:00,
2013-03-15 02:57:00,36.8,22.2,30.19,SW,232,1.0,10.0,55,0.00,,---,0.00,0.00,VWS V14.01,2013-03-15 06:57:00,
2013-03-15 02:58:00,37.1,22.0,30.18,SW,222,3.0,9.0,54,0.00,,---,0.00,0.00,VWS V14.01,2013-03-15 06:58:00,
2013-03-15 02:59:00,37.1,22.0,30.18,WSW,244,4.0,9.0,54,0.00,,---,0.00,0.00,VWS V14.01,2013-03-15 06:59:00,
2013-03-15 03:00:00,37.2,22.1,30.18,SW,232,2.0,3.0,54,0.00,,---,0.00,0.00,VWS V14.01,2013-03-15 07:00:00,
2013-03-15 03:02:00,37.0,22.4,30.19,SW,234,0.0,5.0,55,0.00,,---,0.00,0.00,VWS V14.01,2013-03-15 07:02:00,
2013-03-15 03:03:00,37.2,22.1,30.18,West,259,2.0,3.0,54,0.00,,---,0.00,0.00,VWS V14.01,2013-03-15 07:03:00,
2013-03-15 03:04:00,37.2,22.1,30.18,WSW,248,4.0,4.0,54,0.00,,---,0.00,0.00,VWS V14.01,2013-03-15 07:04:00,
2013-03-15 03:05:00,37.2,22.1,30.18,SSW,212,5.0,5.0,54,0.00,,---,0.00,0.00,VWS V14.01,2013-03-15 07:05:00,
2013-03-15 03:06:00,37.2,22.1,30.18,SSW,211,0.0,5.0,54,0.00,,---,0.00,0.00,VWS V14.01,2013-03-15 07:06:00,
2013-03-15 03:07:00,37.0,22.4,30.18,SW,217,2.0,9.0,55,0.00,,---,0.00,0.00,VWS V14.01,2013-03-15 07:07:00,
2013-03-15 03:08:00,37.1,21.6,30.18,SSW,211,0.0,5.0,53,0.00,,---,0.00,0.00,VWS V14.01,2013-03-15 07:08:00,
2013-03-15 03:09:00,37.1,21.6,30.18,SSW,211,0.0,5.0,53,0.00,,---,0.00,0.00,VWS V14.01,2013-03-15 07:09:00,
2013-03-15 03:10:00,37.1,21.6,30.18,SSW,211,0.0,0.0,53,0.00,,---,0.00,0.00,VWS V14.01,2013-03-15 07:10:00,
2013-03-15 03:11:00,37.1,22.0,30.18,SSW,211,0.0,0.0,54,0.00,,---,0.00,0.00,VWS V14.01,2013-03-15 07:11:00,
2013-03-15 03:12:00,37.2,22.1,30.18,West,259,0.0,3.0,54,0.00,,---,0.00,0.00,VWS V14.01,2013-03-15 07:12:00,
2013-03-15 03:13:00,37.0,21.9,30.18,SSW,211,0.0,1.0,54,0.00,,---,0.00,0.00,VWS V14.01,2013-03-15 07:13:00,
2013-03-15 03:14:00,36.9,21.8,30.18,SSW,211,0.0,1.0,54,0.00,,---,0.00,0.00,VWS V14.01,2013-03-15 07:14:00,
2013-03-15 03:15:00,36.9,21.8,30.18,SSW,211,0.0,1.0,54,0.00,,---,0.00,0.00,VWS V14.01,2013-03-15 07:15:00,
2013-03-15 03:16:00,36.9,21.8,30.18,SSW,211,0.0,1.0,54,0.00,,---,0.00,0.00,VWS V14.01,2013-03-15 07:16:00,
2013-03-15 03:17:00,37.2,22.1,30.18,SSW,211,2.0,5.0,54,0.00,,---,0.00,0.00,VWS V14.01,2013-03-15 07:17:00,
2013-03-15 03:18:00,36.8,21.7,30.17,SSW,211,0.0,1.0,54,0.00,,---,0.00,0.00,VWS V14.01,2013-03-15 07:18:00,
2013-03-15 03:19:00,36.7,21.6,30.18,SSW,211,0.0,1.0,54,0.00,,---,0.00,0.00,VWS V14.01,2013-03-15 07:19:00,
2013-03-15 03:20:00,36.7,21.6,30.17,SSW,211,0.0,0.0,54,0.00,,---,0.00,0.00,VWS V14.01,2013-03-15 07:20:00,
2013-03-15 03:22:00,37.0,21.9,30.18,SSW,211,0.0,1.0,54,0.00,,---,0.00,0.00,VWS V14.01,2013-03-15 07:22:00,
2013-03-15 03:23:00,36.5,21.9,30.18,SSW,211,0.0,1.0,55,0.00,,---,0.00,0.00,VWS V14.01,2013-03-15 07:23:00,
2013-03-15 03:24:00,36.5,21.5,30.18,SSW,211,0.0,1.0,54,0.00,,---,0.00,0.00,VWS V14.01,2013-03-15 07:24:00,
2013-03-15 03:25:00,36.4,21.4,30.18,SSW,211,0.0,1.0,54,0.00,,---,0.00,0.00,VWS V14.01,2013-03-15 07:25:00,
2013-03-15 03:26:00,36.3,22.5,30.18,SSW,211,0.0,1.0,57,0.00,,---,0.00,0.00,VWS V14.01,2013-03-15 07:26:00,
2013-03-15 03:27:00,36.2,22.0,30.18,SSW,211,0.0,2.0,56,0.00,,---,0.00,0.00,VWS V14.01,2013-03-15 07:27:00,
2013-03-15 03:28:00,36.8,21.7,30.18,SSW,211,0.0,1.0,54,0.00,,---,0.00,0.00,VWS V14.01,2013-03-15 07:28:00,
2013-03-15 03:29:00,36.1,21.9,30.18,SSW,211,0.0,2.0,56,0.00,,---,0.00,0.00,VWS V14.01,2013-03-15 07:29:00,
2013-03-15 03:30:00,36.0,21.8,30.17,SSW,211,0.0,0.0,56,0.00,,---,0.00,0.00,VWS V14.01,2013-03-15 07:30:00,
2013-03-15 03:31:00,36.0,21.8,30.17,SSW,211,0.0,0.0,56,0.00,,---,0.00,0.00,VWS V14.01,2013-03-15 07:31:00,
2013-03-15 03:32:00,35.9,21.8,30.17,SSW,211,1.0,1.0,56,0.00,,---,0.00,0.00,VWS V14.01,2013-03-15 07:32:00,
2013-03-15 03:33:00,36.4,21.4,30.18,SSW,211,0.0,1.0,54,0.00,,---,0.00,0.00,VWS V14.01,2013-03-15 07:33:00,
2013-03-15 03:34:00,35.8,22.5,30.17,SSW,211,0.0,1.0,58,0.00,,---,0.00,0.00,VWS V14.01,2013-03-15 07:34:00,
2013-03-15 03:35:00,35.8,22.9,30.17,SSW,211,0.0,1.0,59,0.00,,---,0.00,0.00,VWS V14.01,2013-03-15 07:35:00,
2013-03-15 03:36:00,35.7,22.4,30.18,SSW,211,0.0,1.0,58,0.00,,---,0.00,0.00,VWS V14.01,2013-03-15 07:36:00,
2013-03-15 03:37:00,35.7,22.0,30.18,SSW,211,0.0,1.0,57,0.00,,---,0.00,0.00,VWS V14.01,2013-03-15 07:37:00,
2013-03-15 03:38:00,36.1,21.9,30.18,SSW,211,0.0,2.0,56,0.00,,---,0.00,0.00,VWS V14.01,2013-03-15 07:38:00,
2013-03-15 03:39:00,35.6,22.7,30.18,SSW,211,0.0,1.0,59,0.00,,---,0.00,0.00,VWS V14.01,2013-03-15 07:39:00,
2013-03-15 03:40:00,35.6,22.7,30.17,SSW,211,0.0,0.0,59,0.00,,---,0.00,0.00,VWS V14.01,2013-03-15 07:40:00,
2013-03-15 03:41:00,35.6,22.7,30.18,SSW,211,0.0,0.0,59,0.00,,---,0.00,0.00,VWS V14.01,2013-03-15 07:41:00,
2013-03-15 03:42:00,35.5,23.0,30.18,SSW,211,2.0,2.0,60,0.00,,---,0.00,0.00,VWS V14.01,2013-03-15 07:42:00,
2013-03-15 03:43:00,35.5,22.6,30.18,SSW,211,1.0,2.0,59,0.00,,---,0.00,0.00,VWS V14.01,2013-03-15 07:43:00,
2013-03-15 03:44:00,35.8,22.9,30.17,SSW,211,0.0,1.0,59,0.00,,---,0.00,0.00,VWS V14.01,2013-03-15 07:44:00,
2013-03-15 03:45:00,35.4,22.1,30.18,SSW,211,0.0,2.0,58,0.00,,---,0.00,0.00,VWS V14.01,2013-03-15 07:45:00,
2013-03-15 03:46:00,35.4,22.5,30.18,SSW,211,0.0,2.0,59,0.00,,---,0.00,0.00,VWS V14.01,2013-03-15 07:46:00,
2013-03-15 03:47:00,35.4,22.9,30.18,SSW,211,1.0,2.0,60,0.00,,---,0.00,0.00,VWS V14.01,2013-03-15 07:47:00,
2013-03-15 03:48:00,35.4,22.5,30.18,SSW,211,0.0,3.0,59,0.00,,---,0.00,0.00,VWS V14.01,2013-03-15 07:48:00,
2013-03-15 03:49:00,35.6,22.7,30.17,SSW,211,0.0,0.0,59,0.00,,---,0.00,0.00,VWS V14.01,2013-03-15 07:49:00,
2013-03-15 03:50:00,35.4,22.1,30.17,SSW,211,0.0,0.0,58,0.00,,---,0.00,0.00,VWS V14.01,2013-03-15 07:50:00,
2013-03-15 03:51:00,35.4,22.1,30.18,SSW,211,0.0,0.0,58,0.00,,---,0.00,0.00,VWS V14.01,2013-03-15 07:51:00,
2013-03-15 03:52:00,35.4,22.5,30.18,SSW,211,1.0,2.0,59,0.00,,---,0.00,0.00,VWS V14.01,2013-03-15 07:52:00,
2013-03-15 03:53:00,35.4,22.5,30.18,SSW,211,1.0,2.0,59,0.00,,---,0.00,0.00,VWS V14.01,2013-03-15 07:53:00,
2013-03-15 03:54:00,35.4,22.9,30.18,SSW,211,1.0,2.0,60,0.00,,---,0.00,0.00,VWS V14.01,2013-03-15 07:54:00,
2013-03-15 03:55:00,35.4,22.1,30.18,SSW,211,0.0,2.0,58,0.00,,---,0.00,0.00,VWS V14.01,2013-03-15 07:55:00,
2013-03-15 03:56:00,35.4,22.5,30.18,SSW,211,0.0,2.0,59,0.00,,---,0.00,0.00,VWS V14.01,2013-03-15 07:56:00,
2013-03-15 03:57:00,35.3,22.4,30.18,SSW,211,0.0,2.0,59,0.00,,---,0.00,0.00,VWS V14.01,2013-03-15 07:57:00,
2013-03-15 03:58:00,35.3,22.0,30.17,SSW,211,0.0,2.0,58,0.00,,---,0.00,0.00,VWS V14.01,2013-03-15 07:58:00,
2013-03-15 03:59:00,35.3,22.4,30.17,SSW,211,0.0,2.0,59,0.00,,---,0.00,0.00,VWS V14.01,2013-03-15 07:59:00,
2013-03-15 04:00:00,35.4,22.1,30.17,SSW,211,0.0,0.0,58,0.00,,---,0.00,0.00,VWS V14.01,2013-03-15 08:00:00,
2013-03-15 04:01:00,35.3,22.4,30.17,SSW,211,0.0,1.0,59,0.00,,---,0.00,0.00,VWS V14.01,2013-03-15 08:01:00,
2013-03-15 04:02:00,35.3,22.8,30.17,SSW,211,0.0,1.0,60,0.00,,---,0.00,0.00,VWS V14.01,2013-03-15 08:02:00,
2013-03-15 04:03:00,35.2,22.7,30.17,SSW,211,0.0,1.0,60,0.00,,---,0.00,0.00,VWS V14.01,2013-03-15 08:03:00,
2013-03-15 04:04:00,35.2,22.3,30.17,SSW,211,0.0,1.0,59,0.00,,---,0.00,0.00,VWS V14.01,2013-03-15 08:04:00,
2013-03-15 04:05:00,35.3,22.4,30.18,SSW,211,0.0,2.0,59,0.00,,---,0.00,0.00,VWS V14.01,2013-03-15 08:05:00,
2013-03-15 04:06:00,35.2,22.3,30.17,WSW,252,0.0,3.0,59,0.00,,---,0.00,0.00,VWS V14.01,2013-03-15 08:06:00,
2013-03-15 04:07:00,35.2,22.3,30.17,South,189,0.0,3.0,59,0.00,,---,0.00,0.00,VWS V14.01,2013-03-15 08:07:00,
2013-03-15 04:08:00,35.1,22.2,30.17,South,189,0.0,3.0,59,0.00,,---,0.00,0.00,VWS V14.01,2013-03-15 08:08:00,
2013-03-15 04:09:00,35.1,22.2,30.17,South,189,0.0,3.0,59,0.00,,---,0.00,0.00,VWS V14.01,2013-03-15 08:09:00,
2013-03-15 04:10:00,35.3,22.4,30.17,SSW,211,1.0,1.0,59,0.00,,---,0.00,0.00,VWS V14.01,2013-03-15 08:10:00,
2013-03-15 04:12:00,35.1,22.2,30.17,South,189,0.0,2.0,59,0.00,,---,0.00,0.00,VWS V14.01,2013-03-15 08:12:00,
2013-03-15 04:13:00,35.1,22.2,30.17,South,189,0.0,2.0,59,0.00,,---,0.00,0.00,VWS V14.01,2013-03-15 08:13:00,
2013-03-15 04:14:00,35.1,22.6,30.17,South,189,0.0,2.0,60,0.00,,---,0.00,0.00,VWS V14.01,2013-03-15 08:14:00,
2013-03-15 04:15:00,35.2,22.3,30.17,WSW,252,0.0,3.0,59,0.00,,---,0.00,0.00,VWS V14.01,2013-03-15 08:15:00,
2013-03-15 04:16:00,35.0,22.5,30.17,South,189,0.0,2.0,60,0.00,,---,0.00,0.00,VWS V14.01,2013-03-15 08:16:00,
2013-03-15 04:17:00,35.0,22.9,30.17,South,189,0.0,2.0,61,0.00,,---,0.00,0.00,VWS V14.01,2013-03-15 08:17:00,
2013-03-15 04:18:00,35.0,23.3,30.17,South,189,0.0,2.0,62,0.00,,---,0.00,0.00,VWS V14.01,2013-03-15 08:18:00,
2013-03-15 04:19:00,35.0,23.3,30.18,South,189,1.0,2.0,62,0.00,,---,0.00,0.00,VWS V14.01,2013-03-15 08:19:00,
2013-03-15 04:20:00,35.1,22.6,30.17,South,189,0.0,2.0,60,0.00,,---,0.00,0.00,VWS V14.01,2013-03-15 08:20:00,
2013-03-15 04:21:00,34.9,22.8,30.17,South,190,0.0,2.0,61,0.00,,---,0.00,0.00,VWS V14.01,2013-03-15 08:21:00,
2013-03-15 04:22:00,34.9,23.2,30.17,South,190,0.0,2.0,62,0.00,,---,0.00,0.00,VWS V14.01,2013-03-15 08:22:00,
2013-03-15 04:23:00,34.8,23.1,30.17,WSW,254,0.0,2.0,62,0.00,,---,0.00,0.00,VWS V14.01,2013-03-15 08:23:00,
2013-03-15 04:24:00,34.8,23.1,30.17,WSW,254,0.0,2.0,62,0.00,,---,0.00,0.00,VWS V14.01,2013-03-15 08:24:00,
2013-03-15 04:25:00,35.1,22.6,30.17,South,189,0.0,2.0,60,0.00,,---,0.00,0.00,VWS V14.01,2013-03-15 08:25:00,
2013-03-15 04:26:00,34.8,23.1,30.17,WSW,254,0.0,2.0,62,0.00,,---,0.00,0.00,VWS V14.01,2013-03-15 08:26:00,
2013-03-15 04:27:00,34.8,23.1,30.17,WSW,254,0.0,2.0,62,0.00,,---,0.00,0.00,VWS V14.01,2013-03-15 08:27:00,
2013-03-15 04:28:00,34.8,23.5,30.17,WSW,254,0.0,2.0,63,0.00,,---,0.00,0.00,VWS V14.01,2013-03-15 08:28:00,
2013-03-15 04:29:00,34.8,23.5,30.17,WSW,248,0.0,2.0,63,0.00,,---,0.00,0.00,VWS V14.01,2013-03-15 08:29:00,
2013-03-15 04:30:00,34.9,22.8,30.17,South,190,0.0,2.0,61,0.00,,---,0.00,0.00,VWS V14.01,2013-03-15 08:30:00,
2013-03-15 04:31:00,34.7,23.4,30.17,SSW,201,0.0,3.0,63,0.00,,---,0.00,0.00,VWS V14.01,2013-03-15 08:31:00,
2013-03-15 04:32:00,34.7,23.4,30.17,SSW,201,0.0,3.0,63,0.00,,---,0.00,0.00,VWS V14.01,2013-03-15 08:32:00,
2013-03-15 04:33:00,34.7,23.4,30.17,WNW,284,0.0,4.0,63,0.00,,---,0.00,0.00,VWS V14.01,2013-03-15 08:33:00,
2013-03-15 04:34:00,34.7,23.4,30.17,WNW,284,0.0,4.0,63,0.00,,---,0.00,0.00,VWS V14.01,2013-03-15 08:34:00,
2013-03-15 04:35:00,34.7,23.0,30.17,WNW,285,0.0,4.0,62,0.00,,---,0.00,0.00,VWS V14.01,2013-03-15 08:35:00,
2013-03-15 04:37:00,34.8,23.5,30.17,WSW,254,0.0,2.0,63,0.00,,---,0.00,0.00,VWS V14.01,2013-03-15 08:37:00,
2013-03-15 04:38:00,34.8,23.1,30.17,ESE,115,0.0,4.0,62,0.00,,---,0.00,0.00,VWS V14.01,2013-03-15 08:38:00,
2013-03-15 04:39:00,34.8,23.5,30.17,ESE,115,0.0,4.0,63,0.00,,---,0.00,0.00,VWS V14.01,2013-03-15 08:39:00,
2013-03-15 04:40:00,34.8,23.5,30.17,ESE,115,0.0,0.0,63,0.00,,---,0.00,0.00,VWS V14.01,2013-03-15 08:40:00,
2013-03-15 04:41:00,34.7,23.4,30.17,ESE,115,0.0,0.0,63,0.00,,---,0.00,0.00,VWS V14.01,2013-03-15 08:41:00,
2013-03-15 04:42:00,34.7,23.4,30.17,WNW,284,1.0,4.0,63,0.00,,---,0.00,0.00,VWS V14.01,2013-03-15 08:42:00,
2013-03-15 04:43:00,34.7,23.4,30.17,ESE,119,0.0,2.0,63,0.00,,---,0.00,0.00,VWS V14.01,2013-03-15 08:43:00,
2013-03-15 04:44:00,34.8,23.5,30.17,ESE,119,0.0,2.0,63,0.00,,---,0.00,0.00,VWS V14.01,2013-03-15 08:44:00,
2013-03-15 04:45:00,34.7,23.0,30.17,ESE,119,0.0,2.0,62,0.00,,---,0.00,0.00,VWS V14.01,2013-03-15 08:45:00,
2013-03-15 04:46:00,34.7,23.4,30.17,ESE,119,0.0,2.0,63,0.00,,---,0.00,0.00,VWS V14.01,2013-03-15 08:46:00,
2013-03-15 04:47:00,34.8,23.1,30.17,ESE,115,0.0,4.0,62,0.00,,---,0.00,0.00,VWS V14.01,2013-03-15 08:47:00,
2013-03-15 04:48:00,34.7,23.4,30.17,ESE,119,0.0,2.0,63,0.00,,---,0.00,0.00,VWS V14.01,2013-03-15 08:48:00,
2013-03-15 04:49:00,34.7,23.4,30.17,ESE,119,0.0,2.0,63,0.00,,---,0.00,0.00,VWS V14.01,2013-03-15 08:49:00,
2013-03-15 04:50:00,34.6,23.3,30.17,ESE,119,0.0,0.0,63,0.00,,---,0.00,0.00,VWS V14.01,2013-03-15 08:50:00,
2013-03-15 04:51:00,34.6,23.3,30.17,ESE,119,0.0,0.0,63,0.00,,---,0.00,0.00,VWS V14.01,2013-03-15 08:51:00,
2013-03-15 04:52:00,34.6,23.3,30.16,ESE,119,0.0,0.0,63,0.00,,---,0.00,0.00,VWS V14.01,2013-03-15 08:52:00,
2013-03-15 04:53:00,34.7,23.4,30.17,ESE,119,0.0,2.0,63,0.00,,---,0.00,0.00,VWS V14.01,2013-03-15 08:53:00,
2013-03-15 04:54:00,34.6,23.3,30.16,ESE,119,0.0,1.0,63,0.00,,---,0.00,0.00,VWS V14.01,2013-03-15 08:54:00,
2013-03-15 04:55:00,34.5,23.2,30.16,ESE,119,0.0,1.0,63,0.00,,---,0.00,0.00,VWS V14.01,2013-03-15 08:55:00,
2013-03-15 04:56:00,34.5,23.2,30.16,ESE,119,0.0,1.0,63,0.00,,---,0.00,0.00,VWS V14.01,2013-03-15 08:56:00,
2013-03-15 04:57:00,34.4,23.1,30.16,ESE,119,0.0,1.0,63,0.00,,---,0.00,0.00,VWS V14.01,2013-03-15 08:57:00,
2013-03-15 04:58:00,34.7,23.4,30.17,ESE,119,0.0,2.0,63,0.00,,---,0.00,0.00,VWS V14.01,2013-03-15 08:58:00,
2013-03-15 04:59:00,34.4,23.5,30.16,ESE,119,0.0,1.0,64,0.00,,---,0.00,0.00,VWS V14.01,2013-03-15 08:59:00,
2013-03-15 05:00:00,34.4,23.5,30.16,ESE,119,0.0,0.0,64,0.00,,---,0.00,0.00,VWS V14.01,2013-03-15 09:00:00,
2013-03-15 05:01:00,34.3,23.4,30.16,ESE,119,0.0,0.0,64,0.00,,---,0.00,0.00,VWS V14.01,2013-03-15 09:01:00,
2013-03-15 05:02:00,34.3,23.4,30.16,ESE,119,0.0,0.0,64,0.00,,---,0.00,0.00,VWS V14.01,2013-03-15 09:02:00,
2013-03-15 05:03:00,34.6,23.3,30.16,ESE,119,0.0,1.0,63,0.00,,---,0.00,0.00,VWS V14.01,2013-03-15 09:03:00,
2013-03-15 05:04:00,34.2,23.3,30.16,ESE,119,0.0,1.0,64,0.00,,---,0.00,0.00,VWS V14.01,2013-03-15 09:04:00,
2013-03-15 05:05:00,34.2,23.3,30.16,ESE,119,0.0,1.0,64,0.00,,---,0.00,0.00,VWS V14.01,2013-03-15 09:05:00,
2013-03-15 05:06:00,34.2,23.7,30.16,ESE,119,0.0,1.0,65,0.00,,---,0.00,0.00,VWS V14.01,2013-03-15 09:06:00,
2013-03-15 05:07:00,34.1,23.6,30.16,ESE,119,0.0,1.0,65,0.00,,---,0.00,0.00,VWS V14.01,2013-03-15 09:07:00,
2013-03-15 05:08:00,34.4,23.5,30.16,ESE,119,0.0,1.0,64,0.00,,---,0.00,0.00,VWS V14.01,2013-03-15 09:08:00,
2013-03-15 05:09:00,34.1,23.6,30.16,ESE,119,0.0,1.0,65,0.00,,---,0.00,0.00,VWS V14.01,2013-03-15 09:09:00,
2013-03-15 05:10:00,34.0,23.5,30.16,ESE,119,0.0,0.0,65,0.00,,---,0.00,0.00,VWS V14.01,2013-03-15 09:10:00,
2013-03-15 05:12:00,34.0,23.5,30.15,ESE,119,0.0,1.0,65,0.00,,---,0.00,0.00,VWS V14.01,2013-03-15 09:12:00,
2013-03-15 05:13:00,34.2,23.3,30.16,ESE,119,0.0,1.0,64,0.00,,---,0.00,0.00,VWS V14.01,2013-03-15 09:13:00,
2013-03-15 05:14:00,33.9,23.8,30.16,ESE,119,0.0,1.0,66,0.00,,---,0.00,0.00,VWS V14.01,2013-03-15 09:14:00,
2013-03-15 05:15:00,33.9,23.4,30.16,ESE,119,0.0,1.0,65,0.00,,---,0.00,0.00,VWS V14.01,2013-03-15 09:15:00,
2013-03-15 05:16:00,33.9,23.8,30.16,ESE,119,0.0,1.0,66,0.00,,---,0.00,0.00,VWS V14.01,2013-03-15 09:16:00,
2013-03-15 05:17:00,33.8,23.7,30.15,ESE,119,0.0,1.0,66,0.00,,---,0.00,0.00,VWS V14.01,2013-03-15 09:17:00,
2013-03-15 05:18:00,34.1,23.6,30.16,ESE,119,0.0,1.0,65,0.00,,---,0.00,0.00,VWS V14.01,2013-03-15 09:18:00,
2013-03-15 05:19:00,33.8,23.7,30.16,ESE,119,0.0,1.0,66,0.00,,---,0.00,0.00,VWS V14.01,2013-03-15 09:19:00,
2013-03-15 05:20:00,33.8,23.7,30.16,ESE,119,0.0,0.0,66,0.00,,---,0.00,0.00,VWS V14.01,2013-03-15 09:20:00,
2013-03-15 05:21:00,33.7,23.6,30.16,ESE,119,0.0,0.0,66,0.00,,---,0.00,0.00,VWS V14.01,2013-03-15 09:21:00,
2013-03-15 05:22:00,33.7,23.6,30.16,ESE,119,0.0,0.0,66,0.00,,---,0.00,0.00,VWS V14.01,2013-03-15 09:22:00,
2013-03-15 05:23:00,33.9,23.8,30.16,ESE,119,0.0,1.0,66,0.00,,---,0.00,0.00,VWS V14.01,2013-03-15 09:23:00,
2013-03-15 05:24:00,33.7,23.9,30.15,ESE,119,0.0,0.0,67,0.00,,---,0.00,0.00,VWS V14.01,2013-03-15 09:24:00,
2013-03-15 05:25:00,33.7,23.9,30.16,ESE,119,0.0,0.0,67,0.00,,---,0.00,0.00,VWS V14.01,2013-03-15 09:25:00,
2013-03-15 05:26:00,33.7,23.9,30.15,ESE,119,0.0,0.0,67,0.00,,---,0.00,0.00,VWS V14.01,2013-03-15 09:26:00,
2013-03-15 05:27:00,33.7,23.9,30.16,ESE,119,0.0,1.0,67,0.00,,---,0.00,0.00,VWS V14.01,2013-03-15 09:27:00,
2013-03-15 05:28:00,33.8,23.7,30.16,ESE,119,0.0,1.0,66,0.00,,---,0.00,0.00,VWS V14.01,2013-03-15 09:28:00,
2013-03-15 05:29:00,33.7,23.9,30.16,ESE,119,0.0,1.0,67,0.00,,---,0.00,0.00,VWS V14.01,2013-03-15 09:29:00,
2013-03-15 05:30:00,33.6,23.8,30.16,ESE,119,0.0,0.0,67,0.00,,---,0.00,0.00,VWS V14.01,2013-03-15 09:30:00,
2013-03-15 05:31:00,33.6,23.8,30.16,ESE,119,0.0,0.0,67,0.00,,---,0.00,0.00,VWS V14.01,2013-03-15 09:31:00,
2013-03-15 05:32:00,33.6,23.8,30.16,ESE,119,0.0,1.0,67,0.00,,---,0.00,0.00,VWS V14.01,2013-03-15 09:32:00,
2013-03-15 05:33:00,33.7,23.9,30.15,ESE,119,0.0,0.0,67,0.00,,---,0.00,0.00,VWS V14.01,2013-03-15 09:33:00,
2013-03-15 05:34:00,33.6,24.2,30.16,ESE,119,0.0,1.0,68,0.00,,---,0.00,0.00,VWS V14.01,2013-03-15 09:34:00,
2013-03-15 05:35:00,33.5,24.1,30.16,ESE,119,0.0,1.0,68,0.00,,---,0.00,0.00,VWS V14.01,2013-03-15 09:35:00,
2013-03-15 05:36:00,33.5,24.1,30.16,ESE,119,0.0,1.0,68,0.00,,---,0.00,0.00,VWS V14.01,2013-03-15 09:36:00,
2013-03-15 05:37:00,33.5,24.4,30.16,ESE,119,0.0,1.0,69,0.00,,---,0.00,0.00,VWS V14.01,2013-03-15 09:37:00,
2013-03-15 05:38:00,33.4,24.3,30.16,ESE,119,0.0,1.0,69,0.00,,---,0.00,0.00,VWS V14.01,2013-03-15 09:38:00,
2013-03-15 05:39:00,33.6,23.8,30.16,ESE,119,0.0,1.0,67,0.00,,---,0.00,0.00,VWS V14.01,2013-03-15 09:39:00,
2013-03-15 05:40:00,33.3,24.2,30.16,ESE,119,0.0,0.0,69,0.00,,---,0.00,0.00,VWS V14.01,2013-03-15 09:40:00,
2013-03-15 05:41:00,33.2,24.1,30.16,ESE,119,0.0,0.0,69,0.00,,---,0.00,0.00,VWS V14.01,2013-03-15 09:41:00,
2013-03-15 05:42:00,33.2,24.1,30.16,ESE,119,0.0,0.0,69,0.00,,---,0.00,0.00,VWS V14.01,2013-03-15 09:42:00,
2013-03-15 05:43:00,33.2,24.5,30.16,ESE,119,0.0,0.0,70,0.00,,---,0.00,0.00,VWS V14.01,2013-03-15 09:43:00,
2013-03-15 05:44:00,33.5,24.1,30.16,ESE,119,0.0,1.0,68,0.00,,---,0.00,0.00,VWS V14.01,2013-03-15 09:44:00,
2013-03-15 05:45:00,33.0,24.3,30.16,ESE,119,0.0,0.0,70,0.00,,---,0.00,0.00,VWS V14.01,2013-03-15 09:45:00,
2013-03-15 05:47:00,32.9,24.2,30.16,ESE,119,0.0,0.0,70,0.00,,---,0.00,0.00,VWS V14.01,2013-03-15 09:47:00,
2013-03-15 05:48:00,32.9,24.2,30.16,ESE,119,0.0,0.0,70,0.00,,---,0.00,0.00,VWS V14.01,2013-03-15 09:48:00,
2013-03-15 05:49:00,33.3,23.9,30.16,ESE,119,0.0,0.0,68,0.00,,---,0.00,0.00,VWS V14.01,2013-03-15 09:49:00,
2013-03-15 05:50:00,32.8,24.1,30.16,ESE,119,0.0,0.0,70,0.00,,---,0.00,0.00,VWS V14.01,2013-03-15 09:50:00,
2013-03-15 05:52:00,32.6,24.2,30.16,ESE,119,0.0,0.0,71,0.00,,---,0.00,0.00,VWS V14.01,2013-03-15 09:52:00,
2013-03-15 05:53:00,32.5,24.2,30.16,ESE,119,0.0,0.0,71,0.00,,---,0.00,0.00,VWS V14.01,2013-03-15 09:53:00,
2013-03-15 05:54:00,33.1,24.4,30.16,ESE,119,0.0,0.0,70,0.00,,---,0.00,0.00,VWS V14.01,2013-03-15 09:54:00,
2013-03-15 05:55:00,32.3,24.3,30.16,ESE,119,0.0,0.0,72,0.00,,---,0.00,0.00,VWS V14.01,2013-03-15 09:55:00,
2013-03-15 05:56:00,32.3,24.3,30.16,ESE,119,0.0,0.0,72,0.00,,---,0.00,0.00,VWS V14.01,2013-03-15 09:56:00,
2013-03-15 05:57:00,32.2,24.2,30.16,ESE,119,0.0,0.0,72,0.00,,---,0.00,0.00,VWS V14.01,2013-03-15 09:57:00,
2013-03-15 05:58:00,32.1,24.1,30.17,ESE,119,0.0,0.0,72,0.00,,---,0.00,0.00,VWS V14.01,2013-03-15 09:58:00,
2013-03-15 05:59:00,32.8,24.1,30.16,ESE,119,0.0,0.0,70,0.00,,---,0.00,0.00,VWS V14.01,2013-03-15 09:59:00,
2013-03-15 06:00:00,31.9,24.2,30.17,ESE,119,0.0,0.0,73,0.00,,---,0.00,0.00,VWS V14.01,2013-03-15 10:00:00,
2013-03-15 06:01:00,31.9,24.2,30.17,ESE,119,0.0,0.0,73,0.00,,---,0.00,0.00,VWS V14.01,2013-03-15 10:01:00,
2013-03-15 06:02:00,31.8,24.1,30.17,ESE,119,0.0,0.0,73,0.00,,---,0.00,0.00,VWS V14.01,2013-03-15 10:02:00,
2013-03-15 06:03:00,31.7,24.0,30.17,ESE,119,0.0,0.0,73,0.00,,---,0.00,0.00,VWS V14.01,2013-03-15 10:03:00,
2013-03-15 06:04:00,31.7,24.0,30.17,ESE,119,0.0,0.0,73,0.00,,---,0.00,0.00,VWS V14.01,2013-03-15 10:04:00,
2013-03-15 06:05:00,32.4,24.4,30.16,ESE,119,0.0,0.0,72,0.00,,---,0.00,0.00,VWS V14.01,2013-03-15 10:05:00,
2013-03-15 06:06:00,31.8,24.1,30.17,ESE,119,0.0,1.0,73,0.00,,---,0.00,0.00,VWS V14.01,2013-03-15 10:06:00,
2013-03-15 06:07:00,31.9,24.2,30.17,ESE,119,0.0,1.0,73,0.00,,---,0.00,0.00,VWS V14.01,2013-03-15 10:07:00,
2013-03-15 06:08:00,32.0,24.3,30.16,ESE,119,0.0,1.0,73,0.00,,---,0.00,0.00,VWS V14.01,2013-03-15 10:08:00,
2013-03-15 06:09:00,32.1,24.4,30.16,ESE,119,0.0,1.0,73,0.00,,---,0.00,0.00,VWS V14.01,2013-03-15 10:09:00,
2013-03-15 06:10:00,31.9,24.2,30.17,ESE,119,0.0,0.0,73,0.00,,---,0.00,0.00,VWS V14.01,2013-03-15 10:10:00,
2013-03-15 06:11:00,32.2,24.2,30.16,ESE,119,0.0,0.0,72,0.00,,---,0.00,0.00,VWS V14.01,2013-03-15 10:11:00,
2013-03-15 06:12:00,32.3,24.3,30.16,ESE,119,0.0,1.0,72,0.00,,---,0.00,0.00,VWS V14.01,2013-03-15 10:12:00,
2013-03-15 06:13:00,32.3,24.3,30.16,ESE,119,0.0,1.0,72,0.00,,---,0.00,0.00,VWS V14.01,2013-03-15 10:13:00,
2013-03-15 06:14:00,32.3,24.3,30.16,ESE,119,0.0,1.0,72,0.00,,---,0.00,0.00,VWS V14.01,2013-03-15 10:14:00,
2013-03-15 06:15:00,31.8,24.1,30.17,ESE,119,0.0,1.0,73,0.00,,---,0.00,0.00,VWS V14.01,2013-03-15 10:15:00,
2013-03-15 06:16:00,32.3,24.6,30.16,ESE,119,0.0,1.0,73,0.00,,---,0.00,0.00,VWS V14.01,2013-03-15 10:16:00,
2013-03-15 06:17:00,32.3,24.6,30.16,ESE,119,0.0,1.0,73,0.00,,---,0.00,0.00,VWS V14.01,2013-03-15 10:17:00,
2013-03-15 06:18:00,32.2,24.5,30.16,ESE,119,0.0,1.0,73,0.00,,---,0.00,0.00,VWS V14.01,2013-03-15 10:18:00,
2013-03-15 06:19:00,32.1,24.4,30.16,ESE,119,0.0,1.0,73,0.00,,---,0.00,0.00,VWS V14.01,2013-03-15 10:19:00,
2013-03-15 06:20:00,32.2,24.5,30.16,ESE,119,0.0,0.0,73,0.00,,---,0.00,0.00,VWS V14.01,2013-03-15 10:20:00,
2013-03-15 06:21:00,32.0,24.3,30.16,ESE,119,0.0,0.0,73,0.00,,---,0.00,0.00,VWS V14.01,2013-03-15 10:21:00,
2013-03-15 06:22:00,32.0,24.3,30.16,ESE,119,0.0,0.0,73,0.00,,---,0.00,0.00,VWS V14.01,2013-03-15 10:22:00,
2013-03-15 06:23:00,31.9,24.2,30.17,ESE,119,0.0,0.0,73,0.00,,---,0.00,0.00,VWS V14.01,2013-03-15 10:23:00,
2013-03-15 06:24:00,31.8,24.1,30.17,ESE,119,0.0,0.0,73,0.00,,---,0.00,0.00,VWS V14.01,2013-03-15 10:24:00,
2013-03-15 06:25:00,32.3,24.6,30.16,ESE,119,0.0,1.0,73,0.00,,---,0.00,0.00,VWS V14.01,2013-03-15 10:25:00,
2013-03-15 06:26:00,31.7,24.4,30.17,ESE,119,0.0,0.0,74,0.00,,---,0.00,0.00,VWS V14.01,2013-03-15 10:26:00,
2013-03-15 06:27:00,31.7,24.4,30.17,ESE,119,0.0,0.0,74,0.00,,---,0.00,0.00,VWS V14.01,2013-03-15 10:27:00,
2013-03-15 06:28:00,31.6,24.3,30.17,ESE,119,0.0,0.0,74,0.00,,---,0.00,0.00,VWS V14.01,2013-03-15 10:28:00,
2013-03-15 06:29:00,31.6,24.3,30.17,ESE,119,0.0,0.0,74,0.00,,---,0.00,0.00,VWS V14.01,2013-03-15 10:29:00,
2013-03-15 06:30:00,32.0,24.3,30.16,ESE,119,0.0,0.0,73,0.00,,---,0.00,0.00,VWS V14.01,2013-03-15 10:30:00,
2013-03-15 06:31:00,31.5,24.2,30.16,ESE,119,0.0,0.0,74,0.00,,---,0.00,0.00,VWS V14.01,2013-03-15 10:31:00,
2013-03-15 06:32:00,31.4,24.1,30.16,ESE,119,0.0,0.0,74,0.00,,---,0.00,0.00,VWS V14.01,2013-03-15 10:32:00,
2013-03-15 06:33:00,31.4,24.1,30.16,ESE,119,0.0,0.0,74,0.00,,---,0.00,0.00,VWS V14.01,2013-03-15 10:33:00,
2013-03-15 06:34:00,31.4,24.1,30.16,ESE,119,0.0,0.0,74,0.00,,---,0.00,0.00,VWS V14.01,2013-03-15 10:34:00,
2013-03-15 06:35:00,31.7,24.4,30.17,ESE,119,0.0,0.0,74,0.00,,---,0.00,0.00,VWS V14.01,2013-03-15 10:35:00,
2013-03-15 06:36:00,31.3,24.3,30.17,ESE,119,0.0,0.0,75,0.00,,---,0.00,0.00,VWS V14.01,2013-03-15 10:36:00,
2013-03-15 06:37:00,31.3,24.3,30.16,ESE,119,0.0,0.0,75,0.00,,---,0.00,0.00,VWS V14.01,2013-03-15 10:37:00,
2013-03-15 06:38:00,31.3,24.3,30.16,ESE,119,0.0,0.0,75,0.00,,---,0.00,0.00,VWS V14.01,2013-03-15 10:38:00,
2013-03-15 06:39:00,31.3,24.3,30.16,ESE,119,0.0,0.0,75,0.00,,---,0.00,0.00,VWS V14.01,2013-03-15 10:39:00,
2013-03-15 06:40:00,31.3,24.3,30.16,ESE,119,0.0,0.0,75,0.00,,---,0.00,0.00,VWS V14.01,2013-03-15 10:40:00,
2013-03-15 06:41:00,31.5,24.2,30.16,ESE,119,0.0,0.0,74,0.00,,---,0.00,0.00,VWS V14.01,2013-03-15 10:41:00,
2013-03-15 06:42:00,31.2,24.2,30.16,ESE,119,0.0,0.0,75,0.00,,---,0.00,0.00,VWS V14.01,2013-03-15 10:42:00,
2013-03-15 06:43:00,31.2,24.2,30.17,ESE,119,0.0,0.0,75,0.00,,---,0.00,0.00,VWS V14.01,2013-03-15 10:43:00,
2013-03-15 06:44:00,31.1,24.1,30.16,ESE,119,0.0,0.0,75,0.00,,---,0.00,0.00,VWS V14.01,2013-03-15 10:44:00,
2013-03-15 06:45:00,31.1,24.1,30.17,ESE,119,0.0,0.0,75,0.00,,---,0.00,0.00,VWS V14.01,2013-03-15 10:45:00,
2013-03-15 06:46:00,31.2,24.2,30.16,ESE,119,0.0,0.0,75,0.00,,---,0.00,0.00,VWS V14.01,2013-03-15 10:46:00,
2013-03-15 06:47:00,31.2,24.2,30.17,ESE,119,0.0,0.0,75,0.00,,---,0.00,0.00,VWS V14.01,2013-03-15 10:47:00,
2013-03-15 06:48:00,31.2,24.2,30.16,ESE,119,0.0,0.0,75,0.00,,---,0.00,0.00,VWS V14.01,2013-03-15 10:48:00,
2013-03-15 06:49:00,31.3,24.3,30.17,ESE,119,0.0,0.0,75,0.00,,---,0.00,0.00,VWS V14.01,2013-03-15 10:49:00,
2013-03-15 06:50:00,31.4,24.4,30.16,ESE,119,0.0,0.0,75,0.00,,---,0.00,0.00,VWS V14.01,2013-03-15 10:50:00,
2013-03-15 06:51:00,31.2,24.2,30.16,ESE,119,0.0,0.0,75,0.00,,---,0.00,0.00,VWS V14.01,2013-03-15 10:51:00,
2013-03-15 06:52:00,31.4,24.4,30.17,ESE,119,0.0,0.0,75,0.00,,---,0.00,0.00,VWS V14.01,2013-03-15 10:52:00,
2013-03-15 06:53:00,31.4,24.4,30.16,ESE,119,0.0,0.0,75,0.00,,---,0.00,0.00,VWS V14.01,2013-03-15 10:53:00,
2013-03-15 06:54:00,31.4,24.4,30.17,ESE,119,0.0,0.0,75,0.00,,---,0.00,0.00,VWS V14.01,2013-03-15 10:54:00,
2013-03-15 06:55:00,31.4,24.4,30.17,ESE,119,0.0,0.0,75,0.00,,---,0.00,0.00,VWS V14.01,2013-03-15 10:55:00,
2013-03-15 06:56:00,31.4,24.4,30.17,ESE,119,0.0,0.0,75,0.00,,---,0.00,0.00,VWS V14.01,2013-03-15 10:56:00,
2013-03-15 06:57:00,31.2,24.2,30.16,ESE,119,0.0,0.0,75,0.00,,---,0.00,0.00,VWS V14.01,2013-03-15 10:57:00,
2013-03-15 06:58:00,31.3,24.3,30.17,ESE,119,0.0,0.0,75,0.00,,---,0.00,0.00,VWS V14.01,2013-03-15 10:58:00,
2013-03-15 06:59:00,31.2,24.5,30.16,ESE,119,0.0,0.0,76,0.00,,---,0.00,0.00,VWS V14.01,2013-03-15 10:59:00,
2013-03-15 07:00:00,31.2,24.5,30.16,ESE,119,0.0,0.0,76,0.00,,---,0.00,0.00,VWS V14.01,2013-03-15 11:00:00,
2013-03-15 07:01:00,31.1,24.4,30.16,ESE,119,0.0,0.0,76,0.00,,---,0.00,0.00,VWS V14.01,2013-03-15 11:01:00,
2013-03-15 07:02:00,31.4,24.4,30.16,ESE,119,0.0,0.0,75,0.00,,---,0.00,0.00,VWS V14.01,2013-03-15 11:02:00,
2013-03-15 07:03:00,31.1,24.8,30.16,ESE,119,0.0,0.0,77,0.00,,---,0.00,0.00,VWS V14.01,2013-03-15 11:03:00,
2013-03-15 07:04:00,31.1,24.8,30.16,ESE,119,0.0,0.0,77,0.00,,---,0.00,0.00,VWS V14.01,2013-03-15 11:04:00,
2013-03-15 07:05:00,31.0,24.6,30.16,ESE,119,0.0,0.0,77,0.00,,---,0.00,0.00,VWS V14.01,2013-03-15 11:05:00,
2013-03-15 07:06:00,30.9,24.9,30.16,ESE,119,0.0,0.0,78,0.00,,---,0.00,0.00,VWS V14.01,2013-03-15 11:06:00,
2013-03-15 07:07:00,31.3,24.3,30.17,ESE,119,0.0,0.0,75,0.00,,---,0.00,0.00,VWS V14.01,2013-03-15 11:07:00,
2013-03-15 07:08:00,30.8,24.8,30.16,ESE,119,0.0,0.0,78,0.00,,---,0.00,0.00,VWS V14.01,2013-03-15 11:08:00,
2013-03-15 07:09:00,30.8,24.8,30.16,ESE,119,0.0,0.0,78,0.00,,---,0.00,0.00,VWS V14.01,2013-03-15 11:09:00,
2013-03-15 07:10:00,30.8,24.8,30.16,ESE,119,0.0,0.0,78,0.00,,---,0.00,0.00,VWS V14.01,2013-03-15 11:10:00,
2013-03-15 07:11:00,30.8,24.8,30.16,ESE,119,0.0,0.0,78,0.00,,---,0.00,0.00,VWS V14.01,2013-03-15 11:11:00,
2013-03-15 07:12:00,31.1,24.8,30.16,ESE,119,0.0,0.0,77,0.00,,---,0.00,0.00,VWS V14.01,2013-03-15 11:12:00,
2013-03-15 07:13:00,30.8,24.8,30.16,ESE,119,0.0,0.0,78,0.00,,---,0.00,0.00,VWS V14.01,2013-03-15 11:13:00,
2013-03-15 07:14:00,30.8,24.8,30.16,ESE,119,0.0,0.0,78,0.00,,---,0.00,0.00,VWS V14.01,2013-03-15 11:14:00,
2013-03-15 07:15:00,30.8,24.5,30.16,ESE,119,0.0,0.0,77,0.00,,---,0.00,0.00,VWS V14.01,2013-03-15 11:15:00,
2013-03-15 07:16:00,30.8,24.5,30.16,ESE,119,0.0,0.0,77,0.00,,---,0.00,0.00,VWS V14.01,2013-03-15 11:16:00,
2013-03-15 07:17:00,30.9,24.9,30.16,ESE,119,0.0,0.0,78,0.00,,---,0.00,0.00,VWS V14.01,2013-03-15 11:17:00,
2013-03-15 07:18:00,30.7,24.4,30.16,ESE,119,0.0,0.0,77,0.00,,---,0.00,0.00,VWS V14.01,2013-03-15 11:18:00,
2013-03-15 07:19:00,30.7,24.4,30.16,ESE,119,0.0,0.0,77,0.00,,---,0.00,0.00,VWS V14.01,2013-03-15 11:19:00,
2013-03-15 07:20:00,30.7,24.4,30.16,ESE,119,0.0,0.0,77,0.00,,---,0.00,0.00,VWS V14.01,2013-03-15 11:20:00,
2013-03-15 07:21:00,30.7,24.4,30.16,ESE,119,0.0,0.0,77,0.00,,---,0.00,0.00,VWS V14.01,2013-03-15 11:21:00,
2013-03-15 07:22:00,30.8,24.8,30.16,ESE,119,0.0,0.0,78,0.00,,---,0.00,0.00,VWS V14.01,2013-03-15 11:22:00,
2013-03-15 07:23:00,30.8,24.5,30.16,ESE,119,0.0,0.0,77,0.00,,---,0.00,0.00,VWS V14.01,2013-03-15 11:23:00,
2013-03-15 07:24:00,30.8,24.5,30.16,ESE,119,0.0,0.0,77,0.00,,---,0.00,0.00,VWS V14.01,2013-03-15 11:24:00,
2013-03-15 07:25:00,30.8,24.8,30.16,ESE,119,0.0,0.0,78,0.00,,---,0.00,0.00,VWS V14.01,2013-03-15 11:25:00,
2013-03-15 07:26:00,30.8,24.8,30.16,ESE,119,0.0,0.0,78,0.00,,---,0.00,0.00,VWS V14.01,2013-03-15 11:26:00,
2013-03-15 07:27:00,30.7,24.4,30.16,ESE,119,0.0,0.0,77,0.00,,---,0.00,0.00,VWS V14.01,2013-03-15 11:27:00,
2013-03-15 07:28:00,30.9,24.9,30.15,ESE,119,0.0,0.0,78,0.00,,---,0.00,0.00,VWS V14.01,2013-03-15 11:28:00,
2013-03-15 07:29:00,30.9,25.2,30.15,ESE,119,0.0,0.0,79,0.00,,---,0.00,0.00,VWS V14.01,2013-03-15 11:29:00,
2013-03-15 07:30:00,30.9,25.2,30.15,ESE,119,0.0,0.0,79,0.00,,---,0.00,0.00,VWS V14.01,2013-03-15 11:30:00,
2013-03-15 07:31:00,31.0,25.3,30.15,ESE,119,0.0,1.0,79,0.00,,---,0.00,0.00,VWS V14.01,2013-03-15 11:31:00,
2013-03-15 07:32:00,30.7,24.4,30.16,ESE,119,0.0,0.0,77,0.00,,---,0.00,0.00,VWS V14.01,2013-03-15 11:32:00,
2013-03-15 07:33:00,31.0,25.3,30.15,ESE,119,0.0,1.0,79,0.00,,---,0.00,5.00,VWS V14.01,2013-03-15 11:33:00,
2013-03-15 07:34:00,31.0,25.3,30.15,ESE,119,0.0,1.0,79,0.00,,---,0.00,5.00,VWS V14.01,2013-03-15 11:34:00,
2013-03-15 07:35:00,31.0,25.3,30.15,ESE,119,0.0,1.0,79,0.00,,---,0.00,5.00,VWS V14.01,2013-03-15 11:35:00,
2013-03-15 07:36:00,31.0,25.0,30.15,ESE,119,0.0,1.0,78,0.00,,---,0.00,5.00,VWS V14.01,2013-03-15 11:36:00,
2013-03-15 07:37:00,30.9,24.9,30.15,ESE,119,0.0,0.0,78,0.00,,---,0.00,0.00,VWS V14.01,2013-03-15 11:37:00,
2013-03-15 07:38:00,31.0,25.0,30.15,ESE,119,0.0,1.0,78,0.00,,---,0.00,7.00,VWS V14.01,2013-03-15 11:38:00,
2013-03-15 07:39:00,31.0,25.0,30.15,ESE,119,0.0,1.0,78,0.00,,---,0.00,7.00,VWS V14.01,2013-03-15 11:39:00,
2013-03-15 07:40:00,31.0,25.0,30.15,ESE,119,0.0,0.0,78,0.00,,---,0.00,9.00,VWS V14.01,2013-03-15 11:40:00,
2013-03-15 07:41:00,31.0,25.0,30.15,ESE,119,0.0,0.0,78,0.00,,---,0.00,9.00,VWS V14.01,2013-03-15 11:41:00,
2013-03-15 07:42:00,31.0,25.3,30.15,ESE,119,0.0,1.0,79,0.00,,---,0.00,5.00,VWS V14.01,2013-03-15 11:42:00,
2013-03-15 07:43:00,31.1,25.0,30.15,ESE,119,0.0,0.0,78,0.00,,---,0.00,11.00,VWS V14.01,2013-03-15 11:43:00,
2013-03-15 07:44:00,31.1,25.0,30.14,ESE,119,0.0,0.0,78,0.00,,---,0.00,11.00,VWS V14.01,2013-03-15 11:44:00,
2013-03-15 07:45:00,31.1,25.0,30.14,ESE,119,0.0,0.0,78,0.00,,---,0.00,11.00,VWS V14.01,2013-03-15 11:45:00,
2013-03-15 07:46:00,31.1,25.0,30.15,ESE,119,0.0,0.0,78,0.00,,---,0.00,12.00,VWS V14.01,2013-03-15 11:46:00,
2013-03-15 07:47:00,31.2,25.1,30.15,ESE,119,0.0,0.0,78,0.00,,---,0.00,12.00,VWS V14.01,2013-03-15 11:47:00,
2013-03-15 07:48:00,31.0,25.0,30.15,ESE,119,0.0,1.0,78,0.00,,---,0.00,7.00,VWS V14.01,2013-03-15 11:48:00,
2013-03-15 07:49:00,31.2,25.1,30.14,ESE,119,0.0,0.0,78,0.00,,---,0.00,14.00,VWS V14.01,2013-03-15 11:49:00,
2013-03-15 07:50:00,31.2,25.1,30.15,ESE,119,0.0,0.0,78,0.00,,---,0.00,14.00,VWS V14.01,2013-03-15 11:50:00,
2013-03-15 07:52:00,31.3,25.2,30.14,ESE,119,0.0,0.0,78,0.00,,---,0.00,16.00,VWS V14.01,2013-03-15 11:52:00,
2013-03-15 07:53:00,31.1,25.0,30.14,ESE,119,0.0,0.0,78,0.00,,---,0.00,11.00,VWS V14.01,2013-03-15 11:53:00,
2013-03-15 07:54:00,31.3,25.2,30.15,ESE,119,0.0,0.0,78,0.00,,---,0.00,18.00,VWS V14.01,2013-03-15 11:54:00,
2013-03-15 07:55:00,31.3,25.2,30.14,ESE,119,0.0,0.0,78,0.00,,---,0.00,18.00,VWS V14.01,2013-03-15 11:55:00,
2013-03-15 07:56:00,31.3,25.2,30.15,ESE,119,0.0,0.0,78,0.00,,---,0.00,18.00,VWS V14.01,2013-03-15 11:56:00,
2013-03-15 07:57:00,31.3,25.2,30.15,ESE,119,0.0,0.0,78,0.00,,---,0.00,19.00,VWS V14.01,2013-03-15 11:57:00,
2013-03-15 07:58:00,31.2,25.1,30.14,ESE,119,0.0,0.0,78,0.00,,---,0.00,14.00,VWS V14.01,2013-03-15 11:58:00,
2013-03-15 07:59:00,31.3,25.2,30.15,ESE,119,0.0,0.0,78,0.00,,---,0.00,19.00,VWS V14.01,2013-03-15 11:59:00,
2013-03-15 08:00:00,31.3,25.2,30.15,ESE,119,0.0,0.0,78,0.00,,---,0.00,21.00,VWS V14.01,2013-03-15 12:00:00,
2013-03-15 08:01:00,31.3,25.2,30.15,ESE,119,0.0,0.0,78,0.00,,---,0.00,21.00,VWS V14.01,2013-03-15 12:01:00,
2013-03-15 08:02:00,31.3,25.6,30.15,ESE,119,0.0,0.0,79,0.00,,---,0.00,21.00,VWS V14.01,2013-03-15 12:02:00,
2013-03-15 08:03:00,31.3,25.6,30.15,ESE,119,0.0,0.0,79,0.00,,---,0.00,23.00,VWS V14.01,2013-03-15 12:03:00,
2013-03-15 08:04:00,31.3,25.2,30.14,ESE,119,0.0,0.0,78,0.00,,---,0.00,18.00,VWS V14.01,2013-03-15 12:04:00,
2013-03-15 08:05:00,31.3,25.6,30.15,ESE,119,0.0,0.0,79,0.00,,---,0.00,23.00,VWS V14.01,2013-03-15 12:05:00,
2013-03-15 08:07:00,31.3,25.6,30.15,ESE,119,0.0,0.0,79,0.00,,---,0.00,25.00,VWS V14.01,2013-03-15 12:07:00,
2013-03-15 08:08:00,31.3,25.6,30.15,ESE,119,0.0,0.0,79,0.00,,---,0.00,25.00,VWS V14.01,2013-03-15 12:08:00,
2013-03-15 08:09:00,31.3,25.2,30.15,ESE,119,0.0,0.0,78,0.00,,---,0.00,19.00,VWS V14.01,2013-03-15 12:09:00,
2013-03-15 08:10:00,31.2,25.5,30.15,ESE,119,0.0,0.0,79,0.00,,---,0.00,25.00,VWS V14.01,2013-03-15 12:10:00,
2013-03-15 08:11:00,31.2,25.5,30.15,ESE,119,0.0,0.0,79,0.00,,---,0.00,26.00,VWS V14.01,2013-03-15 12:11:00,
2013-03-15 08:12:00,31.2,25.5,30.15,ESE,119,0.0,0.0,79,0.00,,---,0.00,26.00,VWS V14.01,2013-03-15 12:12:00,
2013-03-15 08:13:00,31.1,25.4,30.15,ESE,119,0.0,0.0,79,0.00,,---,0.00,26.00,VWS V14.01,2013-03-15 12:13:00,
2013-03-15 08:14:00,31.3,25.6,30.15,ESE,119,0.0,0.0,79,0.00,,---,0.00,23.00,VWS V14.01,2013-03-15 12:14:00,
2013-03-15 08:15:00,31.1,25.4,30.15,ESE,119,0.0,0.0,79,0.00,,---,0.00,26.00,VWS V14.01,2013-03-15 12:15:00,
2013-03-15 08:16:00,31.0,25.6,30.15,ESE,119,0.0,0.0,80,0.00,,---,0.00,28.00,VWS V14.01,2013-03-15 12:16:00,
2013-03-15 08:17:00,31.1,25.7,30.15,ESE,119,0.0,0.0,80,0.00,,---,0.00,28.00,VWS V14.01,2013-03-15 12:17:00,
2013-03-15 08:18:00,31.0,25.6,30.15,ESE,119,0.0,0.0,80,0.00,,---,0.00,28.00,VWS V14.01,2013-03-15 12:18:00,
2013-03-15 08:19:00,31.2,25.5,30.15,ESE,119,0.0,0.0,79,0.00,,---,0.00,25.00,VWS V14.01,2013-03-15 12:19:00,
2013-03-15 08:20:00,31.0,25.6,30.15,ESE,119,0.0,0.0,80,0.00,,---,0.00,28.00,VWS V14.01,2013-03-15 12:20:00,
2013-03-15 08:22:00,31.0,25.6,30.15,ESE,119,0.0,0.0,80,0.00,,---,0.00,30.00,VWS V14.01,2013-03-15 12:22:00,
2013-03-15 08:23:00,30.9,25.5,30.14,ESE,119,0.0,0.0,80,0.00,,---,0.00,30.00,VWS V14.01,2013-03-15 12:23:00,
2013-03-15 08:24:00,30.9,25.5,30.15,ESE,119,0.0,0.0,80,0.00,,---,0.00,30.00,VWS V14.01,2013-03-15 12:24:00,
2013-03-15 08:25:00,31.1,25.7,30.15,ESE,119,0.0,0.0,80,0.00,,---,0.00,26.00,VWS V14.01,2013-03-15 12:25:00,
2013-03-15 08:27:00,30.8,25.4,30.15,ESE,119,0.0,0.0,80,0.00,,---,0.00,32.00,VWS V14.01,2013-03-15 12:27:00,
2013-03-15 08:28:00,30.8,25.4,30.14,ESE,119,0.0,0.0,80,0.00,,---,0.00,32.00,VWS V14.01,2013-03-15 12:28:00,
2013-03-15 08:29:00,30.8,25.4,30.15,ESE,119,0.0,0.0,80,0.00,,---,0.00,32.00,VWS V14.01,2013-03-15 12:29:00,
2013-03-15 08:30:00,31.0,25.6,30.15,ESE,119,0.0,0.0,80,0.00,,---,0.00,28.00,VWS V14.01,2013-03-15 12:30:00,
2013-03-15 08:31:00,30.8,25.4,30.15,ESE,119,0.0,0.0,80,0.00,,---,0.00,33.00,VWS V14.01,2013-03-15 12:31:00,
2013-03-15 08:32:00,30.7,25.3,30.15,ESE,119,0.0,0.0,80,0.00,,---,0.00,33.00,VWS V14.01,2013-03-15 12:32:00,
2013-03-15 08:33:00,30.7,25.6,30.15,ESE,119,0.0,0.0,81,0.00,,---,0.00,33.00,VWS V14.01,2013-03-15 12:33:00,
2013-03-15 08:34:00,30.7,25.6,30.15,ESE,119,0.0,0.0,81,0.00,,---,0.00,35.00,VWS V14.01,2013-03-15 12:34:00,
2013-03-15 08:35:00,30.8,25.4,30.15,ESE,119,0.0,0.0,80,0.00,,---,0.00,32.00,VWS V14.01,2013-03-15 12:35:00,
2013-03-15 08:36:00,30.7,25.6,30.15,ESE,119,0.0,0.0,81,0.00,,---,0.00,35.00,VWS V14.01,2013-03-15 12:36:00,
2013-03-15 08:37:00,30.7,25.6,30.15,ESE,119,0.0,0.0,81,0.00,,---,0.00,37.00,VWS V14.01,2013-03-15 12:37:00,
2013-03-15 08:38:00,30.7,25.6,30.15,ESE,119,0.0,0.0,81,0.00,,---,0.00,37.00,VWS V14.01,2013-03-15 12:38:00,
2013-03-15 08:39:00,30.7,25.6,30.15,ESE,119,0.0,0.0,81,0.00,,---,0.00,37.00,VWS V14.01,2013-03-15 12:39:00,
2013-03-15 08:40:00,30.8,25.4,30.15,ESE,119,0.0,0.0,80,0.00,,---,0.00,33.00,VWS V14.01,2013-03-15 12:40:00,
2013-03-15 08:41:00,30.7,25.6,30.15,ESE,119,0.0,0.0,81,0.00,,---,0.00,39.00,VWS V14.01,2013-03-15 12:41:00,
2013-03-15 08:42:00,30.8,26.0,30.14,ESE,119,0.0,0.0,82,0.00,,---,0.00,39.00,VWS V14.01,2013-03-15 12:42:00,
2013-03-15 08:43:00,30.8,25.7,30.15,ESE,119,0.0,0.0,81,0.00,,---,0.00,39.00,VWS V14.01,2013-03-15 12:43:00,
2013-03-15 08:44:00,30.8,26.0,30.14,ESE,119,0.0,0.0,82,0.00,,---,0.00,39.00,VWS V14.01,2013-03-15 12:44:00,
2013-03-15 08:45:00,30.9,26.1,30.14,ESE,119,0.0,0.0,82,0.00,,---,0.00,40.00,VWS V14.01,2013-03-15 12:45:00,
2013-03-15 08:46:00,30.7,25.6,30.15,ESE,119,0.0,0.0,81,0.00,,---,0.00,37.00,VWS V14.01,2013-03-15 12:46:00,
2013-03-15 08:47:00,30.9,26.1,30.14,ESE,119,0.0,0.0,82,0.00,,---,0.00,40.00,VWS V14.01,2013-03-15 12:47:00,
2013-03-15 08:48:00,31.0,26.2,30.14,ESE,119,0.0,0.0,82,0.00,,---,0.00,42.00,VWS V14.01,2013-03-15 12:48:00,
2013-03-15 08:49:00,31.0,26.2,30.14,ESE,119,0.0,0.0,82,0.00,,---,0.00,49.00,VWS V14.01,2013-03-15 12:49:00,
2013-03-15 08:50:00,31.1,26.3,30.14,ESE,119,0.0,0.0,82,0.00,,---,0.00,53.00,VWS V14.01,2013-03-15 12:50:00,
2013-03-15 08:51:00,30.8,26.0,30.14,ESE,119,0.0,0.0,82,0.00,,---,0.00,39.00,VWS V14.01,2013-03-15 12:51:00,
2013-03-15 08:52:00,31.2,26.4,30.14,ESE,119,0.0,0.0,82,0.00,,---,0.00,54.00,VWS V14.01,2013-03-15 12:52:00,
2013-03-15 08:53:00,31.2,26.4,30.14,ESE,119,0.0,0.0,82,0.00,,---,0.00,58.00,VWS V14.01,2013-03-15 12:53:00,
2013-03-15 08:54:00,31.3,26.2,30.14,ESE,119,0.0,0.0,81,0.00,,---,0.00,58.00,VWS V14.01,2013-03-15 12:54:00,
2013-03-15 08:55:00,31.4,26.2,30.14,ESE,119,0.0,0.0,81,0.00,,---,0.00,47.00,VWS V14.01,2013-03-15 12:55:00,
2013-03-15 08:56:00,31.5,26.4,30.14,ESE,119,0.0,0.0,81,0.00,,---,0.00,47.00,VWS V14.01,2013-03-15 12:56:00,
2013-03-15 08:57:00,31.0,26.2,30.14,ESE,119,0.0,0.0,82,0.00,,---,0.00,42.00,VWS V14.01,2013-03-15 12:57:00,
2013-03-15 08:58:00,31.6,26.5,30.14,ESE,119,0.0,0.0,81,0.00,,---,0.00,51.00,VWS V14.01,2013-03-15 12:58:00,
2013-03-15 08:59:00,31.7,26.5,30.14,ESE,119,0.0,0.0,81,0.00,,---,0.00,53.00,VWS V14.01,2013-03-15 12:59:00,
2013-03-15 09:00:00,31.8,26.4,30.14,ESE,119,0.0,0.0,80,0.00,,---,0.00,51.00,VWS V14.01,2013-03-15 13:00:00,
2013-03-15 09:01:00,31.9,26.4,30.14,ESE,119,0.0,0.0,80,0.00,,---,0.00,49.00,VWS V14.01,2013-03-15 13:01:00,
2013-03-15 09:02:00,31.2,26.4,30.14,ESE,119,0.0,0.0,82,0.00,,---,0.00,58.00,VWS V14.01,2013-03-15 13:02:00,
2013-03-15 09:03:00,32.1,26.6,30.14,ESE,119,0.0,0.0,80,0.00,,---,0.00,49.00,VWS V14.01,2013-03-15 13:03:00,
2013-03-15 09:04:00,32.2,26.7,30.14,ESE,119,0.0,0.0,80,0.00,,---,0.00,49.00,VWS V14.01,2013-03-15 13:04:00,
2013-03-15 09:05:00,32.3,26.8,30.14,ESE,119,0.0,0.0,80,0.00,,---,0.00,53.00,VWS V14.01,2013-03-15 13:05:00,
2013-03-15 09:06:00,32.4,26.6,30.14,ESE,119,0.0,0.0,79,0.00,,---,0.00,65.00,VWS V14.01,2013-03-15 13:06:00,
2013-03-15 09:07:00,31.6,26.5,30.14,ESE,119,0.0,0.0,81,0.00,,---,0.00,51.00,VWS V14.01,2013-03-15 13:07:00,
2013-03-15 09:08:00,32.6,26.8,30.14,ESE,119,0.0,0.0,79,0.00,,---,0.00,104.00,VWS V14.01,2013-03-15 13:08:00,
2013-03-15 09:09:00,32.8,27.3,30.14,ESE,119,0.0,0.0,80,0.00,,---,0.00,90.00,VWS V14.01,2013-03-15 13:09:00,
2013-03-15 09:10:00,33.0,27.2,30.14,ESE,119,0.0,0.0,79,0.00,,---,0.00,69.00,VWS V14.01,2013-03-15 13:10:00,
2013-03-15 09:11:00,33.1,27.3,30.14,ESE,119,0.0,0.0,79,0.00,,---,0.00,69.00,VWS V14.01,2013-03-15 13:11:00,
2013-03-15 09:12:00,32.1,26.6,30.14,ESE,119,0.0,0.0,80,0.00,,---,0.00,49.00,VWS V14.01,2013-03-15 13:12:00,
2013-03-15 09:13:00,33.3,27.5,30.14,ESE,119,0.0,0.0,79,0.00,,---,0.00,76.00,VWS V14.01,2013-03-15 13:13:00,
2013-03-15 09:14:00,33.4,27.6,30.14,ESE,119,0.0,0.0,79,0.00,,---,0.00,72.00,VWS V14.01,2013-03-15 13:14:00,
2013-03-15 09:15:00,33.5,27.7,30.14,ESE,119,0.0,0.0,79,0.00,,---,0.00,63.00,VWS V14.01,2013-03-15 13:15:00,
2013-03-15 09:16:00,33.5,27.7,30.13,ESE,119,0.0,0.0,79,0.00,,---,0.00,67.00,VWS V14.01,2013-03-15 13:16:00,
2013-03-15 09:17:00,33.6,27.5,30.13,ESE,119,0.0,0.0,78,0.00,,---,0.00,86.00,VWS V14.01,2013-03-15 13:17:00,
2013-03-15 09:18:00,32.7,27.2,30.14,ESE,119,0.0,0.0,80,0.00,,---,0.00,104.00,VWS V14.01,2013-03-15 13:18:00,
2013-03-15 09:19:00,33.8,27.4,30.13,ESE,119,0.0,0.0,77,0.00,,---,0.00,88.00,VWS V14.01,2013-03-15 13:19:00,
2013-03-15 09:20:00,33.9,27.5,30.13,ESE,119,0.0,0.0,77,0.00,,---,0.00,105.00,VWS V14.01,2013-03-15 13:20:00,
2013-03-15 09:21:00,34.0,27.6,30.13,ESE,119,0.0,0.0,77,0.00,,---,0.00,120.00,VWS V14.01,2013-03-15 13:21:00,
2013-03-15 09:22:00,34.1,27.3,30.13,ESE,119,0.0,0.0,76,0.00,,---,0.00,127.00,VWS V14.01,2013-03-15 13:22:00,
2013-03-15 09:23:00,33.4,27.6,30.14,ESE,119,0.0,0.0,79,0.00,,---,0.00,76.00,VWS V14.01,2013-03-15 13:23:00,
2013-03-15 09:24:00,34.4,27.6,30.13,ESE,119,0.0,0.0,76,0.00,,---,0.00,151.00,VWS V14.01,2013-03-15 13:24:00,
2013-03-15 09:25:00,34.5,27.7,30.13,ESE,119,0.0,0.0,76,0.00,,---,0.00,195.00,VWS V14.01,2013-03-15 13:25:00,
2013-03-15 09:26:00,34.6,27.5,30.13,ESE,119,0.0,0.0,75,0.00,,---,0.00,232.00,VWS V14.01,2013-03-15 13:26:00,
2013-03-15 09:27:00,34.7,27.9,30.13,ESE,119,0.0,0.0,76,0.00,,---,0.00,202.00,VWS V14.01,2013-03-15 13:27:00,
2013-03-15 09:28:00,33.8,27.4,30.13,ESE,119,0.0,0.0,77,0.00,,---,0.00,88.00,VWS V14.01,2013-03-15 13:28:00,
2013-03-15 09:29:00,35.0,27.9,30.13,ESE,119,0.0,1.0,75,0.00,,---,0.00,125.00,VWS V14.01,2013-03-15 13:29:00,
2013-03-15 09:30:00,35.2,28.4,30.12,ESE,119,0.0,0.0,76,0.00,,---,0.00,130.00,VWS V14.01,2013-03-15 13:30:00,
2013-03-15 09:32:00,35.5,28.7,30.12,ESE,119,0.0,0.0,76,0.00,,---,0.00,158.00,VWS V14.01,2013-03-15 13:32:00,
2013-03-15 09:33:00,34.3,27.5,30.13,ESE,119,0.0,0.0,76,0.00,,---,0.00,151.00,VWS V14.01,2013-03-15 13:33:00,
2013-03-15 09:34:00,35.7,28.9,30.12,ESE,119,0.0,0.0,76,0.00,,---,0.00,153.00,VWS V14.01,2013-03-15 13:34:00,
2013-03-15 09:35:00,35.9,28.8,30.12,ESE,119,0.0,0.0,75,0.00,,---,0.00,156.00,VWS V14.01,2013-03-15 13:35:00,
2013-03-15 09:36:00,36.0,28.9,30.12,ESE,119,0.0,0.0,75,0.00,,---,0.00,160.00,VWS V14.01,2013-03-15 13:36:00,
2013-03-15 09:37:00,36.2,29.0,30.12,ESE,119,0.0,0.0,75,0.00,,---,0.00,125.00,VWS V14.01,2013-03-15 13:37:00,
2013-03-15 09:38:00,35.0,28.2,30.13,ESE,119,0.0,1.0,76,0.00,,---,0.00,125.00,VWS V14.01,2013-03-15 13:38:00,
2013-03-15 09:39:00,36.5,29.0,30.12,ESE,119,0.0,1.0,74,0.00,,---,0.00,111.00,VWS V14.01,2013-03-15 13:39:00,
2013-03-15 09:40:00,36.6,29.1,30.12,ESE,119,0.0,0.0,74,0.00,,---,0.00,118.00,VWS V14.01,2013-03-15 13:40:00,
2013-03-15 09:41:00,36.8,29.3,30.12,ESE,119,0.0,0.0,74,0.00,,---,0.00,139.00,VWS V14.01,2013-03-15 13:41:00,
2013-03-15 09:42:00,37.0,29.5,30.12,ESE,119,0.0,0.0,74,0.00,,---,0.00,165.00,VWS V14.01,2013-03-15 13:42:00,
2013-03-15 09:43:00,37.1,29.6,30.12,ESE,119,0.0,2.0,74,0.00,,---,0.00,155.00,VWS V14.01,2013-03-15 13:43:00,
2013-03-15 09:44:00,35.8,28.7,30.12,ESE,119,0.0,0.0,75,0.00,,---,0.00,156.00,VWS V14.01,2013-03-15 13:44:00,
2013-03-15 09:45:00,37.4,29.9,30.12,West,279,3.0,3.0,74,0.00,,---,0.00,137.00,VWS V14.01,2013-03-15 13:45:00,
2013-03-15 09:46:00,37.6,29.7,30.12,WNW,290,0.0,4.0,73,0.00,,---,0.00,123.00,VWS V14.01,2013-03-15 13:46:00,
2013-03-15 09:47:00,37.8,29.9,30.12,WNW,290,1.0,4.0,73,0.00,,---,0.00,111.00,VWS V14.01,2013-03-15 13:47:00,
2013-03-15 09:48:00,38.0,30.1,30.12,WSW,237,0.0,4.0,73,0.00,,---,0.00,120.00,VWS V14.01,2013-03-15 13:48:00,
2013-03-15 09:49:00,36.6,29.1,30.12,ESE,119,0.0,1.0,74,0.00,,---,0.00,111.00,VWS V14.01,2013-03-15 13:49:00,
2013-03-15 09:50:00,38.3,30.1,30.12,WSW,238,0.0,2.0,72,0.00,,---,0.00,127.00,VWS V14.01,2013-03-15 13:50:00,
2013-03-15 09:51:00,38.5,29.9,30.12,WSW,238,0.0,2.0,71,0.00,,---,0.00,102.00,VWS V14.01,2013-03-15 13:51:00,
2013-03-15 09:52:00,38.6,30.0,30.11,WSW,238,1.0,2.0,71,0.00,,---,0.00,127.00,VWS V14.01,2013-03-15 13:52:00,
2013-03-15 09:53:00,38.8,30.6,30.12,WSW,238,0.0,2.0,72,0.00,,---,0.00,207.00,VWS V14.01,2013-03-15 13:53:00,
2013-03-15 09:54:00,37.4,29.9,30.12,ESE,119,0.0,2.0,74,0.00,,---,0.00,127.00,VWS V14.01,2013-03-15 13:54:00,
2013-03-15 09:55:00,39.0,30.1,30.11,WSW,238,1.0,2.0,70,0.00,,---,0.00,260.00,VWS V14.01,2013-03-15 13:55:00,
2013-03-15 09:56:00,39.2,30.6,30.11,WSW,238,3.0,3.0,71,0.00,,---,0.00,253.00,VWS V14.01,2013-03-15 13:56:00,
2013-03-15 09:57:00,39.3,30.7,30.11,WSW,238,1.0,3.0,71,0.00,,---,0.00,272.00,VWS V14.01,2013-03-15 13:57:00,
2013-03-15 09:58:00,39.4,30.4,30.11,WSW,238,0.0,3.0,70,0.00,,---,0.00,229.00,VWS V14.01,2013-03-15 13:58:00,
2013-03-15 09:59:00,38.3,30.1,30.12,WSW,238,1.0,2.0,72,0.00,,---,0.00,153.00,VWS V14.01,2013-03-15 13:59:00,
2013-03-15 10:00:00,39.7,30.7,30.11,WSW,238,0.0,2.0,70,0.00,,---,0.00,172.00,VWS V14.01,2013-03-15 14:00:00,
2013-03-15 10:01:00,39.8,30.8,30.10,WSW,238,1.0,3.0,70,0.00,,---,0.00,253.00,VWS V14.01,2013-03-15 14:01:00,
2013-03-15 10:02:00,39.9,30.9,30.11,WSW,238,2.0,3.0,70,0.00,,---,0.00,250.00,VWS V14.01,2013-03-15 14:02:00,
2013-03-15 10:03:00,40.0,30.7,30.10,WSW,238,2.0,3.0,69,0.00,,---,0.00,236.00,VWS V14.01,2013-03-15 14:03:00,
2013-03-15 10:04:00,40.2,31.2,30.10,WSW,238,2.0,3.0,70,0.00,,---,0.00,213.00,VWS V14.01,2013-03-15 14:04:00,
2013-03-15 10:05:00,39.1,30.2,30.11,WSW,238,1.0,2.0,70,0.00,,---,0.00,260.00,VWS V14.01,2013-03-15 14:05:00,
2013-03-15 10:06:00,40.5,31.5,30.10,WSW,238,0.0,3.0,70,0.00,,---,0.00,237.00,VWS V14.01,2013-03-15 14:06:00,
2013-03-15 10:07:00,40.6,31.6,30.10,WSW,238,0.0,3.0,70,0.00,,---,0.00,264.00,VWS V14.01,2013-03-15 14:07:00,
2013-03-15 10:08:00,40.8,31.8,30.10,WSW,238,1.0,3.0,70,0.00,,---,0.00,283.00,VWS V14.01,2013-03-15 14:08:00,
2013-03-15 10:09:00,41.0,31.6,30.10,WNW,302,2.0,3.0,69,0.00,,---,0.00,264.00,VWS V14.01,2013-03-15 14:09:00,
2013-03-15 10:10:00,39.7,30.7,30.10,WSW,238,1.0,3.0,70,0.00,,---,0.00,220.00,VWS V14.01,2013-03-15 14:10:00,
2013-03-15 10:11:00,41.4,32.4,30.10,West,275,1.0,2.0,70,0.00,,---,0.00,227.00,VWS V14.01,2013-03-15 14:11:00,
2013-03-15 10:12:00,41.6,32.2,30.10,West,275,0.0,2.0,69,0.00,,---,0.00,244.00,VWS V14.01,2013-03-15 14:12:00,
2013-03-15 10:13:00,41.7,31.9,30.10,West,278,1.0,2.0,68,0.00,,---,0.00,258.00,VWS V14.01,2013-03-15 14:13:00,
2013-03-15 10:14:00,41.8,32.0,30.10,West,277,0.0,2.0,68,0.00,,---,0.00,288.00,VWS V14.01,2013-03-15 14:14:00,
2013-03-15 10:15:00,40.4,31.4,30.10,WSW,238,1.0,3.0,70,0.00,,---,0.00,237.00,VWS V14.01,2013-03-15 14:15:00,
2013-03-15 10:18:00,42.5,32.3,30.10,WSW,237,2.0,3.0,67,0.00,,---,0.00,353.00,VWS V14.01,2013-03-15 14:18:00,
2013-03-15 10:19:00,42.6,32.4,30.10,WSW,242,1.0,3.0,67,0.00,,---,0.00,339.00,VWS V14.01,2013-03-15 14:19:00,
2013-03-15 10:20:00,41.3,31.9,30.10,West,271,0.0,2.0,69,0.00,,---,0.00,227.00,VWS V14.01,2013-03-15 14:20:00,
2013-03-15 10:21:00,43.0,32.8,30.10,West,279,2.0,2.0,67,0.00,,---,0.00,323.00,VWS V14.01,2013-03-15 14:21:00,
2013-03-15 10:22:00,43.0,32.4,30.10,WNW,289,3.0,4.0,66,0.00,,---,0.00,288.00,VWS V14.01,2013-03-15 14:22:00,
2013-03-15 10:23:00,43.2,32.6,30.10,West,274,2.0,4.0,66,0.00,,---,0.00,315.00,VWS V14.01,2013-03-15 14:23:00,
2013-03-15 10:24:00,43.3,32.7,30.10,West,274,0.0,4.0,66,0.00,,---,0.00,411.00,VWS V14.01,2013-03-15 14:24:00,
2013-03-15 10:25:00,42.2,32.4,30.10,WSW,252,2.0,3.0,68,0.00,,---,0.00,387.00,VWS V14.01,2013-03-15 14:25:00,
2013-03-15 10:26:00,43.5,32.9,30.10,West,278,0.0,4.0,66,0.00,,---,0.00,469.00,VWS V14.01,2013-03-15 14:26:00,
2013-03-15 10:27:00,43.6,32.6,30.10,North,355,2.0,4.0,65,0.00,,---,0.00,489.00,VWS V14.01,2013-03-15 14:27:00,
2013-03-15 10:28:00,43.7,32.3,30.10,NNW,348,0.0,4.0,64,0.00,,---,0.00,457.00,VWS V14.01,2013-03-15 14:28:00,
2013-03-15 10:29:00,43.8,32.4,30.10,NNW,348,0.0,4.0,64,0.00,,---,0.00,413.00,VWS V14.01,2013-03-15 14:29:00,
2013-03-15 10:30:00,43.8,32.4,30.10,NE,36,0.0,3.0,64,0.00,,---,0.00,413.00,VWS V14.01,2013-03-15 14:30:00,
2013-03-15 10:31:00,43.0,32.8,30.10,West,280,2.0,3.0,67,0.00,,---,0.00,288.00,VWS V14.01,2013-03-15 14:31:00,
2013-03-15 10:32:00,44.0,32.6,30.10,WNW,286,2.0,3.0,64,0.00,,---,0.00,459.00,VWS V14.01,2013-03-15 14:32:00,
2013-03-15 10:33:00,44.1,32.3,30.10,WNW,286,0.0,3.0,63,0.00,,---,0.00,459.00,VWS V14.01,2013-03-15 14:33:00,
2013-03-15 10:34:00,44.1,32.3,30.10,WNW,286,0.0,3.0,63,0.00,,---,0.00,452.00,VWS V14.01,2013-03-15 14:34:00,
2013-03-15 10:35:00,44.1,32.7,30.10,WNW,286,0.0,3.0,64,0.00,,---,0.00,455.00,VWS V14.01,2013-03-15 14:35:00,
2013-03-15 10:36:00,43.6,32.6,30.10,North,9,2.0,4.0,65,0.00,,---,0.00,489.00,VWS V14.01,2013-03-15 14:36:00,
2013-03-15 10:37:00,44.3,32.9,30.10,WNW,294,1.0,3.0,64,0.00,,---,0.00,490.00,VWS V14.01,2013-03-15 14:37:00,
2013-03-15 10:38:00,44.4,33.0,30.10,WNW,290,2.0,3.0,64,0.00,,---,0.00,483.00,VWS V14.01,2013-03-15 14:38:00,
2013-03-15 10:39:00,44.5,33.1,30.10,WSW,248,2.0,3.0,64,0.00,,---,0.00,508.00,VWS V14.01,2013-03-15 14:39:00,
2013-03-15 10:40:00,44.5,32.7,30.10,WSW,248,3.0,3.0,63,0.00,,---,0.00,510.00,VWS V14.01,2013-03-15 14:40:00,
2013-03-15 10:41:00,44.0,33.0,30.10,WNW,283,0.0,3.0,65,0.00,,---,0.00,459.00,VWS V14.01,2013-03-15 14:41:00,
2013-03-15 10:42:00,44.7,32.9,30.10,WSW,250,2.0,4.0,63,0.00,,---,0.00,508.00,VWS V14.01,2013-03-15 14:42:00,
2013-03-15 10:43:00,44.7,33.3,30.10,WSW,250,0.0,4.0,64,0.00,,---,0.00,519.00,VWS V14.01,2013-03-15 14:43:00,
2013-03-15 10:44:00,44.8,33.4,30.10,WSW,250,0.0,4.0,64,0.00,,---,0.00,512.00,VWS V14.01,2013-03-15 14:44:00,
2013-03-15 10:45:00,44.8,33.0,30.10,WSW,250,2.0,4.0,63,0.00,,---,0.00,522.00,VWS V14.01,2013-03-15 14:45:00,
2013-03-15 10:46:00,44.3,32.9,30.10,WNW,294,0.0,3.0,64,0.00,,---,0.00,490.00,VWS V14.01,2013-03-15 14:46:00,
2013-03-15 10:47:00,44.9,33.5,30.10,WSW,250,0.0,4.0,64,0.00,,---,0.00,515.00,VWS V14.01,2013-03-15 14:47:00,
2013-03-15 10:48:00,45.0,34.0,30.10,WSW,252,0.0,4.0,65,0.00,,---,0.00,506.00,VWS V14.01,2013-03-15 14:48:00,
2013-03-15 10:49:00,45.1,33.3,30.09,WSW,251,2.0,4.0,63,0.00,,---,0.00,510.00,VWS V14.01,2013-03-15 14:49:00,
2013-03-15 10:50:00,45.2,33.4,30.09,WSW,251,1.0,1.0,63,0.00,,---,0.00,548.00,VWS V14.01,2013-03-15 14:50:00,
2013-03-15 10:51:00,45.2,33.8,30.09,West,265,1.0,4.0,64,0.00,,---,0.00,527.00,VWS V14.01,2013-03-15 14:51:00,
2013-03-15 10:52:00,44.7,33.3,30.10,WSW,250,1.0,4.0,64,0.00,,---,0.00,508.00,VWS V14.01,2013-03-15 14:52:00,
2013-03-15 10:53:00,45.5,33.7,30.09,West,265,0.0,4.0,63,0.00,,---,0.00,548.00,VWS V14.01,2013-03-15 14:53:00,
2013-03-15 10:54:00,45.6,33.8,30.09,West,265,0.0,4.0,63,0.00,,---,0.00,564.00,VWS V14.01,2013-03-15 14:54:00,
2013-03-15 10:55:00,45.7,33.8,30.09,WSW,256,3.0,4.0,63,0.00,,---,0.00,582.00,VWS V14.01,2013-03-15 14:55:00,
2013-03-15 10:56:00,45.9,34.0,30.09,WSW,238,1.0,4.0,63,0.00,,---,0.00,585.00,VWS V14.01,2013-03-15 14:56:00,
2013-03-15 10:57:00,45.0,34.0,30.10,WSW,252,1.0,4.0,65,0.00,,---,0.00,515.00,VWS V14.01,2013-03-15 14:57:00,
2013-03-15 10:58:00,46.1,34.2,30.09,WSW,252,5.0,6.0,63,0.00,,---,0.00,555.00,VWS V14.01,2013-03-15 14:58:00,
2013-03-15 10:59:00,46.3,34.0,30.09,West,273,2.0,9.0,62,0.00,,---,0.00,561.00,VWS V14.01,2013-03-15 14:59:00,
2013-03-15 11:00:00,46.4,34.1,30.09,SW,229,7.0,10.0,62,0.00,,---,0.00,555.00,VWS V14.01,2013-03-15 15:00:00,
2013-03-15 11:01:00,46.6,33.9,30.09,West,269,4.0,10.0,61,0.00,,---,0.00,568.00,VWS V14.01,2013-03-15 15:01:00,
2013-03-15 11:02:00,46.7,34.0,30.09,SW,236,4.0,10.0,61,0.00,,---,0.00,577.00,VWS V14.01,2013-03-15 15:02:00,
2013-03-15 11:03:00,45.5,33.7,30.09,West,265,1.0,4.0,63,0.00,,---,0.00,548.00,VWS V14.01,2013-03-15 15:03:00,
2013-03-15 11:04:00,46.9,33.8,30.09,West,269,9.0,10.0,60,0.00,,---,0.00,573.00,VWS V14.01,2013-03-15 15:04:00,
2013-03-15 11:05:00,47.0,33.8,30.08,WSW,241,4.0,10.0,60,0.00,,---,0.00,570.00,VWS V14.01,2013-03-15 15:05:00,
2013-03-15 11:06:00,47.1,33.5,30.08,WSW,240,4.0,10.0,59,0.00,,---,0.00,577.00,VWS V14.01,2013-03-15 15:06:00,
2013-03-15 11:07:00,47.1,33.5,30.08,West,262,2.0,10.0,59,0.00,,---,0.00,596.00,VWS V14.01,2013-03-15 15:07:00,
2013-03-15 11:08:00,46.2,34.3,30.09,West,265,2.0,6.0,63,0.00,,---,0.00,563.00,VWS V14.01,2013-03-15 15:08:00,
2013-03-15 11:09:00,47.3,33.7,30.08,WSW,249,4.0,10.0,59,0.00,,---,0.00,582.00,VWS V14.01,2013-03-15 15:09:00,
2013-03-15 11:10:00,47.4,33.0,30.08,SW,223,6.0,7.0,57,0.00,,---,0.00,580.00,VWS V14.01,2013-03-15 15:10:00,
2013-03-15 11:11:00,47.4,33.0,30.08,SSW,211,2.0,7.0,57,0.00,,---,0.00,582.00,VWS V14.01,2013-03-15 15:11:00,
2013-03-15 11:12:00,47.4,33.0,30.08,SW,225,4.0,7.0,57,0.00,,---,0.00,561.00,VWS V14.01,2013-03-15 15:12:00,
2013-03-15 11:13:00,47.4,32.5,30.08,SW,233,5.0,15.0,56,0.00,,---,0.00,587.00,VWS V14.01,2013-03-15 15:13:00,
2013-03-15 11:14:00,46.9,33.8,30.08,SW,221,6.0,10.0,60,0.00,,---,0.00,578.00,VWS V14.01,2013-03-15 15:14:00,
2013-03-15 11:15:00,47.4,33.0,30.08,SW,232,11.0,15.0,57,0.00,,---,0.00,587.00,VWS V14.01,2013-03-15 15:15:00,
2013-03-15 11:16:00,47.4,32.5,30.08,WSW,246,5.0,15.0,56,0.00,,---,0.00,587.00,VWS V14.01,2013-03-15 15:16:00,
2013-03-15 11:17:00,47.5,33.0,30.08,SSE,148,5.0,15.0,57,0.00,,---,0.00,615.00,VWS V14.01,2013-03-15 15:17:00,
2013-03-15 11:18:00,47.6,33.6,30.08,WSW,242,7.0,15.0,58,0.00,,---,0.00,624.00,VWS V14.01,2013-03-15 15:18:00,
2013-03-15 11:19:00,47.4,33.8,30.08,SW,225,5.0,7.0,59,0.00,,---,0.00,580.00,VWS V14.01,2013-03-15 15:19:00,
2013-03-15 11:20:00,47.6,32.2,30.08,West,275,3.0,15.0,55,0.00,,---,0.00,606.00,VWS V14.01,2013-03-15 15:20:00,
2013-03-15 11:22:00,47.7,32.3,30.08,West,269,3.0,15.0,55,0.00,,---,0.00,580.00,VWS V14.01,2013-03-15 15:22:00,
2013-03-15 11:23:00,47.7,32.8,30.08,SW,221,6.0,15.0,56,0.00,,---,0.00,568.00,VWS V14.01,2013-03-15 15:23:00,
2013-03-15 11:24:00,47.4,33.0,30.08,West,263,5.0,15.0,57,0.00,,---,0.00,568.00,VWS V14.01,2013-03-15 15:24:00,
2013-03-15 11:25:00,47.8,32.4,30.08,West,275,4.0,15.0,55,0.00,,---,0.00,571.00,VWS V14.01,2013-03-15 15:25:00,
2013-03-15 11:26:00,47.8,32.9,30.08,WSW,246,4.0,15.0,56,0.00,,---,0.00,591.00,VWS V14.01,2013-03-15 15:26:00,
2013-03-15 11:27:00,47.8,32.9,30.08,South,181,4.0,15.0,56,0.00,,---,0.00,599.00,VWS V14.01,2013-03-15 15:27:00,
2013-03-15 11:28:00,47.8,32.0,30.08,WNW,282,5.0,15.0,54,0.00,,---,0.00,598.00,VWS V14.01,2013-03-15 15:28:00,
2013-03-15 11:29:00,47.9,32.5,30.08,SSW,213,5.0,15.0,55,0.00,,---,0.00,631.00,VWS V14.01,2013-03-15 15:29:00,
2013-03-15 11:30:00,47.6,32.2,30.08,WNW,292,6.0,15.0,55,0.00,,---,0.00,570.00,VWS V14.01,2013-03-15 15:30:00,
2013-03-15 11:32:00,48.0,32.6,30.08,SSW,212,6.0,15.0,55,0.00,,---,0.00,638.00,VWS V14.01,2013-03-15 15:32:00,
2013-03-15 11:33:00,48.1,32.7,30.07,SW,218,5.0,15.0,55,0.00,,---,0.00,650.00,VWS V14.01,2013-03-15 15:33:00,
2013-03-15 11:34:00,48.1,32.3,30.07,WSW,248,8.0,15.0,54,0.00,,---,0.00,659.00,VWS V14.01,2013-03-15 15:34:00,
2013-03-15 11:35:00,47.7,32.3,30.08,West,260,5.0,15.0,55,0.00,,---,0.00,591.00,VWS V14.01,2013-03-15 15:35:00,
2013-03-15 11:37:00,48.3,32.9,30.07,SW,220,6.0,15.0,55,0.00,,---,0.00,673.00,VWS V14.01,2013-03-15 15:37:00,
2013-03-15 11:38:00,48.4,33.4,30.07,WSW,256,15.0,15.0,56,0.00,,---,0.00,673.00,VWS V14.01,2013-03-15 15:38:00,
2013-03-15 11:39:00,48.5,32.6,30.07,West,279,4.0,15.0,54,0.00,,---,0.00,677.00,VWS V14.01,2013-03-15 15:39:00,
2013-03-15 11:40:00,47.9,32.5,30.08,SW,236,0.0,13.0,55,0.00,,---,0.00,654.00,VWS V14.01,2013-03-15 15:40:00,
2013-03-15 11:42:00,48.8,33.8,30.07,SW,218,7.0,15.0,56,0.00,,---,0.00,701.00,VWS V14.01,2013-03-15 15:42:00,
2013-03-15 11:43:00,48.8,32.4,30.07,SW,227,5.0,15.0,53,0.00,,---,0.00,701.00,VWS V14.01,2013-03-15 15:43:00,
2013-03-15 11:44:00,48.8,32.9,30.07,SW,218,14.0,15.0,54,0.00,,---,0.00,705.00,VWS V14.01,2013-03-15 15:44:00,
2013-03-15 11:45:00,48.8,32.9,30.07,West,268,11.0,15.0,54,0.00,,---,0.00,707.00,VWS V14.01,2013-03-15 15:45:00,
2013-03-15 11:46:00,48.2,33.3,30.07,SW,217,4.0,15.0,56,0.00,,---,0.00,664.00,VWS V14.01,2013-03-15 15:46:00,
2013-03-15 11:47:00,48.8,32.9,30.07,SSW,201,2.0,15.0,54,0.00,,---,0.00,715.00,VWS V14.01,2013-03-15 15:47:00,
2013-03-15 11:48:00,48.9,33.0,30.07,WSW,250,3.0,15.0,54,0.00,,---,0.00,719.00,VWS V14.01,2013-03-15 15:48:00,
2013-03-15 11:49:00,48.9,33.5,30.07,SW,217,7.0,15.0,55,0.00,,---,0.00,728.00,VWS V14.01,2013-03-15 15:49:00,
2013-03-15 11:50:00,48.9,33.5,30.07,WSW,240,5.0,9.0,55,0.00,,---,0.00,728.00,VWS V14.01,2013-03-15 15:50:00,
2013-03-15 11:51:00,48.7,33.7,30.07,WSW,246,13.0,15.0,56,0.00,,---,0.00,696.00,VWS V14.01,2013-03-15 15:51:00,
2013-03-15 11:52:00,49.1,33.2,30.07,West,259,3.0,12.0,54,0.00,,---,0.00,696.00,VWS V14.01,2013-03-15 15:52:00,
2013-03-15 11:53:00,49.1,32.7,30.07,WSW,244,2.0,12.0,53,0.00,,---,0.00,677.00,VWS V14.01,2013-03-15 15:53:00,
2013-03-15 11:54:00,49.2,33.3,30.07,SW,229,6.0,13.0,54,0.00,,---,0.00,675.00,VWS V14.01,2013-03-15 15:54:00,
2013-03-15 11:55:00,49.3,33.4,30.07,WSW,241,4.0,13.0,54,0.00,,---,0.00,694.00,VWS V14.01,2013-03-15 15:55:00,
2013-03-15 11:56:00,48.8,32.9,30.07,WSW,249,9.0,15.0,54,0.00,,---,0.00,707.00,VWS V14.01,2013-03-15 15:56:00,
2013-03-15 11:57:00,49.4,33.5,30.07,West,276,5.0,13.0,54,0.00,,---,0.00,712.00,VWS V14.01,2013-03-15 15:57:00,
2013-03-15 11:58:00,49.4,33.9,30.07,SSW,211,5.0,13.0,55,0.00,,---,0.00,717.00,VWS V14.01,2013-03-15 15:58:00,
2013-03-15 11:59:00,49.5,33.6,30.07,SW,232,5.0,13.0,54,0.00,,---,0.00,705.00,VWS V14.01,2013-03-15 15:59:00,
2013-03-15 12:00:00,49.6,33.7,30.07,West,259,3.0,7.0,54,0.00,,---,0.00,701.00,VWS V14.01,2013-03-15 16:00:00,
2013-03-15 12:01:00,49.1,33.2,30.07,South,191,6.0,12.0,54,0.00,,---,0.00,712.00,VWS V14.01,2013-03-15 16:01:00,
2013-03-15 12:02:00,49.8,33.4,30.07,West,281,3.0,12.0,53,0.00,,---,0.00,712.00,VWS V14.01,2013-03-15 16:02:00,
2013-03-15 12:03:00,49.9,33.5,30.07,SW,234,5.0,12.0,53,0.00,,---,0.00,714.00,VWS V14.01,2013-03-15 16:03:00,
2013-03-15 12:04:00,49.9,33.9,30.07,West,275,3.0,12.0,54,0.00,,---,0.00,640.00,VWS V14.01,2013-03-15 16:04:00,
2013-03-15 12:05:00,50.0,33.6,30.07,WNW,301,4.0,12.0,53,0.00,,---,0.00,701.00,VWS V14.01,2013-03-15 16:05:00,
2013-03-15 12:06:00,49.4,33.5,30.07,WNW,288,3.0,13.0,54,0.00,,---,0.00,712.00,VWS V14.01,2013-03-15 16:06:00,
2013-03-15 12:07:00,50.1,34.1,30.07,WSW,242,8.0,12.0,54,0.00,,---,0.00,622.00,VWS V14.01,2013-03-15 16:07:00,
2013-03-15 12:08:00,50.1,33.2,30.07,WSW,242,3.0,12.0,52,0.00,,---,0.00,640.00,VWS V14.01,2013-03-15 16:08:00,
2013-03-15 12:09:00,50.0,33.6,30.07,WSW,242,2.0,12.0,53,0.00,,---,0.00,682.00,VWS V14.01,2013-03-15 16:09:00,
2013-03-15 12:10:00,50.1,34.1,30.06,SE,146,3.0,4.0,54,0.00,,---,0.00,649.00,VWS V14.01,2013-03-15 16:10:00,
2013-03-15 12:12:00,49.8,33.4,30.07,SW,215,2.0,12.0,53,0.00,,---,0.00,714.00,VWS V14.01,2013-03-15 16:12:00,
2013-03-15 12:13:00,50.4,34.9,30.06,West,269,2.0,6.0,55,0.00,,---,0.00,684.00,VWS V14.01,2013-03-15 16:13:00,
2013-03-15 12:14:00,50.5,35.0,30.06,West,269,5.0,6.0,55,0.00,,---,0.00,705.00,VWS V14.01,2013-03-15 16:14:00,
2013-03-15 12:15:00,50.7,34.7,30.06,WSW,250,5.0,7.0,54,0.00,,---,0.00,703.00,VWS V14.01,2013-03-15 16:15:00,
2013-03-15 12:16:00,50.8,34.8,30.06,WNW,284,4.0,9.0,54,0.00,,---,0.00,724.00,VWS V14.01,2013-03-15 16:16:00,
2013-03-15 12:17:00,50.1,34.1,30.07,WSW,252,10.0,12.0,54,0.00,,---,0.00,640.00,VWS V14.01,2013-03-15 16:17:00,
2013-03-15 12:18:00,50.9,34.4,30.06,West,274,5.0,9.0,53,0.00,,---,0.00,666.00,VWS V14.01,2013-03-15 16:18:00,
2013-03-15 12:19:00,51.0,35.9,30.06,WSW,240,4.0,9.0,56,0.00,,---,0.00,636.00,VWS V14.01,2013-03-15 16:19:00,
2013-03-15 12:20:00,51.0,35.4,30.06,WSW,253,2.0,4.0,55,0.00,,---,0.00,649.00,VWS V14.01,2013-03-15 16:20:00,
2013-03-15 12:21:00,51.1,35.0,30.06,WSW,240,6.0,9.0,54,0.00,,---,0.00,599.00,VWS V14.01,2013-03-15 16:21:00,
2013-03-15 12:22:00,50.3,34.8,30.06,SW,233,5.0,6.0,55,0.00,,---,0.00,684.00,VWS V14.01,2013-03-15 16:22:00,
2013-03-15 12:23:00,51.1,35.0,30.06,WSW,254,4.0,9.0,54,0.00,,---,0.00,621.00,VWS V14.01,2013-03-15 16:23:00,
2013-03-15 12:24:00,51.1,35.0,30.05,WSW,241,11.0,11.0,54,0.00,,---,0.00,629.00,VWS V14.01,2013-03-15 16:24:00,
2013-03-15 12:25:00,51.1,34.6,30.05,SW,226,8.0,12.0,53,0.00,,---,0.00,654.00,VWS V14.01,2013-03-15 16:25:00,
2013-03-15 12:26:00,51.1,35.0,30.05,WSW,245,13.0,13.0,54,0.00,,---,0.00,638.00,VWS V14.01,2013-03-15 16:26:00,
2013-03-15 12:27:00,50.9,34.9,30.06,WSW,238,3.0,9.0,54,0.00,,---,0.00,666.00,VWS V14.01,2013-03-15 16:27:00,
2013-03-15 12:28:00,51.0,34.0,30.05,WSW,243,2.0,13.0,52,0.00,,---,0.00,605.00,VWS V14.01,2013-03-15 16:28:00,
2013-03-15 12:29:00,50.9,34.9,30.05,West,273,4.0,13.0,54,0.00,,---,0.00,612.00,VWS V14.01,2013-03-15 16:29:00,
2013-03-15 12:30:00,50.9,34.9,30.06,SW,219,6.0,10.0,54,0.00,,---,0.00,598.00,VWS V14.01,2013-03-15 16:30:00,
2013-03-15 12:31:00,51.0,34.5,30.05,WSW,240,7.0,10.0,53,0.00,,---,0.00,610.00,VWS V14.01,2013-03-15 16:31:00,
2013-03-15 12:32:00,51.1,35.0,30.06,WSW,253,3.0,9.0,54,0.00,,---,0.00,608.00,VWS V14.01,2013-03-15 16:32:00,
2013-03-15 12:33:00,51.0,34.5,30.05,WSW,258,5.0,11.0,53,0.00,,---,0.00,661.00,VWS V14.01,2013-03-15 16:33:00,
2013-03-15 12:34:00,51.1,35.5,30.05,NW,315,4.0,11.0,55,0.00,,---,0.00,640.00,VWS V14.01,2013-03-15 16:34:00,
2013-03-15 12:35:00,51.1,35.0,30.05,WSW,247,5.0,11.0,54,0.00,,---,0.00,642.00,VWS V14.01,2013-03-15 16:35:00,
2013-03-15 12:36:00,51.2,35.1,30.05,SW,225,5.0,11.0,54,0.00,,---,0.00,636.00,VWS V14.01,2013-03-15 16:36:00,
2013-03-15 12:37:00,51.0,34.0,30.05,WSW,243,1.0,13.0,52,0.00,,---,0.00,624.00,VWS V14.01,2013-03-15 16:37:00,
2013-03-15 12:38:00,51.3,34.8,30.05,WSW,247,5.0,11.0,53,0.00,,---,0.00,624.00,VWS V14.01,2013-03-15 16:38:00,
2013-03-15 12:39:00,51.3,34.8,30.05,WSW,245,3.0,11.0,53,0.00,,---,0.00,582.00,VWS V14.01,2013-03-15 16:39:00,
2013-03-15 12:40:00,51.4,35.3,30.05,SW,236,5.0,10.0,54,0.00,,---,0.00,601.00,VWS V14.01,2013-03-15 16:40:00,
2013-03-15 12:42:00,51.4,35.3,30.05,SW,234,5.0,10.0,54,0.00,,---,0.00,580.00,VWS V14.01,2013-03-15 16:42:00,
2013-03-15 12:43:00,51.0,35.4,30.05,West,261,4.0,11.0,55,0.00,,---,0.00,661.00,VWS V14.01,2013-03-15 16:43:00,
2013-03-15 12:44:00,51.4,34.9,30.04,West,279,3.0,11.0,53,0.00,,---,0.00,622.00,VWS V14.01,2013-03-15 16:44:00,
2013-03-15 12:45:00,51.4,34.9,30.05,WSW,241,9.0,12.0,53,0.00,,---,0.00,615.00,VWS V14.01,2013-03-15 16:45:00,
2013-03-15 12:46:00,51.3,34.3,30.04,South,180,5.0,12.0,52,0.00,,---,0.00,578.00,VWS V14.01,2013-03-15 16:46:00,
2013-03-15 12:47:00,51.3,35.2,30.04,WSW,242,10.0,12.0,54,0.00,,---,0.00,573.00,VWS V14.01,2013-03-15 16:47:00,
2013-03-15 12:48:00,51.3,34.8,30.05,WSW,243,4.0,11.0,53,0.00,,---,0.00,596.00,VWS V14.01,2013-03-15 16:48:00,
2013-03-15 12:49:00,51.3,35.7,30.04,SW,224,5.0,13.0,55,0.00,,---,0.00,531.00,VWS V14.01,2013-03-15 16:49:00,
2013-03-15 12:50:00,51.3,35.2,30.04,WSW,240,2.0,5.0,54,0.00,,---,0.00,506.00,VWS V14.01,2013-03-15 16:50:00,
2013-03-15 12:51:00,51.4,36.2,30.04,WNW,285,3.0,7.0,56,0.00,,---,0.00,545.00,VWS V14.01,2013-03-15 16:51:00,
2013-03-15 12:52:00,51.5,35.9,30.04,WSW,256,2.0,9.0,55,0.00,,---,0.00,548.00,VWS V14.01,2013-03-15 16:52:00,
2013-03-15 12:53:00,51.4,34.9,30.04,WSW,257,6.0,11.0,53,0.00,,---,0.00,601.00,VWS V14.01,2013-03-15 16:53:00,
2013-03-15 12:54:00,51.6,36.0,30.04,SW,236,4.0,10.0,55,0.00,,---,0.00,592.00,VWS V14.01,2013-03-15 16:54:00,
2013-03-15 12:55:00,51.7,35.6,30.04,WSW,252,6.0,10.0,54,0.00,,---,0.00,606.00,VWS V14.01,2013-03-15 16:55:00,
2013-03-15 12:56:00,51.7,36.1,30.04,West,268,6.0,10.0,55,0.00,,---,0.00,608.00,VWS V14.01,2013-03-15 16:56:00,
2013-03-15 12:57:00,51.7,35.6,30.04,WSW,250,2.0,10.0,54,0.00,,---,0.00,636.00,VWS V14.01,2013-03-15 16:57:00,
2013-03-15 12:58:00,51.3,35.2,30.04,WSW,248,6.0,13.0,54,0.00,,---,0.00,531.00,VWS V14.01,2013-03-15 16:58:00,
2013-03-15 12:59:00,51.8,36.2,30.04,SW,230,5.0,12.0,55,0.00,,---,0.00,608.00,VWS V14.01,2013-03-15 16:59:00,
2013-03-15 13:00:00,51.9,36.3,30.04,WSW,240,9.0,9.0,55,0.00,,---,0.00,599.00,VWS V14.01,2013-03-15 17:00:00,
2013-03-15 13:01:00,51.9,36.7,30.04,West,261,2.0,9.0,56,0.00,,---,0.00,594.00,VWS V14.01,2013-03-15 17:01:00,
2013-03-15 13:02:00,52.1,36.0,30.04,WSW,258,6.0,9.0,54,0.00,,---,0.00,617.00,VWS V14.01,2013-03-15 17:02:00,
2013-03-15 13:03:00,51.6,35.5,30.04,West,273,5.0,9.0,54,0.00,,---,0.00,592.00,VWS V14.01,2013-03-15 17:03:00,
2013-03-15 13:04:00,52.2,36.5,30.04,WSW,246,7.0,9.0,55,0.00,,---,0.00,622.00,VWS V14.01,2013-03-15 17:04:00,
2013-03-15 13:05:00,52.2,35.6,30.04,SW,230,0.0,9.0,53,0.00,,---,0.00,628.00,VWS V14.01,2013-03-15 17:05:00,
2013-03-15 13:07:00,52.3,36.2,30.03,WSW,255,0.0,9.0,54,0.00,,---,0.00,640.00,VWS V14.01,2013-03-15 17:07:00,
2013-03-15 13:08:00,51.8,35.7,30.04,West,261,3.0,12.0,54,0.00,,---,0.00,608.00,VWS V14.01,2013-03-15 17:08:00,
2013-03-15 13:09:00,52.4,36.3,30.03,SW,225,2.0,9.0,54,0.00,,---,0.00,578.00,VWS V14.01,2013-03-15 17:09:00,
2013-03-15 13:10:00,52.5,36.3,30.03,West,277,3.0,6.0,54,0.00,,---,0.00,594.00,VWS V14.01,2013-03-15 17:10:00,
2013-03-15 13:11:00,52.5,36.8,30.03,WSW,247,2.0,6.0,55,0.00,,---,0.00,606.00,VWS V14.01,2013-03-15 17:11:00,
2013-03-15 13:12:00,52.6,36.5,30.03,WSW,252,4.0,9.0,54,0.00,,---,0.00,603.00,VWS V14.01,2013-03-15 17:12:00,
2013-03-15 13:13:00,52.7,36.5,30.03,WSW,246,4.0,9.0,54,0.00,,---,0.00,629.00,VWS V14.01,2013-03-15 17:13:00,
2013-03-15 13:14:00,52.2,35.6,30.04,SW,224,5.0,9.0,53,0.00,,---,0.00,622.00,VWS V14.01,2013-03-15 17:14:00,
2013-03-15 13:15:00,52.8,36.2,30.03,SW,216,5.0,9.0,53,0.00,,---,0.00,613.00,VWS V14.01,2013-03-15 17:15:00,
2013-03-15 13:16:00,52.7,35.6,30.03,WSW,248,5.0,9.0,52,0.00,,---,0.00,640.00,VWS V14.01,2013-03-15 17:16:00,
2013-03-15 13:17:00,52.7,36.5,30.03,West,281,3.0,9.0,54,0.00,,---,0.00,657.00,VWS V14.01,2013-03-15 17:17:00,
2013-03-15 13:18:00,52.8,37.1,30.03,WSW,248,3.0,9.0,55,0.00,,---,0.00,671.00,VWS V14.01,2013-03-15 17:18:00,
2013-03-15 13:19:00,52.4,36.3,30.03,WSW,239,3.0,5.0,54,0.00,,---,0.00,578.00,VWS V14.01,2013-03-15 17:19:00,
2013-03-15 13:20:00,52.8,37.1,30.03,SW,219,6.0,8.0,55,0.00,,---,0.00,657.00,VWS V14.01,2013-03-15 17:20:00,
2013-03-15 13:21:00,52.8,36.2,30.03,SW,231,2.0,8.0,53,0.00,,---,0.00,666.00,VWS V14.01,2013-03-15 17:21:00,
2013-03-15 13:22:00,52.9,36.7,30.03,WSW,249,1.0,10.0,54,0.00,,---,0.00,671.00,VWS V14.01,2013-03-15 17:22:00,
2013-03-15 13:23:00,52.9,36.7,30.03,WSW,254,3.0,10.0,54,0.00,,---,0.00,668.00,VWS V14.01,2013-03-15 17:23:00,
2013-03-15 13:24:00,52.8,36.2,30.03,SW,234,3.0,9.0,53,0.00,,---,0.00,622.00,VWS V14.01,2013-03-15 17:24:00,
2013-03-15 13:25:00,53.1,36.4,30.03,SSE,165,5.0,10.0,53,0.00,,---,0.00,684.00,VWS V14.01,2013-03-15 17:25:00,
2013-03-15 13:26:00,53.1,36.0,30.03,SSW,202,5.0,10.0,52,0.00,,---,0.00,671.00,VWS V14.01,2013-03-15 17:26:00,
2013-03-15 13:27:00,53.2,36.0,30.03,WSW,250,7.0,10.0,52,0.00,,---,0.00,668.00,VWS V14.01,2013-03-15 17:27:00,
2013-03-15 13:28:00,53.2,37.5,30.03,SW,236,4.0,10.0,55,0.00,,---,0.00,679.00,VWS V14.01,2013-03-15 17:28:00,
2013-03-15 13:29:00,52.8,36.2,30.03,WSW,237,7.0,7.0,53,0.00,,---,0.00,642.00,VWS V14.01,2013-03-15 17:29:00,
2013-03-15 13:30:00,53.2,36.0,30.03,West,263,2.0,3.0,52,0.00,,---,0.00,698.00,VWS V14.01,2013-03-15 17:30:00,
2013-03-15 13:31:00,53.3,36.6,30.03,West,263,2.0,3.0,53,0.00,,---,0.00,652.00,VWS V14.01,2013-03-15 17:31:00,
2013-03-15 13:32:00,53.3,37.1,30.03,WSW,246,1.0,7.0,54,0.00,,---,0.00,684.00,VWS V14.01,2013-03-15 17:32:00,
2013-03-15 13:33:00,53.4,36.7,30.03,WSW,246,0.0,7.0,53,0.00,,---,0.00,675.00,VWS V14.01,2013-03-15 17:33:00,
2013-03-15 13:34:00,53.1,36.4,30.03,SW,233,4.0,10.0,53,0.00,,---,0.00,684.00,VWS V14.01,2013-03-15 17:34:00,
2013-03-15 13:35:00,53.7,37.0,30.02,WNW,298,6.0,10.0,53,0.00,,---,0.00,666.00,VWS V14.01,2013-03-15 17:35:00,
2013-03-15 13:37:00,53.8,37.1,30.02,SW,226,2.0,10.0,53,0.00,,---,0.00,568.00,VWS V14.01,2013-03-15 17:37:00,
2013-03-15 13:38:00,53.9,37.7,30.02,WSW,240,1.0,10.0,54,0.00,,---,0.00,561.00,VWS V14.01,2013-03-15 17:38:00,
2013-03-15 13:39:00,53.2,36.5,30.03,SW,235,0.0,2.0,53,0.00,,---,0.00,698.00,VWS V14.01,2013-03-15 17:39:00,
2013-03-15 13:40:00,53.9,37.2,30.02,WSW,254,2.0,3.0,53,0.00,,---,0.00,575.00,VWS V14.01,2013-03-15 17:40:00,
2013-03-15 13:41:00,54.0,36.8,30.02,WSW,254,0.0,3.0,52,0.00,,---,0.00,591.00,VWS V14.01,2013-03-15 17:41:00,
2013-03-15 13:42:00,54.0,36.3,30.02,WSW,250,3.0,3.0,51,0.00,,---,0.00,561.00,VWS V14.01,2013-03-15 17:42:00,
2013-03-15 13:43:00,54.0,37.3,30.02,WSW,241,4.0,7.0,53,0.00,,---,0.00,543.00,VWS V14.01,2013-03-15 17:43:00,
2013-03-15 13:44:00,53.7,37.5,30.02,WNW,297,5.0,10.0,54,0.00,,---,0.00,666.00,VWS V14.01,2013-03-15 17:44:00,
2013-03-15 13:45:00,54.1,36.9,30.02,WSW,252,5.0,10.0,52,0.00,,---,0.00,531.00,VWS V14.01,2013-03-15 17:45:00,
2013-03-15 13:46:00,54.1,37.8,30.02,WSW,241,3.0,10.0,54,0.00,,---,0.00,554.00,VWS V14.01,2013-03-15 17:46:00,
2013-03-15 13:47:00,54.0,37.3,30.02,WSW,238,5.0,10.0,53,0.00,,---,0.00,568.00,VWS V14.01,2013-03-15 17:47:00,
2013-03-15 13:48:00,54.0,37.8,30.01,WSW,238,2.0,10.0,54,0.00,,---,0.00,580.00,VWS V14.01,2013-03-15 17:48:00,
2013-03-15 13:49:00,54.1,37.8,30.01,WNW,283,1.0,10.0,54,0.00,,---,0.00,554.00,VWS V14.01,2013-03-15 17:49:00,
2013-03-15 13:50:00,54.0,36.8,30.02,WSW,254,0.0,3.0,52,0.00,,---,0.00,591.00,VWS V14.01,2013-03-15 17:50:00,
2013-03-15 13:51:00,54.2,37.5,30.01,SW,225,4.0,5.0,53,0.00,,---,0.00,517.00,VWS V14.01,2013-03-15 17:51:00,
2013-03-15 13:52:00,54.1,36.4,30.01,WSW,238,4.0,7.0,51,0.00,,---,0.00,531.00,VWS V14.01,2013-03-15 17:52:00,
2013-03-15 13:53:00,54.1,36.9,30.01,WSW,238,2.0,7.0,52,0.00,,---,0.00,540.00,VWS V14.01,2013-03-15 17:53:00,
2013-03-15 13:54:00,54.1,37.8,30.01,West,267,3.0,7.0,54,0.00,,---,0.00,561.00,VWS V14.01,2013-03-15 17:54:00,
2013-03-15 13:55:00,54.1,37.8,30.02,WSW,250,4.0,10.0,54,0.00,,---,0.00,554.00,VWS V14.01,2013-03-15 17:55:00,
2013-03-15 13:58:00,54.4,38.6,30.01,West,261,2.0,7.0,55,0.00,,---,0.00,561.00,VWS V14.01,2013-03-15 17:58:00,
2013-03-15 13:59:00,54.5,38.2,30.00,WSW,237,4.0,7.0,54,0.00,,---,0.00,548.00,VWS V14.01,2013-03-15 17:59:00,
2013-03-15 14:00:00,54.1,37.4,30.01,WSW,253,1.0,5.0,53,0.00,,---,0.00,517.00,VWS V14.01,2013-03-15 18:00:00,
2013-03-15 14:01:00,54.6,38.3,30.01,SW,234,6.0,6.0,54,0.00,,---,0.00,531.00,VWS V14.01,2013-03-15 18:01:00,
2013-03-15 14:02:00,54.7,38.4,30.01,WSW,255,2.0,6.0,54,0.00,,---,0.00,571.00,VWS V14.01,2013-03-15 18:02:00,
2013-03-15 14:03:00,54.7,38.4,30.01,West,261,5.0,6.0,54,0.00,,---,0.00,577.00,VWS V14.01,2013-03-15 18:03:00,
2013-03-15 14:04:00,54.8,38.5,30.00,West,275,3.0,6.0,54,0.00,,---,0.00,550.00,VWS V14.01,2013-03-15 18:04:00,
2013-03-15 14:05:00,54.2,37.9,30.01,West,260,1.0,7.0,54,0.00,,---,0.00,612.00,VWS V14.01,2013-03-15 18:05:00,
2013-03-15 14:06:00,54.9,38.6,30.00,WSW,255,1.0,6.0,54,0.00,,---,0.00,550.00,VWS V14.01,2013-03-15 18:06:00,
2013-03-15 14:07:00,55.0,38.7,30.00,WSW,248,5.0,6.0,54,0.00,,---,0.00,570.00,VWS V14.01,2013-03-15 18:07:00,
2013-03-15 14:08:00,55.1,38.8,30.00,SW,234,4.0,6.0,54,0.00,,---,0.00,573.00,VWS V14.01,2013-03-15 18:08:00,
2013-03-15 14:09:00,55.2,38.9,30.00,WNW,298,7.0,7.0,54,0.00,,---,0.00,610.00,VWS V14.01,2013-03-15 18:09:00,
2013-03-15 14:10:00,54.6,38.3,30.01,WSW,253,1.0,6.0,54,0.00,,---,0.00,526.00,VWS V14.01,2013-03-15 18:10:00,
2013-03-15 14:11:00,55.3,38.0,30.00,West,259,5.0,7.0,52,0.00,,---,0.00,591.00,VWS V14.01,2013-03-15 18:11:00,
2013-03-15 14:12:00,55.3,38.0,30.00,West,272,2.0,7.0,52,0.00,,---,0.00,591.00,VWS V14.01,2013-03-15 18:12:00,
2013-03-15 14:13:00,55.3,38.5,30.00,WSW,238,3.0,10.0,53,0.00,,---,0.00,585.00,VWS V14.01,2013-03-15 18:13:00,
2013-03-15 14:14:00,55.3,38.5,30.00,WSW,238,7.0,10.0,53,0.00,,---,0.00,577.00,VWS V14.01,2013-03-15 18:14:00,
2013-03-15 14:15:00,55.3,38.5,30.00,WNW,300,5.0,10.0,53,0.00,,---,0.00,555.00,VWS V14.01,2013-03-15 18:15:00,
2013-03-15 14:16:00,55.0,38.7,30.00,WNW,285,2.0,6.0,54,0.00,,---,0.00,550.00,VWS V14.01,2013-03-15 18:16:00,
2013-03-15 14:17:00,55.3,38.5,30.00,WSW,246,8.0,10.0,53,0.00,,---,0.00,561.00,VWS V14.01,2013-03-15 18:17:00,
2013-03-15 14:18:00,55.3,38.0,30.00,West,278,6.0,10.0,52,0.00,,---,0.00,610.00,VWS V14.01,2013-03-15 18:18:00,
2013-03-15 14:19:00,55.3,38.5,30.00,SW,225,6.0,11.0,53,0.00,,---,0.00,631.00,VWS V14.01,2013-03-15 18:19:00,
2013-03-15 14:20:00,55.3,38.5,30.00,West,260,3.0,6.0,53,0.00,,---,0.00,642.00,VWS V14.01,2013-03-15 18:20:00,
2013-03-15 14:21:00,55.3,38.0,30.00,WNW,298,5.0,7.0,52,0.00,,---,0.00,591.00,VWS V14.01,2013-03-15 18:21:00,
2013-03-15 14:22:00,55.4,37.6,30.00,WSW,246,1.0,10.0,51,0.00,,---,0.00,605.00,VWS V14.01,2013-03-15 18:22:00,
2013-03-15 14:23:00,55.4,38.6,29.99,SSW,198,2.0,10.0,53,0.00,,---,0.00,589.00,VWS V14.01,2013-03-15 18:23:00,
2013-03-15 14:24:00,55.4,38.6,29.99,WSW,257,4.0,10.0,53,0.00,,---,0.00,622.00,VWS V14.01,2013-03-15 18:24:00,
2013-03-15 14:25:00,55.4,38.6,30.00,WSW,248,5.0,10.0,53,0.00,,---,0.00,636.00,VWS V14.01,2013-03-15 18:25:00,
2013-03-15 14:26:00,55.3,38.5,30.00,WSW,252,6.0,10.0,53,0.00,,---,0.00,561.00,VWS V14.01,2013-03-15 18:26:00,
2013-03-15 14:27:00,55.5,38.7,29.99,SW,215,6.0,10.0,53,0.00,,---,0.00,664.00,VWS V14.01,2013-03-15 18:27:00,
2013-03-15 14:28:00,55.6,38.8,29.99,WSW,238,1.0,10.0,53,0.00,,---,0.00,659.00,VWS V14.01,2013-03-15 18:28:00,
2013-03-15 14:29:00,55.7,39.3,29.99,West,261,4.0,10.0,54,0.00,,---,0.00,657.00,VWS V14.01,2013-03-15 18:29:00,
2013-03-15 14:30:00,55.8,39.4,29.99,WSW,254,3.0,9.0,54,0.00,,---,0.00,636.00,VWS V14.01,2013-03-15 18:30:00,
2013-03-15 14:31:00,55.4,38.6,30.00,WSW,246,2.0,10.0,53,0.00,,---,0.00,605.00,VWS V14.01,2013-03-15 18:31:00,
2013-03-15 14:32:00,55.9,38.5,29.99,West,259,2.0,9.0,52,0.00,,---,0.00,599.00,VWS V14.01,2013-03-15 18:32:00,
2013-03-15 14:33:00,55.9,38.5,29.99,West,269,4.0,9.0,52,0.00,,---,0.00,566.00,VWS V14.01,2013-03-15 18:33:00,
2013-03-15 14:34:00,56.0,39.6,29.98,WSW,252,4.0,9.0,54,0.00,,---,0.00,570.00,VWS V14.01,2013-03-15 18:34:00,
2013-03-15 14:35:00,56.1,39.2,29.98,WSW,258,2.0,9.0,53,0.00,,---,0.00,621.00,VWS V14.01,2013-03-15 18:35:00,
2013-03-15 14:36:00,55.5,38.7,29.99,SW,229,5.0,10.0,53,0.00,,---,0.00,664.00,VWS V14.01,2013-03-15 18:36:00,
2013-03-15 14:37:00,56.2,39.3,29.98,WNW,289,6.0,9.0,53,0.00,,---,0.00,650.00,VWS V14.01,2013-03-15 18:37:00,
2013-03-15 14:38:00,56.3,38.9,29.98,WSW,250,7.0,13.0,52,0.00,,---,0.00,679.00,VWS V14.01,2013-03-15 18:38:00,
2013-03-15 14:39:00,56.3,38.9,29.98,West,277,5.0,13.0,52,0.00,,---,0.00,701.00,VWS V14.01,2013-03-15 18:39:00,
2013-03-15 14:40:00,56.3,38.9,29.98,WNW,299,5.0,7.0,52,0.00,,---,0.00,714.00,VWS V14.01,2013-03-15 18:40:00,
2013-03-15 14:42:00,55.9,38.5,29.99,West,273,7.0,9.0,52,0.00,,---,0.00,599.00,VWS V14.01,2013-03-15 18:42:00,
2013-03-15 14:43:00,56.3,39.4,29.98,WSW,250,1.0,9.0,53,0.00,,---,0.00,636.00,VWS V14.01,2013-03-15 18:43:00,
2013-03-15 14:44:00,56.4,39.5,29.98,SW,216,4.0,16.0,53,0.00,,---,0.00,594.00,VWS V14.01,2013-03-15 18:44:00,
2013-03-15 14:45:00,56.4,39.5,29.98,WSW,242,9.0,16.0,53,0.00,,---,0.00,568.00,VWS V14.01,2013-03-15 18:45:00,
2013-03-15 14:46:00,56.4,39.5,29.98,SW,219,2.0,16.0,53,0.00,,---,0.00,508.00,VWS V14.01,2013-03-15 18:46:00,
2013-03-15 14:47:00,56.3,38.9,29.98,WNW,291,3.0,9.0,52,0.00,,---,0.00,650.00,VWS V14.01,2013-03-15 18:47:00,
2013-03-15 14:48:00,56.4,39.5,29.97,SW,227,5.0,16.0,53,0.00,,---,0.00,413.00,VWS V14.01,2013-03-15 18:48:00,
2013-03-15 14:49:00,56.4,39.0,29.97,SW,236,3.0,16.0,52,0.00,,---,0.00,411.00,VWS V14.01,2013-03-15 18:49:00,
2013-03-15 14:50:00,56.4,39.0,29.97,SW,226,7.0,7.0,52,0.00,,---,0.00,411.00,VWS V14.01,2013-03-15 18:50:00,
2013-03-15 14:51:00,56.4,39.5,29.97,WSW,238,7.0,11.0,53,0.00,,---,0.00,431.00,VWS V14.01,2013-03-15 18:51:00,
2013-03-15 14:52:00,56.3,39.4,29.98,WSW,254,5.0,9.0,53,0.00,,---,0.00,650.00,VWS V14.01,2013-03-15 18:52:00,
2013-03-15 14:53:00,56.3,38.4,29.97,West,265,4.0,12.0,51,0.00,,---,0.00,452.00,VWS V14.01,2013-03-15 18:53:00,
2013-03-15 14:54:00,56.2,38.8,29.97,West,261,6.0,12.0,52,0.00,,---,0.00,429.00,VWS V14.01,2013-03-15 18:54:00,
2013-03-15 14:55:00,56.2,39.3,29.97,West,259,4.0,12.0,53,0.00,,---,0.00,424.00,VWS V14.01,2013-03-15 18:55:00,
2013-03-15 14:56:00,56.2,39.3,29.97,West,270,2.0,12.0,53,0.00,,---,0.00,431.00,VWS V14.01,2013-03-15 18:56:00,
2013-03-15 14:57:00,56.4,39.5,29.97,WNW,286,5.0,16.0,53,0.00,,---,0.00,438.00,VWS V14.01,2013-03-15 18:57:00,
2013-03-15 14:58:00,56.2,39.3,29.97,NNE,30,5.0,12.0,53,0.00,,---,0.00,401.00,VWS V14.01,2013-03-15 18:58:00,
2013-03-15 14:59:00,56.2,39.3,29.97,SW,236,6.0,12.0,53,0.00,,---,0.00,408.00,VWS V14.01,2013-03-15 18:59:00,
2013-03-15 15:00:00,56.2,38.8,29.97,WSW,240,5.0,5.0,52,0.00,,---,0.00,406.00,VWS V14.01,2013-03-15 19:00:00,
2013-03-15 15:01:00,56.2,38.8,29.97,West,268,2.0,10.0,52,0.00,,---,0.00,403.00,VWS V14.01,2013-03-15 19:01:00,
2013-03-15 15:02:00,56.3,39.9,29.97,WSW,251,4.0,12.0,54,0.00,,---,0.00,438.00,VWS V14.01,2013-03-15 19:02:00,
2013-03-15 15:03:00,56.2,38.8,29.97,SW,219,6.0,10.0,52,0.00,,---,0.00,380.00,VWS V14.01,2013-03-15 19:03:00,
2013-03-15 15:04:00,56.2,39.3,29.97,WSW,242,5.0,11.0,53,0.00,,---,0.00,383.00,VWS V14.01,2013-03-15 19:04:00,
2013-03-15 15:05:00,56.2,38.8,29.97,WSW,242,3.0,11.0,52,0.00,,---,0.00,422.00,VWS V14.01,2013-03-15 19:05:00,
2013-03-15 15:06:00,56.2,39.3,29.97,West,267,1.0,11.0,53,0.00,,---,0.00,457.00,VWS V14.01,2013-03-15 19:06:00,
2013-03-15 15:07:00,56.2,39.3,29.97,SSE,165,2.0,12.0,53,0.00,,---,0.00,401.00,VWS V14.01,2013-03-15 19:07:00,
2013-03-15 15:08:00,56.3,39.4,29.96,SW,236,9.0,11.0,53,0.00,,---,0.00,508.00,VWS V14.01,2013-03-15 19:08:00,
2013-03-15 15:09:00,56.4,40.0,29.96,SW,234,13.0,13.0,54,0.00,,---,0.00,501.00,VWS V14.01,2013-03-15 19:09:00,
2013-03-15 15:10:00,56.5,39.1,29.96,SSW,206,7.0,13.0,52,0.00,,---,0.00,483.00,VWS V14.01,2013-03-15 19:10:00,
2013-03-15 15:12:00,56.4,39.0,29.96,SW,229,9.0,15.0,52,0.00,,---,0.00,517.00,VWS V14.01,2013-03-15 19:12:00,
2013-03-15 15:13:00,56.2,38.8,29.97,West,261,2.0,10.0,52,0.00,,---,0.00,383.00,VWS V14.01,2013-03-15 19:13:00,
2013-03-15 15:14:00,56.5,39.1,29.96,WSW,255,3.0,15.0,52,0.00,,---,0.00,501.00,VWS V14.01,2013-03-15 19:14:00,
2013-03-15 15:15:00,56.6,40.2,29.96,West,259,7.0,15.0,54,0.00,,---,0.00,519.00,VWS V14.01,2013-03-15 19:15:00,
2013-03-15 15:16:00,56.6,40.2,29.96,WSW,239,2.0,15.0,54,0.00,,---,0.00,533.00,VWS V14.01,2013-03-15 19:16:00,
2013-03-15 15:17:00,56.7,39.8,29.96,WSW,239,0.0,15.0,53,0.00,,---,0.00,577.00,VWS V14.01,2013-03-15 19:17:00,
2013-03-15 15:18:00,56.4,39.5,29.96,West,277,5.0,11.0,53,0.00,,---,0.00,501.00,VWS V14.01,2013-03-15 19:18:00,
2013-03-15 15:19:00,57.0,39.6,29.96,SW,236,5.0,15.0,52,0.00,,---,0.00,584.00,VWS V14.01,2013-03-15 19:19:00,
2013-03-15 15:20:00,57.1,39.7,29.96,SW,236,4.0,5.0,52,0.00,,---,0.00,584.00,VWS V14.01,2013-03-15 19:20:00,
2013-03-15 15:21:00,57.1,39.7,29.95,SW,225,5.0,10.0,52,0.00,,---,0.00,608.00,VWS V14.01,2013-03-15 19:21:00,
2013-03-15 15:22:00,57.2,39.8,29.95,WSW,251,4.0,10.0,52,0.00,,---,0.00,584.00,VWS V14.01,2013-03-15 19:22:00,
2013-03-15 15:23:00,56.4,39.5,29.96,SW,222,5.0,15.0,53,0.00,,---,0.00,501.00,VWS V14.01,2013-03-15 19:23:00,
2013-03-15 15:24:00,57.4,40.4,29.95,WNW,290,3.0,10.0,53,0.00,,---,0.00,506.00,VWS V14.01,2013-03-15 19:24:00,
2013-03-15 15:25:00,57.5,40.0,29.95,WSW,240,2.0,10.0,52,0.00,,---,0.00,492.00,VWS V14.01,2013-03-15 19:25:00,
2013-03-15 15:26:00,57.6,41.1,29.95,SW,234,7.0,11.0,54,0.00,,---,0.00,476.00,VWS V14.01,2013-03-15 19:26:00,
2013-03-15 15:27:00,57.7,40.2,29.95,WSW,242,4.0,11.0,52,0.00,,---,0.00,503.00,VWS V14.01,2013-03-15 19:27:00,
2013-03-15 15:28:00,56.9,40.0,29.96,WSW,244,5.0,15.0,53,0.00,,---,0.00,584.00,VWS V14.01,2013-03-15 19:28:00,
2013-03-15 15:29:00,57.8,40.8,29.95,West,276,6.0,11.0,53,0.00,,---,0.00,543.00,VWS V14.01,2013-03-15 19:29:00,
2013-03-15 15:30:00,57.9,40.9,29.95,SW,218,1.0,10.0,53,0.00,,---,0.00,554.00,VWS V14.01,2013-03-15 19:30:00,
2013-03-15 15:31:00,58.0,40.0,29.95,SSW,196,11.0,11.0,51,0.00,,---,0.00,478.00,VWS V14.01,2013-03-15 19:31:00,
2013-03-15 15:32:00,58.0,40.5,29.95,WNW,288,5.0,11.0,52,0.00,,---,0.00,473.00,VWS V14.01,2013-03-15 19:32:00,
2013-03-15 15:33:00,57.4,40.4,29.95,West,276,4.0,10.0,53,0.00,,---,0.00,506.00,VWS V14.01,2013-03-15 19:33:00,
2013-03-15 15:34:00,58.0,40.0,29.95,South,182,6.0,12.0,51,0.00,,---,0.00,508.00,VWS V14.01,2013-03-15 19:34:00,
2013-03-15 15:35:00,57.9,39.9,29.95,WSW,250,8.0,12.0,51,0.00,,---,0.00,508.00,VWS V14.01,2013-03-15 19:35:00,
2013-03-15 15:36:00,57.9,39.9,29.95,SW,220,7.0,13.0,51,0.00,,---,0.00,455.00,VWS V14.01,2013-03-15 19:36:00,
2013-03-15 15:37:00,57.9,40.4,29.95,WSW,242,5.0,13.0,52,0.00,,---,0.00,459.00,VWS V14.01,2013-03-15 19:37:00,
2013-03-15 15:38:00,57.8,40.8,29.95,WNW,285,4.0,11.0,53,0.00,,---,0.00,504.00,VWS V14.01,2013-03-15 19:38:00,
2013-03-15 15:39:00,57.9,39.9,29.95,West,269,2.0,13.0,51,0.00,,---,0.00,432.00,VWS V14.01,2013-03-15 19:39:00,
2013-03-15 15:40:00,57.9,39.9,29.94,SW,235,3.0,7.0,51,0.00,,---,0.00,390.00,VWS V14.01,2013-03-15 19:40:00,
2013-03-15 15:41:00,58.0,40.0,29.94,West,277,7.0,11.0,51,0.00,,---,0.00,380.00,VWS V14.01,2013-03-15 19:41:00,
2013-03-15 15:42:00,57.9,39.9,29.94,West,280,4.0,11.0,51,0.00,,---,0.00,392.00,VWS V14.01,2013-03-15 19:42:00,
2013-03-15 15:43:00,57.9,39.4,29.94,WSW,250,4.0,11.0,50,0.00,,---,0.00,413.00,VWS V14.01,2013-03-15 19:43:00,
2013-03-15 15:44:00,57.9,39.9,29.95,SSW,201,7.0,12.0,51,0.00,,---,0.00,508.00,VWS V14.01,2013-03-15 19:44:00,
2013-03-15 15:45:00,58.0,41.0,29.95,WSW,251,7.0,13.0,53,0.00,,---,0.00,452.00,VWS V14.01,2013-03-15 19:45:00,
2013-03-15 15:46:00,58.1,40.6,29.94,SSE,160,2.0,13.0,52,0.00,,---,0.00,438.00,VWS V14.01,2013-03-15 19:46:00,
2013-03-15 15:47:00,58.2,40.2,29.94,SSW,213,10.0,13.0,51,0.00,,---,0.00,424.00,VWS V14.01,2013-03-15 19:47:00,
2013-03-15 15:48:00,58.2,40.2,29.94,SW,228,11.0,13.0,51,0.00,,---,0.00,413.00,VWS V14.01,2013-03-15 19:48:00,
2013-03-15 15:49:00,57.9,39.9,29.94,West,274,3.0,5.0,51,0.00,,---,0.00,408.00,VWS V14.01,2013-03-15 19:49:00,
2013-03-15 15:50:00,58.2,40.7,29.95,NW,310,6.0,7.0,52,0.00,,---,0.00,424.00,VWS V14.01,2013-03-15 19:50:00,
2013-03-15 15:51:00,58.3,40.8,29.94,WSW,251,12.0,12.0,52,0.00,,---,0.00,431.00,VWS V14.01,2013-03-15 19:51:00,
2013-03-15 15:52:00,58.3,40.3,29.94,West,279,1.0,12.0,51,0.00,,---,0.00,485.00,VWS V14.01,2013-03-15 19:52:00,
2013-03-15 15:53:00,58.3,40.8,29.94,WSW,250,10.0,14.0,52,0.00,,---,0.00,476.00,VWS V14.01,2013-03-15 19:53:00,
2013-03-15 15:54:00,58.0,40.5,29.95,SSW,196,11.0,11.0,52,0.00,,---,0.00,452.00,VWS V14.01,2013-03-15 19:54:00,
2013-03-15 15:55:00,58.4,40.4,29.94,WSW,253,2.0,14.0,51,0.00,,---,0.00,476.00,VWS V14.01,2013-03-15 19:55:00,
2013-03-15 15:56:00,58.4,40.9,29.94,SW,221,5.0,14.0,52,0.00,,---,0.00,438.00,VWS V14.01,2013-03-15 19:56:00,
2013-03-15 15:57:00,58.5,41.0,29.94,West,259,3.0,14.0,52,0.00,,---,0.00,483.00,VWS V14.01,2013-03-15 19:57:00,
2013-03-15 15:58:00,58.6,41.5,29.94,WSW,244,6.0,14.0,53,0.00,,---,0.00,464.00,VWS V14.01,2013-03-15 19:58:00,
2013-03-15 15:59:00,58.7,41.1,29.94,SW,223,10.0,14.0,52,0.00,,---,0.00,446.00,VWS V14.01,2013-03-15 19:59:00,
2013-03-15 16:00:00,58.2,40.7,29.95,West,262,4.0,7.0,52,0.00,,---,0.00,424.00,VWS V14.01,2013-03-15 20:00:00,
2013-03-15 16:02:00,58.9,40.8,29.94,West,272,5.0,11.0,51,0.00,,---,0.00,341.00,VWS V14.01,2013-03-15 20:02:00,
2013-03-15 16:03:00,58.9,41.3,29.94,West,279,4.0,11.0,52,0.00,,---,0.00,396.00,VWS V14.01,2013-03-15 20:03:00,
2013-03-15 16:04:00,58.9,40.8,29.94,SW,224,4.0,13.0,51,0.00,,---,0.00,387.00,VWS V14.01,2013-03-15 20:04:00,
2013-03-15 16:05:00,58.4,40.9,29.94,SW,217,6.0,14.0,52,0.00,,---,0.00,438.00,VWS V14.01,2013-03-15 20:05:00,
2013-03-15 16:06:00,58.8,40.7,29.94,SW,236,5.0,13.0,51,0.00,,---,0.00,343.00,VWS V14.01,2013-03-15 20:06:00,
2013-03-15 16:07:00,58.8,40.7,29.94,WSW,252,2.0,13.0,51,0.00,,---,0.00,360.00,VWS V14.01,2013-03-15 20:07:00,
2013-03-15 16:08:00,58.8,41.2,29.94,WSW,240,9.0,13.0,52,0.00,,---,0.00,364.00,VWS V14.01,2013-03-15 20:08:00,
2013-03-15 16:09:00,58.9,40.3,29.94,WSW,237,6.0,13.0,50,0.00,,---,0.00,341.00,VWS V14.01,2013-03-15 20:09:00,
2013-03-15 16:10:00,58.8,40.7,29.94,WSW,257,3.0,9.0,51,0.00,,---,0.00,367.00,VWS V14.01,2013-03-15 20:10:00,
2013-03-15 16:11:00,58.9,39.8,29.94,WSW,248,4.0,13.0,49,0.00,,---,0.00,359.00,VWS V14.01,2013-03-15 20:11:00,
2013-03-15 16:12:00,58.8,40.2,29.94,WSW,250,4.0,13.0,50,0.00,,---,0.00,366.00,VWS V14.01,2013-03-15 20:12:00,
2013-03-15 16:13:00,58.8,40.7,29.93,WSW,255,3.0,13.0,51,0.00,,---,0.00,360.00,VWS V14.01,2013-03-15 20:13:00,
2013-03-15 16:14:00,58.9,40.8,29.93,WSW,255,3.0,13.0,51,0.00,,---,0.00,346.00,VWS V14.01,2013-03-15 20:14:00,
2013-03-15 16:15:00,58.8,40.7,29.94,WSW,258,4.0,13.0,51,0.00,,---,0.00,343.00,VWS V14.01,2013-03-15 20:15:00,
2013-03-15 16:16:00,58.9,40.8,29.94,WSW,255,6.0,13.0,51,0.00,,---,0.00,341.00,VWS V14.01,2013-03-15 20:16:00,
2013-03-15 16:17:00,58.9,41.3,29.94,SW,233,7.0,13.0,52,0.00,,---,0.00,322.00,VWS V14.01,2013-03-15 20:17:00,
2013-03-15 16:18:00,58.9,40.8,29.93,WSW,255,3.0,13.0,51,0.00,,---,0.00,338.00,VWS V14.01,2013-03-15 20:18:00,
2013-03-15 16:19:00,58.9,40.8,29.93,WSW,243,2.0,13.0,51,0.00,,---,0.00,359.00,VWS V14.01,2013-03-15 20:19:00,
2013-03-15 16:20:00,58.9,39.8,29.94,West,273,3.0,13.0,49,0.00,,---,0.00,359.00,VWS V14.01,2013-03-15 20:20:00,
2013-03-15 16:21:00,59.0,40.9,29.93,West,263,2.0,6.0,51,0.00,,---,0.00,332.00,VWS V14.01,2013-03-15 20:21:00,
2013-03-15 16:22:00,59.0,40.9,29.93,WSW,258,2.0,10.0,51,0.00,,---,0.00,429.00,VWS V14.01,2013-03-15 20:22:00,
2013-03-15 16:23:00,59.1,40.5,29.93,WSW,241,7.0,10.0,50,0.00,,---,0.00,404.00,VWS V14.01,2013-03-15 20:23:00,
2013-03-15 16:24:00,59.2,41.1,29.93,WSW,249,3.0,10.0,51,0.00,,---,0.00,425.00,VWS V14.01,2013-03-15 20:24:00,
2013-03-15 16:25:00,59.2,40.6,29.93,SW,231,2.0,10.0,50,0.00,,---,0.00,454.00,VWS V14.01,2013-03-15 20:25:00,
2013-03-15 16:26:00,58.9,41.3,29.94,SW,231,5.0,13.0,52,0.00,,---,0.00,341.00,VWS V14.01,2013-03-15 20:26:00,
2013-03-15 16:27:00,59.4,41.8,29.93,SW,215,7.0,10.0,52,0.00,,---,0.00,332.00,VWS V14.01,2013-03-15 20:27:00,
2013-03-15 16:28:00,59.5,41.4,29.93,SW,236,3.0,14.0,51,0.00,,---,0.00,329.00,VWS V14.01,2013-03-15 20:28:00,
2013-03-15 16:29:00,59.5,41.4,29.93,West,270,7.0,14.0,51,0.00,,---,0.00,355.00,VWS V14.01,2013-03-15 20:29:00,
2013-03-15 16:30:00,59.5,40.9,29.93,WSW,238,3.0,8.0,50,0.00,,---,0.00,311.00,VWS V14.01,2013-03-15 20:30:00,
2013-03-15 16:31:00,59.0,40.9,29.93,WSW,240,8.0,10.0,51,0.00,,---,0.00,332.00,VWS V14.01,2013-03-15 20:31:00,
2013-03-15 16:32:00,59.6,41.5,29.93,SW,224,2.0,8.0,51,0.00,,---,0.00,301.00,VWS V14.01,2013-03-15 20:32:00,
2013-03-15 16:33:00,59.6,41.5,29.93,NW,316,4.0,8.0,51,0.00,,---,0.00,357.00,VWS V14.01,2013-03-15 20:33:00,
2013-03-15 16:34:00,59.7,41.6,29.93,WNW,286,3.0,8.0,51,0.00,,---,0.00,436.00,VWS V14.01,2013-03-15 20:34:00,
2013-03-15 16:35:00,59.8,41.1,29.93,WSW,255,4.0,8.0,50,0.00,,---,0.00,476.00,VWS V14.01,2013-03-15 20:35:00,
2013-03-15 16:36:00,59.4,41.8,29.93,West,263,6.0,10.0,52,0.00,,---,0.00,492.00,VWS V14.01,2013-03-15 20:36:00,
2013-03-15 16:37:00,59.9,41.2,29.93,WSW,246,0.0,9.0,50,0.00,,---,0.00,338.00,VWS V14.01,2013-03-15 20:37:00,
2013-03-15 16:38:00,60.0,40.8,29.93,WSW,242,7.0,11.0,49,0.00,,---,0.00,304.00,VWS V14.01,2013-03-15 20:38:00,
2013-03-15 16:39:00,60.0,40.8,29.93,SW,221,4.0,11.0,49,0.00,,---,0.00,364.00,VWS V14.01,2013-03-15 20:39:00,
2013-03-15 16:40:00,60.0,41.3,29.92,West,272,4.0,5.0,50,0.00,,---,0.00,350.00,VWS V14.01,2013-03-15 20:40:00,
2013-03-15 16:41:00,60.0,41.3,29.92,West,263,2.0,5.0,50,0.00,,---,0.00,350.00,VWS V14.01,2013-03-15 20:41:00,
2013-03-15 16:42:00,59.6,41.5,29.93,WSW,257,6.0,8.0,51,0.00,,---,0.00,341.00,VWS V14.01,2013-03-15 20:42:00,
2013-03-15 16:43:00,60.2,41.0,29.92,SSE,161,3.0,8.0,49,0.00,,---,0.00,352.00,VWS V14.01,2013-03-15 20:43:00,
2013-03-15 16:44:00,60.2,39.9,29.92,SW,220,6.0,9.0,47,0.00,,---,0.00,297.00,VWS V14.01,2013-03-15 20:44:00,
2013-03-15 16:45:00,60.2,39.9,29.92,SW,223,6.0,9.0,47,0.00,,---,0.00,288.00,VWS V14.01,2013-03-15 20:45:00,
2013-03-15 16:46:00,60.2,41.0,29.92,SW,222,4.0,9.0,49,0.00,,---,0.00,262.00,VWS V14.01,2013-03-15 20:46:00,
2013-03-15 16:47:00,59.9,41.2,29.93,West,269,6.0,11.0,50,0.00,,---,0.00,304.00,VWS V14.01,2013-03-15 20:47:00,
2013-03-15 16:48:00,60.2,40.5,29.92,West,275,2.0,9.0,48,0.00,,---,0.00,253.00,VWS V14.01,2013-03-15 20:48:00,
2013-03-15 16:49:00,60.2,40.5,29.92,WSW,253,4.0,10.0,48,0.00,,---,0.00,255.00,VWS V14.01,2013-03-15 20:49:00,
2013-03-15 16:50:00,60.2,40.5,29.92,WSW,247,4.0,5.0,48,0.00,,---,0.00,264.00,VWS V14.01,2013-03-15 20:50:00,
2013-03-15 16:52:00,60.1,41.4,29.92,WSW,238,6.0,8.0,50,0.00,,---,0.00,352.00,VWS V14.01,2013-03-15 20:52:00,
2013-03-15 16:53:00,60.3,41.1,29.92,SW,230,6.0,9.0,49,0.00,,---,0.00,316.00,VWS V14.01,2013-03-15 20:53:00,
2013-03-15 16:54:00,60.3,40.5,29.92,West,271,1.0,9.0,48,0.00,,---,0.00,338.00,VWS V14.01,2013-03-15 20:54:00,
2013-03-15 16:55:00,60.4,40.6,29.92,SW,236,5.0,12.0,48,0.00,,---,0.00,374.00,VWS V14.01,2013-03-15 20:55:00,
2013-03-15 16:56:00,60.4,40.6,29.92,WSW,240,6.0,12.0,48,0.00,,---,0.00,374.00,VWS V14.01,2013-03-15 20:56:00,
2013-03-15 16:57:00,60.2,40.5,29.92,WSW,253,1.0,9.0,48,0.00,,---,0.00,253.00,VWS V14.01,2013-03-15 20:57:00,
2013-03-15 16:58:00,60.4,40.6,29.92,WSW,248,7.0,12.0,48,0.00,,---,0.00,413.00,VWS V14.01,2013-03-15 20:58:00,
2013-03-15 16:59:00,60.5,40.2,29.92,WSW,237,5.0,12.0,47,0.00,,---,0.00,436.00,VWS V14.01,2013-03-15 20:59:00,
2013-03-15 17:00:00,60.5,40.2,29.92,WSW,247,4.0,6.0,47,0.00,,---,0.00,406.00,VWS V14.01,2013-03-15 21:00:00,
2013-03-15 17:01:00,60.6,40.3,29.92,WSW,237,9.0,13.0,47,0.00,,---,0.00,359.00,VWS V14.01,2013-03-15 21:01:00,
2013-03-15 17:02:00,60.3,41.1,29.92,SW,232,2.0,9.0,49,0.00,,---,0.00,316.00,VWS V14.01,2013-03-15 21:02:00,
2013-03-15 17:03:00,60.6,39.7,29.92,SW,232,1.0,13.0,46,0.00,,---,0.00,387.00,VWS V14.01,2013-03-15 21:03:00,
2013-03-15 17:04:00,60.7,40.9,29.92,SSW,198,9.0,13.0,48,0.00,,---,0.00,327.00,VWS V14.01,2013-03-15 21:04:00,
2013-03-15 17:05:00,60.7,39.8,29.92,WSW,244,11.0,13.0,46,0.00,,---,0.00,338.00,VWS V14.01,2013-03-15 21:05:00,
2013-03-15 17:06:00,60.7,40.4,29.92,SW,221,5.0,13.0,47,0.00,,---,0.00,327.00,VWS V14.01,2013-03-15 21:06:00,
2013-03-15 17:07:00,60.7,40.9,29.92,WSW,254,2.0,13.0,48,0.00,,---,0.00,276.00,VWS V14.01,2013-03-15 21:07:00,
2013-03-15 17:08:00,60.5,40.2,29.92,SSW,196,7.0,12.0,47,0.00,,---,0.00,413.00,VWS V14.01,2013-03-15 21:08:00,
2013-03-15 17:09:00,60.7,40.9,29.92,WSW,244,1.0,13.0,48,0.00,,---,0.00,230.00,VWS V14.01,2013-03-15 21:09:00,
2013-03-15 17:10:00,60.7,40.9,29.92,West,266,2.0,4.0,48,0.00,,---,0.00,225.00,VWS V14.01,2013-03-15 21:10:00,
2013-03-15 17:11:00,60.7,40.9,29.92,SSW,205,1.0,5.0,48,0.00,,---,0.00,216.00,VWS V14.01,2013-03-15 21:11:00,
2013-03-15 17:12:00,60.7,40.9,29.92,NW,311,6.0,10.0,48,0.00,,---,0.00,207.00,VWS V14.01,2013-03-15 21:12:00,
2013-03-15 17:13:00,60.6,40.8,29.92,WSW,241,6.0,13.0,48,0.00,,---,0.00,327.00,VWS V14.01,2013-03-15 21:13:00,
2013-03-15 17:14:00,60.5,40.2,29.92,North,349,4.0,10.0,47,0.00,,---,0.00,192.00,VWS V14.01,2013-03-15 21:14:00,
2013-03-15 17:15:00,60.5,40.2,29.92,SSW,213,4.0,10.0,47,0.00,,---,0.00,188.00,VWS V14.01,2013-03-15 21:15:00,
2013-03-15 17:16:00,60.5,40.2,29.91,SSW,213,2.0,10.0,47,0.00,,---,0.00,185.00,VWS V14.01,2013-03-15 21:16:00,
2013-03-15 17:17:00,60.4,40.6,29.92,SW,214,5.0,10.0,48,0.00,,---,0.00,181.00,VWS V14.01,2013-03-15 21:17:00,
2013-03-15 17:18:00,60.4,40.1,29.91,WSW,255,2.0,10.0,47,0.00,,---,0.00,179.00,VWS V14.01,2013-03-15 21:18:00,
2013-03-15 17:19:00,60.7,40.9,29.92,WNW,282,3.0,13.0,48,0.00,,---,0.00,230.00,VWS V14.01,2013-03-15 21:19:00,
2013-03-15 17:20:00,60.3,40.5,29.91,WSW,245,5.0,7.0,48,0.00,,---,0.00,165.00,VWS V14.01,2013-03-15 21:20:00,
2013-03-15 17:22:00,60.2,40.5,29.91,WSW,238,2.0,7.0,48,0.00,,---,0.00,156.00,VWS V14.01,2013-03-15 21:22:00,
2013-03-15 17:23:00,60.2,40.5,29.91,WSW,245,0.0,7.0,48,0.00,,---,0.00,151.00,VWS V14.01,2013-03-15 21:23:00,
2013-03-15 17:24:00,60.5,40.2,29.92,West,261,1.0,10.0,47,0.00,,---,0.00,192.00,VWS V14.01,2013-03-15 21:24:00,
2013-03-15 17:25:00,60.1,40.4,29.91,WSW,253,6.0,9.0,48,0.00,,---,0.00,141.00,VWS V14.01,2013-03-15 21:25:00,
2013-03-15 17:26:00,60.1,40.9,29.91,WSW,242,9.0,9.0,49,0.00,,---,0.00,137.00,VWS V14.01,2013-03-15 21:26:00,
2013-03-15 17:27:00,60.0,40.3,29.91,SW,224,3.0,9.0,48,0.00,,---,0.00,135.00,VWS V14.01,2013-03-15 21:27:00,
2013-03-15 17:28:00,60.0,40.3,29.91,WSW,258,5.0,9.0,48,0.00,,---,0.00,132.00,VWS V14.01,2013-03-15 21:28:00,
2013-03-15 17:29:00,60.3,40.5,29.91,West,275,3.0,5.0,48,0.00,,---,0.00,171.00,VWS V14.01,2013-03-15 21:29:00,
2013-03-15 17:30:00,59.9,40.7,29.91,West,263,0.0,3.0,49,0.00,,---,0.00,127.00,VWS V14.01,2013-03-15 21:30:00,
2013-03-15 17:31:00,59.9,40.7,29.91,West,260,4.0,7.0,49,0.00,,---,0.00,125.00,VWS V14.01,2013-03-15 21:31:00,
2013-03-15 17:32:00,59.9,40.7,29.91,WSW,252,1.0,7.0,49,0.00,,---,0.00,123.00,VWS V14.01,2013-03-15 21:32:00,
2013-03-15 17:33:00,59.8,40.6,29.91,WSW,250,3.0,7.0,49,0.00,,---,0.00,120.00,VWS V14.01,2013-03-15 21:33:00,
2013-03-15 17:34:00,60.1,40.4,29.91,WSW,247,6.0,7.0,48,0.00,,---,0.00,144.00,VWS V14.01,2013-03-15 21:34:00,
2013-03-15 17:35:00,59.8,40.1,29.91,West,263,3.0,7.0,48,0.00,,---,0.00,116.00,VWS V14.01,2013-03-15 21:35:00,
2013-03-15 17:36:00,59.8,40.6,29.91,WSW,245,5.0,7.0,49,0.00,,---,0.00,114.00,VWS V14.01,2013-03-15 21:36:00,
2013-03-15 17:37:00,59.7,40.0,29.91,WSW,250,0.0,7.0,48,0.00,,---,0.00,113.00,VWS V14.01,2013-03-15 21:37:00,
2013-03-15 17:38:00,59.7,40.5,29.91,WSW,246,3.0,7.0,49,0.00,,---,0.00,113.00,VWS V14.01,2013-03-15 21:38:00,
2013-03-15 17:39:00,59.7,41.0,29.91,WSW,249,2.0,7.0,50,0.00,,---,0.00,111.00,VWS V14.01,2013-03-15 21:39:00,
2013-03-15 17:40:00,59.9,40.7,29.91,West,271,3.0,7.0,49,0.00,,---,0.00,125.00,VWS V14.01,2013-03-15 21:40:00,
2013-03-15 17:41:00,59.6,40.4,29.91,West,264,0.0,3.0,49,0.00,,---,0.00,109.00,VWS V14.01,2013-03-15 21:41:00,
2013-03-15 17:42:00,59.6,41.0,29.91,SW,221,4.0,12.0,50,0.00,,---,0.00,105.00,VWS V14.01,2013-03-15 21:42:00,
2013-03-15 17:43:00,59.6,40.4,29.91,SW,218,2.0,12.0,49,0.00,,---,0.00,105.00,VWS V14.01,2013-03-15 21:43:00,
2013-03-15 17:44:00,59.6,40.4,29.90,West,263,6.0,12.0,49,0.00,,---,0.00,100.00,VWS V14.01,2013-03-15 21:44:00,
2013-03-15 17:45:00,59.8,40.1,29.91,WSW,239,3.0,7.0,48,0.00,,---,0.00,114.00,VWS V14.01,2013-03-15 21:45:00,
2013-03-15 17:46:00,59.5,40.9,29.91,WSW,239,4.0,12.0,50,0.00,,---,0.00,97.00,VWS V14.01,2013-03-15 21:46:00,
2013-03-15 17:47:00,59.5,41.4,29.91,WSW,246,0.0,12.0,51,0.00,,---,0.00,97.00,VWS V14.01,2013-03-15 21:47:00,
2013-03-15 17:48:00,59.5,40.9,29.91,West,269,2.0,12.0,50,0.00,,---,0.00,97.00,VWS V14.01,2013-03-15 21:48:00,
2013-03-15 17:49:00,59.5,41.4,29.91,SW,234,6.0,12.0,51,0.00,,---,0.00,97.00,VWS V14.01,2013-03-15 21:49:00,
2013-03-15 17:50:00,59.6,41.0,29.91,West,264,1.0,3.0,50,0.00,,---,0.00,109.00,VWS V14.01,2013-03-15 21:50:00,
2013-03-15 17:51:00,59.5,40.9,29.91,SW,236,3.0,7.0,50,0.00,,---,0.00,97.00,VWS V14.01,2013-03-15 21:51:00,
2013-03-15 17:52:00,59.4,41.3,29.91,WSW,244,1.0,7.0,51,0.00,,---,0.00,97.00,VWS V14.01,2013-03-15 21:52:00,
2013-03-15 17:53:00,59.4,41.3,29.91,WSW,249,2.0,7.0,51,0.00,,---,0.00,95.00,VWS V14.01,2013-03-15 21:53:00,
2013-03-15 17:54:00,59.4,41.3,29.91,WSW,244,0.0,7.0,51,0.00,,---,0.00,95.00,VWS V14.01,2013-03-15 21:54:00,
2013-03-15 17:55:00,59.5,40.9,29.91,WNW,286,2.0,12.0,50,0.00,,---,0.00,98.00,VWS V14.01,2013-03-15 21:55:00,
2013-03-15 17:57:00,59.3,40.7,29.91,SW,225,1.0,7.0,50,0.00,,---,0.00,90.00,VWS V14.01,2013-03-15 21:57:00,
2013-03-15 17:58:00,59.3,41.2,29.91,West,263,4.0,7.0,51,0.00,,---,0.00,90.00,VWS V14.01,2013-03-15 21:58:00,
2013-03-15 17:59:00,59.3,41.2,29.91,WSW,258,0.0,7.0,51,0.00,,---,0.00,90.00,VWS V14.01,2013-03-15 21:59:00,
2013-03-15 18:00:00,59.5,40.9,29.91,WSW,255,3.0,7.0,50,0.00,,---,0.00,98.00,VWS V14.01,2013-03-15 22:00:00,
2013-03-15 18:02:00,59.3,41.2,29.91,WSW,250,0.0,9.0,51,0.00,,---,0.00,88.00,VWS V14.01,2013-03-15 22:02:00,
2013-03-15 18:03:00,59.2,41.1,29.91,WSW,248,4.0,9.0,51,0.00,,---,0.00,86.00,VWS V14.01,2013-03-15 22:03:00,
2013-03-15 18:04:00,59.2,41.1,29.91,West,269,0.0,9.0,51,0.00,,---,0.00,84.00,VWS V14.01,2013-03-15 22:04:00,
2013-03-15 18:05:00,59.3,41.2,29.91,West,265,7.0,7.0,51,0.00,,---,0.00,91.00,VWS V14.01,2013-03-15 22:05:00,
2013-03-15 18:06:00,59.2,41.1,29.91,WSW,248,1.0,9.0,51,0.00,,---,0.00,83.00,VWS V14.01,2013-03-15 22:06:00,
2013-03-15 18:07:00,59.2,41.1,29.91,WSW,257,0.0,9.0,51,0.00,,---,0.00,83.00,VWS V14.01,2013-03-15 22:07:00,
2013-03-15 18:08:00,59.2,41.6,29.91,WSW,257,0.0,9.0,52,0.00,,---,0.00,83.00,VWS V14.01,2013-03-15 22:08:00,
2013-03-15 18:09:00,59.2,41.1,29.91,West,259,3.0,9.0,51,0.00,,---,0.00,84.00,VWS V14.01,2013-03-15 22:09:00,
2013-03-15 18:10:00,59.3,41.2,29.91,West,274,3.0,9.0,51,0.00,,---,0.00,90.00,VWS V14.01,2013-03-15 22:10:00,
2013-03-15 18:11:00,59.1,41.0,29.91,SW,229,2.0,4.0,51,0.00,,---,0.00,84.00,VWS V14.01,2013-03-15 22:11:00,
2013-03-15 18:12:00,59.1,41.0,29.91,WSW,239,2.0,6.0,51,0.00,,---,0.00,83.00,VWS V14.01,2013-03-15 22:12:00,
2013-03-15 18:13:00,59.1,41.0,29.91,SW,235,4.0,6.0,51,0.00,,---,0.00,84.00,VWS V14.01,2013-03-15 22:13:00,
2013-03-15 18:14:00,59.1,41.0,29.90,WSW,248,2.0,6.0,51,0.00,,---,0.00,84.00,VWS V14.01,2013-03-15 22:14:00,
2013-03-15 18:15:00,59.2,41.1,29.91,WSW,255,5.0,9.0,51,0.00,,---,0.00,83.00,VWS V14.01,2013-03-15 22:15:00,
2013-03-15 18:17:00,59.1,41.0,29.91,SW,232,3.0,7.0,51,0.00,,---,0.00,88.00,VWS V14.01,2013-03-15 22:17:00,
2013-03-15 18:18:00,59.1,41.0,29.90,SSW,211,0.0,7.0,51,0.00,,---,0.00,88.00,VWS V14.01,2013-03-15 22:18:00,
2013-03-15 18:19:00,59.1,41.5,29.91,WNW,296,1.0,7.0,52,0.00,,---,0.00,86.00,VWS V14.01,2013-03-15 22:19:00,
2013-03-15 18:20:00,59.2,41.6,29.91,WSW,241,4.0,4.0,52,0.00,,---,0.00,84.00,VWS V14.01,2013-03-15 22:20:00,
2013-03-15 18:21:00,59.1,41.0,29.90,WSW,257,0.0,3.0,51,0.00,,---,0.00,107.00,VWS V14.01,2013-03-15 22:21:00,
2013-03-15 18:22:00,59.1,41.0,29.91,WSW,257,0.0,3.0,51,0.00,,---,0.00,167.00,VWS V14.01,2013-03-15 22:22:00,
2013-03-15 18:23:00,59.1,42.0,29.90,WSW,257,1.0,3.0,53,0.00,,---,0.00,174.00,VWS V14.01,2013-03-15 22:23:00,
2013-03-15 18:24:00,59.1,41.5,29.90,SW,234,2.0,3.0,52,0.00,,---,0.00,142.00,VWS V14.01,2013-03-15 22:24:00,
2013-03-15 18:25:00,59.1,41.5,29.91,WSW,252,3.0,7.0,52,0.00,,---,0.00,86.00,VWS V14.01,2013-03-15 22:25:00,
2013-03-15 18:26:00,59.3,41.7,29.90,WSW,248,0.0,3.0,52,0.00,,---,0.00,172.00,VWS V14.01,2013-03-15 22:26:00,
2013-03-15 18:27:00,59.4,41.8,29.90,WSW,248,3.0,3.0,52,0.00,,---,0.00,179.00,VWS V14.01,2013-03-15 22:27:00,
2013-03-15 18:28:00,59.4,41.3,29.90,SW,234,5.0,6.0,51,0.00,,---,0.00,162.00,VWS V14.01,2013-03-15 22:28:00,
2013-03-15 18:29:00,59.6,41.5,29.90,WSW,255,1.0,6.0,51,0.00,,---,0.00,181.00,VWS V14.01,2013-03-15 22:29:00,
2013-03-15 18:30:00,59.6,41.5,29.90,SW,224,3.0,4.0,51,0.00,,---,0.00,158.00,VWS V14.01,2013-03-15 22:30:00,
2013-03-15 18:31:00,59.1,41.0,29.91,WSW,257,0.0,3.0,51,0.00,,---,0.00,167.00,VWS V14.01,2013-03-15 22:31:00,
2013-03-15 18:32:00,59.8,41.1,29.90,West,260,0.0,4.0,50,0.00,,---,0.00,167.00,VWS V14.01,2013-03-15 22:32:00,
2013-03-15 18:33:00,59.9,42.2,29.90,WSW,246,4.0,4.0,52,0.00,,---,0.00,162.00,VWS V14.01,2013-03-15 22:33:00,
2013-03-15 18:34:00,60.0,42.3,29.90,West,265,3.0,4.0,52,0.00,,---,0.00,160.00,VWS V14.01,2013-03-15 22:34:00,
2013-03-15 18:35:00,60.1,41.9,29.90,West,260,1.0,4.0,51,0.00,,---,0.00,151.00,VWS V14.01,2013-03-15 22:35:00,
2013-03-15 18:36:00,59.3,41.7,29.90,WSW,248,2.0,3.0,52,0.00,,---,0.00,179.00,VWS V14.01,2013-03-15 22:36:00,
2013-03-15 18:37:00,60.2,42.0,29.90,SW,234,2.0,5.0,51,0.00,,---,0.00,153.00,VWS V14.01,2013-03-15 22:37:00,
2013-03-15 18:38:00,60.2,41.5,29.90,SW,232,0.0,5.0,50,0.00,,---,0.00,151.00,VWS V14.01,2013-03-15 22:38:00,
2013-03-15 18:39:00,60.3,42.1,29.90,SW,228,4.0,5.0,51,0.00,,---,0.00,141.00,VWS V14.01,2013-03-15 22:39:00,
2013-03-15 18:40:00,60.3,41.6,29.90,WSW,242,6.0,6.0,50,0.00,,---,0.00,132.00,VWS V14.01,2013-03-15 22:40:00,
2013-03-15 18:41:00,59.8,41.1,29.90,WNW,288,1.0,4.0,50,0.00,,---,0.00,167.00,VWS V14.01,2013-03-15 22:41:00,
2013-03-15 18:42:00,60.3,41.1,29.90,SW,227,6.0,7.0,49,0.00,,---,0.00,155.00,VWS V14.01,2013-03-15 22:42:00,
2013-03-15 18:43:00,60.3,41.1,29.90,SW,218,1.0,8.0,49,0.00,,---,0.00,151.00,VWS V14.01,2013-03-15 22:43:00,
2013-03-15 18:44:00,60.4,42.2,29.90,SW,218,0.0,8.0,51,0.00,,---,0.00,125.00,VWS V14.01,2013-03-15 22:44:00,
2013-03-15 18:45:00,60.4,41.7,29.90,SW,234,0.0,8.0,50,0.00,,---,0.00,134.00,VWS V14.01,2013-03-15 22:45:00,
2013-03-15 18:46:00,60.4,42.2,29.90,SW,234,0.0,8.0,51,0.00,,---,0.00,135.00,VWS V14.01,2013-03-15 22:46:00,
2013-03-15 18:47:00,60.2,42.0,29.90,WSW,240,2.0,5.0,51,0.00,,---,0.00,148.00,VWS V14.01,2013-03-15 22:47:00,
2013-03-15 18:48:00,60.4,41.7,29.90,WSW,251,1.0,8.0,50,0.00,,---,0.00,135.00,VWS V14.01,2013-03-15 22:48:00,
2013-03-15 18:49:00,60.5,42.3,29.90,WSW,251,0.0,8.0,51,0.00,,---,0.00,127.00,VWS V14.01,2013-03-15 22:49:00,
2013-03-15 18:50:00,60.5,42.3,29.90,WSW,250,5.0,5.0,51,0.00,,---,0.00,113.00,VWS V14.01,2013-03-15 22:50:00,
2013-03-15 18:52:00,60.4,41.2,29.90,SW,233,5.0,8.0,49,0.00,,---,0.00,155.00,VWS V14.01,2013-03-15 22:52:00,
2013-03-15 18:53:00,60.4,41.7,29.90,SW,233,0.0,5.0,50,0.00,,---,0.00,70.00,VWS V14.01,2013-03-15 22:53:00,
2013-03-15 18:54:00,60.4,42.2,29.90,SW,233,0.0,5.0,51,0.00,,---,0.00,65.00,VWS V14.01,2013-03-15 22:54:00,
2013-03-15 18:55:00,60.3,42.1,29.90,WSW,247,0.0,5.0,51,0.00,,---,0.00,62.00,VWS V14.01,2013-03-15 22:55:00,
2013-03-15 18:56:00,60.3,42.1,29.90,WSW,252,0.0,5.0,51,0.00,,---,0.00,56.00,VWS V14.01,2013-03-15 22:56:00,
2013-03-15 18:57:00,60.4,41.7,29.90,WSW,251,0.0,8.0,50,0.00,,---,0.00,135.00,VWS V14.01,2013-03-15 22:57:00,
2013-03-15 18:58:00,60.1,41.4,29.90,WSW,252,0.0,5.0,50,0.00,,---,0.00,46.00,VWS V14.01,2013-03-15 22:58:00,
2013-03-15 18:59:00,60.0,41.8,29.90,WSW,249,0.0,5.0,51,0.00,,---,0.00,40.00,VWS V14.01,2013-03-15 22:59:00,
2013-03-15 19:00:00,60.0,41.8,29.90,WSW,250,0.0,2.0,51,0.00,,---,0.00,37.00,VWS V14.01,2013-03-15 23:00:00,
2013-03-15 19:02:00,60.4,41.7,29.90,SW,233,0.0,5.0,50,0.00,,---,0.00,79.00,VWS V14.01,2013-03-15 23:02:00,
2013-03-15 19:03:00,59.7,41.6,29.90,WSW,248,0.0,3.0,51,0.00,,---,0.00,28.00,VWS V14.01,2013-03-15 23:03:00,
2013-03-15 19:04:00,59.6,41.5,29.89,SW,225,0.0,3.0,51,0.00,,---,0.00,26.00,VWS V14.01,2013-03-15 23:04:00,
2013-03-15 19:05:00,59.5,41.4,29.89,SW,225,0.0,3.0,51,0.00,,---,0.00,25.00,VWS V14.01,2013-03-15 23:05:00,
2013-03-15 19:07:00,59.4,41.8,29.89,SW,225,0.0,3.0,52,0.00,,---,0.00,21.00,VWS V14.01,2013-03-15 23:07:00,
2013-03-15 19:08:00,60.1,41.4,29.90,WSW,252,2.0,5.0,50,0.00,,---,0.00,42.00,VWS V14.01,2013-03-15 23:08:00,
2013-03-15 19:09:00,59.3,41.2,29.89,SW,233,0.0,3.0,51,0.00,,---,0.00,19.00,VWS V14.01,2013-03-15 23:09:00,
2013-03-15 19:10:00,59.2,41.6,29.89,SW,233,0.0,0.0,52,0.00,,---,0.00,18.00,VWS V14.01,2013-03-15 23:10:00,
2013-03-15 19:12:00,59.0,41.4,29.89,SW,233,0.0,0.0,52,0.00,,---,0.00,19.00,VWS V14.01,2013-03-15 23:12:00,
2013-03-15 19:13:00,59.6,41.5,29.89,SW,223,0.0,3.0,51,0.00,,---,0.00,26.00,VWS V14.01,2013-03-15 23:13:00,
2013-03-15 19:14:00,58.9,41.3,29.90,SW,233,0.0,0.0,52,0.00,,---,0.00,19.00,VWS V14.01,2013-03-15 23:14:00,
2013-03-15 19:15:00,58.8,41.2,29.90,SW,233,0.0,1.0,52,0.00,,---,0.00,18.00,VWS V14.01,2013-03-15 23:15:00,
2013-03-15 19:16:00,58.7,41.6,29.90,SW,233,0.0,1.0,53,0.00,,---,0.00,18.00,VWS V14.01,2013-03-15 23:16:00,
2013-03-15 19:17:00,58.6,41.5,29.90,SW,233,0.0,1.0,53,0.00,,---,0.00,14.00,VWS V14.01,2013-03-15 23:17:00,
2013-03-15 19:18:00,59.3,41.7,29.89,SW,234,0.0,3.0,52,0.00,,---,0.00,19.00,VWS V14.01,2013-03-15 23:18:00,
2013-03-15 19:19:00,58.4,40.9,29.90,South,188,0.0,2.0,52,0.00,,---,0.00,14.00,VWS V14.01,2013-03-15 23:19:00,
2013-03-15 19:20:00,58.3,41.3,29.89,South,188,0.0,1.0,53,0.00,,---,0.00,12.00,VWS V14.01,2013-03-15 23:20:00,
2013-03-15 19:21:00,58.2,41.7,29.90,West,275,0.0,2.0,54,0.00,,---,0.00,11.00,VWS V14.01,2013-03-15 23:21:00,
2013-03-15 19:22:00,58.1,41.6,29.89,West,275,0.0,2.0,54,0.00,,---,0.00,11.00,VWS V14.01,2013-03-15 23:22:00,
2013-03-15 19:23:00,58.0,41.5,29.89,West,273,1.0,2.0,54,0.00,,---,0.00,7.00,VWS V14.01,2013-03-15 23:23:00,
2013-03-15 19:24:00,58.8,41.2,29.90,SW,233,0.0,1.0,52,0.00,,---,0.00,18.00,VWS V14.01,2013-03-15 23:24:00,
2013-03-15 19:25:00,57.8,41.3,29.89,West,273,1.0,2.0,54,0.00,,---,0.00,5.00,VWS V14.01,2013-03-15 23:25:00,
2013-03-15 19:27:00,57.6,41.1,29.90,West,272,0.0,2.0,54,0.00,,---,0.00,0.00,VWS V14.01,2013-03-15 23:27:00,
2013-03-15 19:28:00,57.6,41.1,29.89,West,272,0.0,2.0,54,0.00,,---,0.00,0.00,VWS V14.01,2013-03-15 23:28:00,
2013-03-15 19:29:00,58.4,41.3,29.90,South,187,0.0,2.0,53,0.00,,---,0.00,14.00,VWS V14.01,2013-03-15 23:29:00,
2013-03-15 19:30:00,57.5,41.5,29.90,West,272,0.0,0.0,55,0.00,,---,0.00,0.00,VWS V14.01,2013-03-15 23:30:00,
2013-03-15 19:32:00,57.4,40.9,29.89,West,272,0.0,1.0,54,0.00,,---,0.00,0.00,VWS V14.01,2013-03-15 23:32:00,
2013-03-15 19:33:00,57.3,41.3,29.90,West,272,0.0,2.0,55,0.00,,---,0.00,0.00,VWS V14.01,2013-03-15 23:33:00,
2013-03-15 19:34:00,57.8,41.3,29.89,West,273,2.0,2.0,54,0.00,,---,0.00,5.00,VWS V14.01,2013-03-15 23:34:00,
2013-03-15 19:35:00,57.2,41.2,29.90,West,272,1.0,2.0,55,0.00,,---,0.00,0.00,VWS V14.01,2013-03-15 23:35:00,
2013-03-15 19:36:00,57.1,41.1,29.90,West,272,0.0,2.0,55,0.00,,---,0.00,0.00,VWS V14.01,2013-03-15 23:36:00,
2013-03-15 19:37:00,57.1,41.1,29.90,West,272,0.0,2.0,55,0.00,,---,0.00,0.00,VWS V14.01,2013-03-15 23:37:00,
2013-03-15 19:38:00,57.0,41.5,29.90,West,272,0.0,2.0,56,0.00,,---,0.00,0.00,VWS V14.01,2013-03-15 23:38:00,
2013-03-15 19:39:00,57.5,41.5,29.90,West,272,0.0,0.0,55,0.00,,---,0.00,0.00,VWS V14.01,2013-03-15 23:39:00,
2013-03-15 19:40:00,56.8,40.8,29.90,West,272,0.0,0.0,55,0.00,,---,0.00,0.00,VWS V14.01,2013-03-15 23:40:00,
2013-03-15 19:42:00,56.8,41.3,29.90,West,272,0.0,2.0,56,0.00,,---,0.00,0.00,VWS V14.01,2013-03-15 23:42:00,
2013-03-15 19:43:00,56.8,41.8,29.90,West,272,0.0,2.0,57,0.00,,---,0.00,0.00,VWS V14.01,2013-03-15 23:43:00,
2013-03-15 19:44:00,57.2,41.2,29.90,West,272,0.0,2.0,55,0.00,,---,0.00,0.00,VWS V14.01,2013-03-15 23:44:00,
2013-03-15 19:45:00,56.7,41.7,29.90,West,272,0.0,2.0,57,0.00,,---,0.00,0.00,VWS V14.01,2013-03-15 23:45:00,
2013-03-15 19:47:00,56.6,41.6,29.90,West,272,0.0,2.0,57,0.00,,---,0.00,0.00,VWS V14.01,2013-03-15 23:47:00,
2013-03-15 19:48:00,56.4,41.4,29.90,West,273,0.0,2.0,57,0.00,,---,0.00,0.00,VWS V14.01,2013-03-15 23:48:00,
2013-03-15 19:49:00,56.9,40.9,29.90,West,272,0.0,0.0,55,0.00,,---,0.00,0.00,VWS V14.01,2013-03-15 23:49:00,
2013-03-15 19:50:00,56.2,41.2,29.90,West,273,0.0,0.0,57,0.00,,---,0.00,0.00,VWS V14.01,2013-03-15 23:50:00,
2013-03-15 19:51:00,56.2,41.6,29.90,West,273,0.0,0.0,58,0.00,,---,0.00,0.00,VWS V14.01,2013-03-15 23:51:00,
2013-03-15 19:52:00,56.1,41.5,29.90,West,273,0.0,0.0,58,0.00,,---,0.00,0.00,VWS V14.01,2013-03-15 23:52:00,
2013-03-15 19:53:00,56.0,41.5,29.90,West,273,0.0,0.0,58,0.00,,---,0.00,0.00,VWS V14.01,2013-03-15 23:53:00,
2013-03-15 19:54:00,56.7,41.7,29.90,West,272,0.0,2.0,57,0.00,,---,0.00,0.00,VWS V14.01,2013-03-15 23:54:00,
2013-03-15 19:55:00,55.9,41.3,29.90,West,272,0.0,1.0,58,0.00,,---,0.00,0.00,VWS V14.01,2013-03-15 23:55:00,
2013-03-15 19:56:00,55.9,41.3,29.91,West,272,0.0,1.0,58,0.00,,---,0.00,0.00,VWS V14.01,2013-03-15 23:56:00,
2013-03-15 19:57:00,55.9,41.8,29.90,West,272,0.0,1.0,59,0.00,,---,0.00,0.00,VWS V14.01,2013-03-15 23:57:00,
2013-03-15 19:58:00,55.9,41.8,29.91,West,272,0.0,1.0,59,0.00,,---,0.00,0.00,VWS V14.01,2013-03-15 23:58:00,
2013-03-15 19:59:00,56.3,41.3,29.90,West,273,0.0,0.0,57,0.00,,---,0.00,0.00,VWS V14.01,2013-03-15 23:59:00,
2013-03-15 20:00:00,55.8,41.7,29.90,WSW,257,0.0,0.0,59,0.00,,---,0.00,0.00,VWS V14.01,2013-03-16 00:00:00,
2013-03-15 20:01:00,55.8,41.7,29.90,WSW,257,0.0,0.0,59,0.00,,---,0.00,0.00,VWS V14.01,2013-03-16 00:01:00,
2013-03-15 20:02:00,55.7,41.6,29.90,WSW,257,0.0,0.0,59,0.00,,---,0.00,0.00,VWS V14.01,2013-03-16 00:02:00,
2013-03-15 20:03:00,55.7,42.0,29.90,WSW,257,0.0,0.0,60,0.00,,---,0.00,0.00,VWS V14.01,2013-03-16 00:03:00,
2013-03-15 20:04:00,55.6,41.5,29.90,WSW,257,0.0,0.0,59,0.00,,---,0.00,0.00,VWS V14.01,2013-03-16 00:04:00,
2013-03-15 20:05:00,55.9,41.3,29.91,West,272,0.0,1.0,58,0.00,,---,0.00,0.00,VWS V14.01,2013-03-16 00:05:00,
2013-03-15 20:06:00,55.5,41.4,29.90,WSW,257,0.0,0.0,59,0.00,,---,0.00,0.00,VWS V14.01,2013-03-16 00:06:00,
2013-03-15 20:07:00,55.5,41.9,29.90,WSW,257,0.0,0.0,60,0.00,,---,0.00,0.00,VWS V14.01,2013-03-16 00:07:00,
2013-03-15 20:08:00,55.4,41.3,29.90,WSW,257,0.0,0.0,59,0.00,,---,0.00,0.00,VWS V14.01,2013-03-16 00:08:00,
2013-03-15 20:09:00,55.3,41.2,29.90,WSW,257,0.0,1.0,59,0.00,,---,0.00,0.00,VWS V14.01,2013-03-16 00:09:00,
2013-03-15 20:10:00,55.8,41.7,29.90,WSW,257,0.0,0.0,59,0.00,,---,0.00,0.00,VWS V14.01,2013-03-16 00:10:00,
2013-03-15 20:11:00,55.3,41.2,29.90,WSW,257,0.0,0.0,59,0.00,,---,0.00,0.00,VWS V14.01,2013-03-16 00:11:00,
2013-03-15 20:12:00,55.2,41.6,29.90,WSW,257,0.0,0.0,60,0.00,,---,0.00,0.00,VWS V14.01,2013-03-16 00:12:00,
2013-03-15 20:13:00,55.2,41.6,29.90,WSW,257,0.0,0.0,60,0.00,,---,0.00,0.00,VWS V14.01,2013-03-16 00:13:00,
2013-03-15 20:14:00,55.1,41.5,29.90,WSW,257,0.0,0.0,60,0.00,,---,0.00,0.00,VWS V14.01,2013-03-16 00:14:00,
2013-03-15 20:15:00,55.5,41.4,29.90,WSW,257,0.0,0.0,59,0.00,,---,0.00,0.00,VWS V14.01,2013-03-16 00:15:00,
2013-03-15 20:16:00,55.0,41.4,29.90,WSW,257,0.0,0.0,60,0.00,,---,0.00,0.00,VWS V14.01,2013-03-16 00:16:00,
2013-03-15 20:17:00,54.9,41.3,29.90,WSW,257,0.0,0.0,60,0.00,,---,0.00,0.00,VWS V14.01,2013-03-16 00:17:00,
2013-03-15 20:18:00,54.9,41.3,29.90,WSW,257,0.0,0.0,60,0.00,,---,0.00,0.00,VWS V14.01,2013-03-16 00:18:00,
2013-03-15 20:19:00,54.8,41.6,29.89,WSW,257,0.0,0.0,61,0.00,,---,0.00,0.00,VWS V14.01,2013-03-16 00:19:00,
2013-03-15 20:20:00,55.3,41.2,29.90,WSW,257,0.0,0.0,59,0.00,,---,0.00,0.00,VWS V14.01,2013-03-16 00:20:00,
2013-03-15 20:22:00,54.4,41.2,29.89,WSW,257,0.0,0.0,61,0.00,,---,0.00,0.00,VWS V14.01,2013-03-16 00:22:00,
2013-03-15 20:23:00,54.3,41.2,29.89,WSW,257,0.0,0.0,61,0.00,,---,0.00,0.00,VWS V14.01,2013-03-16 00:23:00,
2013-03-15 20:24:00,54.2,41.1,29.89,WSW,257,0.0,0.0,61,0.00,,---,0.00,0.00,VWS V14.01,2013-03-16 00:24:00,
2013-03-15 20:25:00,55.0,41.4,29.90,WSW,257,0.0,0.0,60,0.00,,---,0.00,0.00,VWS V14.01,2013-03-16 00:25:00,
2013-03-15 20:26:00,54.1,41.0,29.89,South,172,0.0,1.0,61,0.00,,---,0.00,0.00,VWS V14.01,2013-03-16 00:26:00,
2013-03-15 20:27:00,54.1,41.4,29.89,South,172,0.0,1.0,62,0.00,,---,0.00,0.00,VWS V14.01,2013-03-16 00:27:00,
2013-03-15 20:28:00,54.0,41.3,29.89,South,172,0.0,1.0,62,0.00,,---,0.00,0.00,VWS V14.01,2013-03-16 00:28:00,
2013-03-15 20:29:00,54.0,40.9,29.89,South,172,0.0,1.0,61,0.00,,---,0.00,0.00,VWS V14.01,2013-03-16 00:29:00,
2013-03-15 20:30:00,54.6,41.0,29.90,WSW,257,0.0,0.0,60,0.00,,---,0.00,0.00,VWS V14.01,2013-03-16 00:30:00,
2013-03-15 20:31:00,53.9,41.2,29.89,South,172,0.0,0.0,62,0.00,,---,0.00,0.00,VWS V14.01,2013-03-16 00:31:00,
2013-03-15 20:32:00,53.8,41.1,29.89,South,172,0.0,0.0,62,0.00,,---,0.00,0.00,VWS V14.01,2013-03-16 00:32:00,
2013-03-15 20:33:00,53.8,41.1,29.89,South,172,0.0,0.0,62,0.00,,---,0.00,0.00,VWS V14.01,2013-03-16 00:33:00,
2013-03-15 20:34:00,53.8,41.1,29.89,South,172,0.0,0.0,62,0.00,,---,0.00,0.00,VWS V14.01,2013-03-16 00:34:00,
2013-03-15 20:35:00,53.7,41.0,29.89,South,172,0.0,0.0,62,0.00,,---,0.00,0.00,VWS V14.01,2013-03-16 00:35:00,
2013-03-15 20:36:00,54.0,41.3,29.89,South,172,0.0,1.0,62,0.00,,---,0.00,0.00,VWS V14.01,2013-03-16 00:36:00,
2013-03-15 20:37:00,53.7,41.0,29.89,South,172,0.0,0.0,62,0.00,,---,0.00,0.00,VWS V14.01,2013-03-16 00:37:00,
2013-03-15 20:38:00,53.7,41.4,29.89,South,172,0.0,0.0,63,0.00,,---,0.00,0.00,VWS V14.01,2013-03-16 00:38:00,
2013-03-15 20:39:00,53.6,41.3,29.89,South,172,0.0,0.0,63,0.00,,---,0.00,0.00,VWS V14.01,2013-03-16 00:39:00,
2013-03-15 20:40:00,53.6,40.9,29.89,South,172,0.0,0.0,62,0.00,,---,0.00,0.00,VWS V14.01,2013-03-16 00:40:00,
2013-03-15 20:41:00,53.8,41.1,29.89,South,172,0.0,0.0,62,0.00,,---,0.00,0.00,VWS V14.01,2013-03-16 00:41:00,
2013-03-15 20:42:00,53.6,41.3,29.89,South,172,0.0,0.0,63,0.00,,---,0.00,0.00,VWS V14.01,2013-03-16 00:42:00,
2013-03-15 20:43:00,53.5,41.2,29.89,South,172,0.0,1.0,63,0.00,,---,0.00,0.00,VWS V14.01,2013-03-16 00:43:00,
2013-03-15 20:44:00,53.5,41.2,29.89,South,172,0.0,1.0,63,0.00,,---,0.00,0.00,VWS V14.01,2013-03-16 00:44:00,
2013-03-15 20:45:00,53.5,41.2,29.89,South,172,0.0,1.0,63,0.00,,---,0.00,0.00,VWS V14.01,2013-03-16 00:45:00,
2013-03-15 20:46:00,53.7,41.0,29.89,South,172,0.0,0.0,62,0.00,,---,0.00,0.00,VWS V14.01,2013-03-16 00:46:00,
2013-03-15 20:47:00,53.4,41.1,29.89,South,172,0.0,1.0,63,0.00,,---,0.00,0.00,VWS V14.01,2013-03-16 00:47:00,
2013-03-15 20:48:00,53.4,41.1,29.89,South,172,0.0,1.0,63,0.00,,---,0.00,0.00,VWS V14.01,2013-03-16 00:48:00,
2013-03-15 20:49:00,53.3,41.0,29.89,South,172,0.0,1.0,63,0.00,,---,0.00,0.00,VWS V14.01,2013-03-16 00:49:00,
2013-03-15 20:50:00,53.3,41.0,29.89,South,172,0.0,0.0,63,0.00,,---,0.00,0.00,VWS V14.01,2013-03-16 00:50:00,
2013-03-15 20:52:00,53.5,41.2,29.89,South,172,0.0,1.0,63,0.00,,---,0.00,0.00,VWS V14.01,2013-03-16 00:52:00,
2013-03-15 20:53:00,53.2,41.3,29.89,South,172,0.0,1.0,64,0.00,,---,0.00,0.00,VWS V14.01,2013-03-16 00:53:00,
2013-03-15 20:54:00,53.2,41.3,29.89,South,172,0.0,1.0,64,0.00,,---,0.00,0.00,VWS V14.01,2013-03-16 00:54:00,
2013-03-15 20:55:00,53.2,41.3,29.89,South,172,0.0,1.0,64,0.00,,---,0.00,0.00,VWS V14.01,2013-03-16 00:55:00,
2013-03-15 20:56:00,53.3,41.0,29.89,South,172,0.0,1.0,63,0.00,,---,0.00,0.00,VWS V14.01,2013-03-16 00:56:00,
2013-03-15 20:57:00,53.4,41.1,29.89,South,172,0.0,1.0,63,0.00,,---,0.00,0.00,VWS V14.01,2013-03-16 00:57:00,
2013-03-15 20:58:00,53.3,41.0,29.89,South,172,0.0,1.0,63,0.00,,---,0.00,0.00,VWS V14.01,2013-03-16 00:58:00,
2013-03-15 20:59:00,53.3,41.0,29.89,South,172,0.0,1.0,63,0.00,,---,0.00,0.00,VWS V14.01,2013-03-16 00:59:00,
2013-03-15 21:00:00,53.8,41.9,29.88,South,172,0.0,0.0,64,0.00,,---,0.00,0.00,VWS V14.01,2013-03-16 01:00:00,
2013-03-15 21:01:00,53.9,41.6,29.89,South,172,0.0,0.0,63,0.00,,---,0.00,0.00,VWS V14.01,2013-03-16 01:01:00,
2013-03-15 21:02:00,53.2,41.3,29.89,South,172,0.0,1.0,64,0.00,,---,0.00,0.00,VWS V14.01,2013-03-16 01:02:00,
2013-03-15 21:03:00,53.9,41.6,29.89,South,172,0.0,0.0,63,0.00,,---,0.00,0.00,VWS V14.01,2013-03-16 01:03:00,
2013-03-15 21:04:00,53.9,41.6,29.89,South,172,0.0,0.0,63,0.00,,---,0.00,0.00,VWS V14.01,2013-03-16 01:04:00,
2013-03-15 21:05:00,53.9,41.6,29.88,South,172,0.0,0.0,63,0.00,,---,0.00,0.00,VWS V14.01,2013-03-16 01:05:00,
2013-03-15 21:06:00,53.8,41.5,29.88,South,172,0.0,0.0,63,0.00,,---,0.00,0.00,VWS V14.01,2013-03-16 01:06:00,
2013-03-15 21:07:00,53.8,41.5,29.88,South,172,0.0,0.0,63,0.00,,---,0.00,0.00,VWS V14.01,2013-03-16 01:07:00,
2013-03-15 21:08:00,53.8,41.5,29.88,South,172,0.0,0.0,63,0.00,,---,0.00,0.00,VWS V14.01,2013-03-16 01:08:00,
2013-03-15 21:09:00,53.7,41.8,29.89,South,172,0.0,1.0,64,0.00,,---,0.00,0.00,VWS V14.01,2013-03-16 01:09:00,
2013-03-15 21:10:00,53.8,41.5,29.88,South,172,0.0,0.0,63,0.00,,---,0.00,0.00,VWS V14.01,2013-03-16 01:10:00,
2013-03-15 21:11:00,53.8,41.5,29.88,South,172,0.0,0.0,63,0.00,,---,0.00,0.00,VWS V14.01,2013-03-16 01:11:00,
2013-03-15 21:12:00,53.7,41.4,29.88,South,172,0.0,0.0,63,0.00,,---,0.00,0.00,VWS V14.01,2013-03-16 01:12:00,
2013-03-15 21:13:00,53.7,41.4,29.88,South,172,0.0,0.0,63,0.00,,---,0.00,0.00,VWS V14.01,2013-03-16 01:13:00,
2013-03-15 21:14:00,53.9,41.6,29.88,South,172,0.0,0.0,63,0.00,,---,0.00,0.00,VWS V14.01,2013-03-16 01:14:00,
2013-03-15 21:15:00,53.6,41.3,29.88,South,172,0.0,0.0,63,0.00,,---,0.00,0.00,VWS V14.01,2013-03-16 01:15:00,
2013-03-15 21:16:00,53.6,41.3,29.88,South,172,0.0,0.0,63,0.00,,---,0.00,0.00,VWS V14.01,2013-03-16 01:16:00,
2013-03-15 21:17:00,53.5,41.2,29.88,South,172,0.0,0.0,63,0.00,,---,0.00,0.00,VWS V14.01,2013-03-16 01:17:00,
2013-03-15 21:18:00,53.5,41.2,29.88,South,172,0.0,0.0,63,0.00,,---,0.00,0.00,VWS V14.01,2013-03-16 01:18:00,
2013-03-15 21:19:00,53.8,41.5,29.88,South,172,0.0,0.0,63,0.00,,---,0.00,0.00,VWS V14.01,2013-03-16 01:19:00,
2013-03-15 21:20:00,53.5,41.2,29.88,South,172,0.0,0.0,63,0.00,,---,0.00,0.00,VWS V14.01,2013-03-16 01:20:00,
2013-03-15 21:21:00,53.5,41.6,29.88,South,172,0.0,0.0,64,0.00,,---,0.00,0.00,VWS V14.01,2013-03-16 01:21:00,
2013-03-15 21:22:00,53.4,41.5,29.88,South,172,0.0,0.0,64,0.00,,---,0.00,0.00,VWS V14.01,2013-03-16 01:22:00,
2013-03-15 21:23:00,53.3,41.5,29.88,South,172,0.0,0.0,64,0.00,,---,0.00,0.00,VWS V14.01,2013-03-16 01:23:00,
2013-03-15 21:24:00,53.6,41.3,29.88,South,172,0.0,0.0,63,0.00,,---,0.00,0.00,VWS V14.01,2013-03-16 01:24:00,
2013-03-15 21:25:00,53.2,41.3,29.89,South,172,0.0,0.0,64,0.00,,---,0.00,0.00,VWS V14.01,2013-03-16 01:25:00,
2013-03-15 21:26:00,53.2,41.3,29.88,South,172,0.0,0.0,64,0.00,,---,0.00,0.00,VWS V14.01,2013-03-16 01:26:00,
2013-03-15 21:27:00,53.1,41.3,29.88,South,172,0.0,0.0,64,0.00,,---,0.00,0.00,VWS V14.01,2013-03-16 01:27:00,
2013-03-15 21:28:00,53.1,41.3,29.88,South,172,0.0,0.0,64,0.00,,---,0.00,0.00,VWS V14.01,2013-03-16 01:28:00,
2013-03-15 21:29:00,53.5,41.2,29.88,South,172,0.0,0.0,63,0.00,,---,0.00,0.00,VWS V14.01,2013-03-16 01:29:00,
2013-03-15 21:30:00,53.0,41.6,29.88,South,172,0.0,0.0,65,0.00,,---,0.00,0.00,VWS V14.01,2013-03-16 01:30:00,
2013-03-15 21:32:00,52.8,41.4,29.88,South,172,0.0,1.0,65,0.00,,---,0.00,0.00,VWS V14.01,2013-03-16 01:32:00,
2013-03-15 21:33:00,52.7,41.3,29.88,South,172,0.0,1.0,65,0.00,,---,0.00,0.00,VWS V14.01,2013-03-16 01:33:00,
2013-03-15 21:34:00,52.7,41.3,29.88,South,172,0.0,1.0,65,0.00,,---,0.00,0.00,VWS V14.01,2013-03-16 01:34:00,
2013-03-15 21:35:00,53.2,41.3,29.88,South,172,0.0,0.0,64,0.00,,---,0.00,0.00,VWS V14.01,2013-03-16 01:35:00,
2013-03-15 21:37:00,52.8,41.8,29.88,South,172,0.0,1.0,66,0.00,,---,0.00,0.00,VWS V14.01,2013-03-16 01:37:00,
2013-03-15 21:38:00,52.7,41.7,29.88,South,172,0.0,1.0,66,0.00,,---,0.00,0.00,VWS V14.01,2013-03-16 01:38:00,
2013-03-15 21:39:00,52.7,41.7,29.88,South,172,0.0,1.0,66,0.00,,---,0.00,0.00,VWS V14.01,2013-03-16 01:39:00,
2013-03-15 21:40:00,52.9,41.5,29.88,South,172,0.0,1.0,65,0.00,,---,0.00,0.00,VWS V14.01,2013-03-16 01:40:00,
2013-03-15 21:42:00,52.6,41.6,29.88,South,172,0.0,1.0,66,0.00,,---,0.00,0.00,VWS V14.01,2013-03-16 01:42:00,
2013-03-15 21:43:00,52.5,41.5,29.88,South,172,0.0,1.0,66,0.00,,---,0.00,0.00,VWS V14.01,2013-03-16 01:43:00,
2013-03-15 21:44:00,52.4,41.4,29.88,South,172,0.0,1.0,66,0.00,,---,0.00,0.00,VWS V14.01,2013-03-16 01:44:00,
2013-03-15 21:45:00,52.7,41.3,29.88,South,172,0.0,1.0,65,0.00,,---,0.00,0.00,VWS V14.01,2013-03-16 01:45:00,
2013-03-15 21:46:00,52.4,41.4,29.88,South,172,0.0,1.0,66,0.00,,---,0.00,0.00,VWS V14.01,2013-03-16 01:46:00,
2013-03-15 21:47:00,52.4,41.8,29.88,South,172,0.0,1.0,67,0.00,,---,0.00,0.00,VWS V14.01,2013-03-16 01:47:00,
2013-03-15 21:48:00,52.4,41.8,29.88,South,172,0.0,1.0,67,0.00,,---,0.00,0.00,VWS V14.01,2013-03-16 01:48:00,
2013-03-15 21:49:00,52.4,41.4,29.88,South,172,0.0,2.0,66,0.00,,---,0.00,0.00,VWS V14.01,2013-03-16 01:49:00,
2013-03-15 21:50:00,52.7,41.7,29.88,South,172,0.0,0.0,66,0.00,,---,0.00,0.00,VWS V14.01,2013-03-16 01:50:00,
2013-03-15 21:52:00,52.3,41.7,29.88,South,172,0.0,0.0,67,0.00,,---,0.00,0.00,VWS V14.01,2013-03-16 01:52:00,
2013-03-15 21:53:00,52.3,41.7,29.88,South,172,0.0,0.0,67,0.00,,---,0.00,0.00,VWS V14.01,2013-03-16 01:53:00,
2013-03-15 21:54:00,52.3,41.7,29.88,South,172,0.0,0.0,67,0.00,,---,0.00,0.00,VWS V14.01,2013-03-16 01:54:00,
2013-03-15 21:55:00,52.4,41.4,29.88,South,172,0.0,1.0,66,0.00,,---,0.00,0.00,VWS V14.01,2013-03-16 01:55:00,
2013-03-15 21:56:00,52.2,42.0,29.88,South,172,0.0,1.0,68,0.00,,---,0.00,0.00,VWS V14.01,2013-03-16 01:56:00,
2013-03-15 21:57:00,52.2,42.0,29.88,South,172,0.0,1.0,68,0.00,,---,0.00,0.00,VWS V14.01,2013-03-16 01:57:00,
2013-03-15 21:58:00,52.2,42.0,29.88,South,172,0.0,1.0,68,0.00,,---,0.00,0.00,VWS V14.01,2013-03-16 01:58:00,
2013-03-15 21:59:00,52.2,42.0,29.88,South,172,0.0,1.0,68,0.00,,---,0.00,0.00,VWS V14.01,2013-03-16 01:59:00,
2013-03-15 22:00:00,52.3,41.3,29.88,South,172,0.0,0.0,66,0.00,,---,0.00,0.00,VWS V14.01,2013-03-16 02:00:00,
2013-03-15 22:01:00,52.2,42.0,29.88,South,172,0.0,0.0,68,0.00,,---,0.00,0.00,VWS V14.01,2013-03-16 02:01:00,
2013-03-15 22:02:00,52.2,42.0,29.88,South,172,0.0,0.0,68,0.00,,---,0.00,0.00,VWS V14.01,2013-03-16 02:02:00,
2013-03-15 22:03:00,52.2,42.0,29.88,South,172,0.0,0.0,68,0.00,,---,0.00,0.00,VWS V14.01,2013-03-16 02:03:00,
2013-03-15 22:04:00,52.2,42.0,29.88,South,172,0.0,0.0,68,0.00,,---,0.00,0.00,VWS V14.01,2013-03-16 02:04:00,
2013-03-15 22:05:00,52.2,42.0,29.88,South,172,0.0,0.0,68,0.00,,---,0.00,0.00,VWS V14.01,2013-03-16 02:05:00,
2013-03-15 22:06:00,52.2,42.0,29.88,South,172,1.0,1.0,68,0.00,,---,0.00,0.00,VWS V14.01,2013-03-16 02:06:00,
2013-03-15 22:07:00,52.2,42.0,29.88,South,172,0.0,1.0,68,0.00,,---,0.00,0.00,VWS V14.01,2013-03-16 02:07:00,
2013-03-15 22:08:00,52.1,41.9,29.88,South,172,0.0,1.0,68,0.00,,---,0.00,0.00,VWS V14.01,2013-03-16 02:08:00,
2013-03-15 22:09:00,52.1,41.9,29.88,South,172,0.0,1.0,68,0.00,,---,0.00,0.00,VWS V14.01,2013-03-16 02:09:00,
2013-03-15 22:10:00,52.1,42.2,29.88,South,172,0.0,0.0,69,0.00,,---,0.00,0.00,VWS V14.01,2013-03-16 02:10:00,
2013-03-15 22:11:00,52.2,42.0,29.88,South,172,0.0,0.0,68,0.00,,---,0.00,0.00,VWS V14.01,2013-03-16 02:11:00,
2013-03-15 22:12:00,52.2,42.3,29.88,South,172,0.0,0.0,69,0.00,,---,0.00,0.00,VWS V14.01,2013-03-16 02:12:00,
2013-03-15 22:13:00,52.2,42.3,29.88,South,172,0.0,0.0,69,0.00,,---,0.00,0.00,VWS V14.01,2013-03-16 02:13:00,
2013-03-15 22:14:00,52.2,42.3,29.88,South,172,0.0,0.0,69,0.00,,---,0.00,0.00,VWS V14.01,2013-03-16 02:14:00,
2013-03-15 22:15:00,52.2,42.0,29.88,South,172,0.0,0.0,68,0.00,,---,0.00,0.00,VWS V14.01,2013-03-16 02:15:00,
2013-03-15 22:16:00,52.2,42.0,29.88,South,172,0.0,0.0,68,0.00,,---,0.00,0.00,VWS V14.01,2013-03-16 02:16:00,
2013-03-15 22:17:00,52.2,42.0,29.88,South,172,0.0,1.0,68,0.00,,---,0.00,0.00,VWS V14.01,2013-03-16 02:17:00,
2013-03-15 22:18:00,52.2,42.0,29.88,South,172,0.0,1.0,68,0.00,,---,0.00,0.00,VWS V14.01,2013-03-16 02:18:00,
2013-03-15 22:19:00,52.2,42.0,29.88,South,172,0.0,1.0,68,0.00,,---,0.00,0.00,VWS V14.01,2013-03-16 02:19:00,
2013-03-15 22:20:00,52.3,42.1,29.88,South,172,0.0,0.0,68,0.00,,---,0.00,0.00,VWS V14.01,2013-03-16 02:20:00,
2013-03-15 22:22:00,52.2,42.3,29.88,South,172,0.0,0.0,69,0.00,,---,0.00,0.00,VWS V14.01,2013-03-16 02:22:00,
2013-03-15 22:23:00,52.3,42.1,29.88,South,172,0.0,0.0,68,0.00,,---,0.00,0.00,VWS V14.01,2013-03-16 02:23:00,
2013-03-15 22:24:00,52.4,42.2,29.88,South,172,0.0,0.0,68,0.00,,---,0.00,0.00,VWS V14.01,2013-03-16 02:24:00,
2013-03-15 22:25:00,52.4,42.2,29.88,South,172,0.0,0.0,68,0.00,,---,0.00,0.00,VWS V14.01,2013-03-16 02:25:00,
2013-03-15 22:26:00,52.5,42.3,29.88,South,172,0.0,0.0,68,0.00,,---,0.00,0.00,VWS V14.01,2013-03-16 02:26:00,
2013-03-15 22:27:00,52.2,42.0,29.88,South,172,0.0,0.0,68,0.00,,---,0.00,0.00,VWS V14.01,2013-03-16 02:27:00,
2013-03-15 22:28:00,52.5,42.3,29.88,South,172,0.0,0.0,68,0.00,,---,0.00,0.00,VWS V14.01,2013-03-16 02:28:00,
2013-03-15 22:29:00,52.6,42.3,29.88,South,172,0.0,0.0,68,0.00,,---,0.00,0.00,VWS V14.01,2013-03-16 02:29:00,
2013-03-15 22:30:00,52.6,42.3,29.88,South,172,0.0,0.0,68,0.00,,---,0.00,0.00,VWS V14.01,2013-03-16 02:30:00,
2013-03-15 22:32:00,52.6,42.3,29.88,South,172,0.0,0.0,68,0.00,,---,0.00,0.00,VWS V14.01,2013-03-16 02:32:00,
2013-03-15 22:33:00,52.3,42.1,29.88,South,172,0.0,0.0,68,0.00,,---,0.00,0.00,VWS V14.01,2013-03-16 02:33:00,
2013-03-15 22:34:00,52.7,42.5,29.88,South,172,0.0,0.0,68,0.00,,---,0.00,0.00,VWS V14.01,2013-03-16 02:34:00,
2013-03-15 22:35:00,52.7,42.5,29.88,South,172,0.0,0.0,68,0.00,,---,0.00,0.00,VWS V14.01,2013-03-16 02:35:00,
2013-03-15 22:36:00,52.7,42.5,29.87,South,172,0.0,0.0,68,0.00,,---,0.00,0.00,VWS V14.01,2013-03-16 02:36:00,
2013-03-15 22:37:00,52.7,42.5,29.87,South,172,0.0,0.0,68,0.00,,---,0.00,0.00,VWS V14.01,2013-03-16 02:37:00,
2013-03-15 22:38:00,52.6,42.3,29.88,South,172,0.0,0.0,68,0.00,,---,0.00,0.00,VWS V14.01,2013-03-16 02:38:00,
2013-03-15 22:39:00,52.8,42.5,29.87,South,172,0.0,0.0,68,0.00,,---,0.00,0.00,VWS V14.01,2013-03-16 02:39:00,
2013-03-15 22:40:00,52.8,42.2,29.87,South,172,0.0,0.0,67,0.00,,---,0.00,0.00,VWS V14.01,2013-03-16 02:40:00,
2013-03-15 22:41:00,52.8,42.2,29.87,South,172,0.0,0.0,67,0.00,,---,0.00,0.00,VWS V14.01,2013-03-16 02:41:00,
2013-03-15 22:42:00,52.9,42.3,29.87,South,172,0.0,0.0,67,0.00,,---,0.00,0.00,VWS V14.01,2013-03-16 02:42:00,
2013-03-15 22:43:00,52.6,42.3,29.88,South,172,0.0,0.0,68,0.00,,---,0.00,0.00,VWS V14.01,2013-03-16 02:43:00,
2013-03-15 22:44:00,53.0,42.7,29.87,South,172,0.0,0.0,68,0.00,,---,0.00,0.00,VWS V14.01,2013-03-16 02:44:00,
2013-03-15 22:45:00,53.0,42.7,29.87,South,172,0.0,0.0,68,0.00,,---,0.00,0.00,VWS V14.01,2013-03-16 02:45:00,
2013-03-15 22:46:00,53.0,42.7,29.87,South,172,0.0,0.0,68,0.00,,---,0.00,0.00,VWS V14.01,2013-03-16 02:46:00,
2013-03-15 22:47:00,53.0,42.3,29.87,South,172,0.0,0.0,67,0.00,,---,0.00,0.00,VWS V14.01,2013-03-16 02:47:00,
2013-03-15 22:48:00,52.8,42.5,29.87,South,172,0.0,0.0,68,0.00,,---,0.00,0.00,VWS V14.01,2013-03-16 02:48:00,
2013-03-15 22:49:00,53.0,42.7,29.87,South,172,0.0,0.0,68,0.00,,---,0.00,0.00,VWS V14.01,2013-03-16 02:49:00,
2013-03-15 22:50:00,53.0,42.3,29.87,South,172,0.0,0.0,67,0.00,,---,0.00,0.00,VWS V14.01,2013-03-16 02:50:00,
2013-03-15 22:51:00,53.0,42.7,29.87,South,172,0.0,0.0,68,0.00,,---,0.00,0.00,VWS V14.01,2013-03-16 02:51:00,
2013-03-15 22:52:00,53.0,42.7,29.87,South,172,0.0,1.0,68,0.00,,---,0.00,0.00,VWS V14.01,2013-03-16 02:52:00,
2013-03-15 22:53:00,52.9,42.6,29.87,South,172,0.0,0.0,68,0.00,,---,0.00,0.00,VWS V14.01,2013-03-16 02:53:00,
2013-03-15 22:54:00,53.1,42.8,29.87,South,172,0.0,1.0,68,0.00,,---,0.00,0.00,VWS V14.01,2013-03-16 02:54:00,
2013-03-15 22:55:00,53.1,42.8,29.87,South,172,0.0,1.0,68,0.00,,---,0.00,0.00,VWS V14.01,2013-03-16 02:55:00,
2013-03-15 22:56:00,53.1,42.8,29.87,South,172,0.0,1.0,68,0.00,,---,0.00,0.00,VWS V14.01,2013-03-16 02:56:00,
2013-03-15 22:58:00,53.0,42.7,29.87,South,172,0.0,0.0,68,0.00,,---,0.00,0.00,VWS V14.01,2013-03-16 02:58:00,
2013-03-15 22:59:00,53.0,43.1,29.87,South,172,0.0,1.0,69,0.00,,---,0.00,0.00,VWS V14.01,2013-03-16 02:59:00,
2013-03-15 23:00:00,53.0,42.7,29.87,South,172,0.0,0.0,68,0.00,,---,0.00,0.00,VWS V14.01,2013-03-16 03:00:00,
2013-03-15 23:01:00,53.0,43.1,29.87,South,172,0.0,1.0,69,0.00,,---,0.00,0.00,VWS V14.01,2013-03-16 03:01:00,
2013-03-15 23:02:00,53.0,42.7,29.87,South,172,0.0,1.0,68,0.00,,---,0.00,0.00,VWS V14.01,2013-03-16 03:02:00,
2013-03-15 23:03:00,53.0,42.7,29.87,South,172,0.0,1.0,68,0.00,,---,0.00,0.00,VWS V14.01,2013-03-16 03:03:00,
2013-03-15 23:04:00,53.2,42.9,29.87,South,172,0.0,1.0,68,0.00,,---,0.00,0.00,VWS V14.01,2013-03-16 03:04:00,
2013-03-15 23:05:00,53.3,43.0,29.87,South,172,1.0,1.0,68,0.00,,---,0.00,0.00,VWS V14.01,2013-03-16 03:05:00,
2013-03-15 23:06:00,53.5,43.2,29.86,South,172,0.0,1.0,68,0.00,,---,0.00,0.00,VWS V14.01,2013-03-16 03:06:00,
2013-03-15 23:07:00,53.6,43.7,29.87,South,172,0.0,1.0,69,0.00,,---,0.00,0.00,VWS V14.01,2013-03-16 03:07:00,
2013-03-15 23:08:00,53.7,43.8,29.87,South,172,0.0,1.0,69,0.00,,---,0.00,0.00,VWS V14.01,2013-03-16 03:08:00,
2013-03-15 23:09:00,53.0,43.1,29.87,South,172,0.0,1.0,69,0.00,,---,0.00,0.00,VWS V14.01,2013-03-16 03:09:00,
2013-03-15 23:10:00,53.9,43.6,29.87,South,172,0.0,0.0,68,0.00,,---,0.00,0.00,VWS V14.01,2013-03-16 03:10:00,
2013-03-15 23:11:00,53.9,43.2,29.87,South,190,0.0,2.0,67,0.00,,---,0.00,0.00,VWS V14.01,2013-03-16 03:11:00,
2013-03-15 23:12:00,54.1,43.8,29.87,South,189,0.0,2.0,68,0.00,,---,0.00,0.00,VWS V14.01,2013-03-16 03:12:00,
2013-03-15 23:13:00,54.1,44.2,29.87,South,190,0.0,2.0,69,0.00,,---,0.00,0.00,VWS V14.01,2013-03-16 03:13:00,
2013-03-15 23:14:00,53.2,42.9,29.87,South,172,0.0,1.0,68,0.00,,---,0.00,0.00,VWS V14.01,2013-03-16 03:14:00,
2013-03-15 23:15:00,54.2,43.5,29.87,South,190,0.0,2.0,67,0.00,,---,0.00,0.00,VWS V14.01,2013-03-16 03:15:00,
2013-03-15 23:16:00,54.2,43.5,29.87,South,189,0.0,2.0,67,0.00,,---,0.00,0.00,VWS V14.01,2013-03-16 03:16:00,
2013-03-15 23:17:00,54.3,43.6,29.87,South,189,0.0,2.0,67,0.00,,---,0.00,0.00,VWS V14.01,2013-03-16 03:17:00,
2013-03-15 23:18:00,54.3,43.6,29.86,South,189,1.0,2.0,67,0.00,,---,0.00,0.00,VWS V14.01,2013-03-16 03:18:00,
2013-03-15 23:19:00,53.8,43.9,29.86,South,172,0.0,1.0,69,0.00,,---,0.00,0.00,VWS V14.01,2013-03-16 03:19:00,
2013-03-15 23:20:00,54.5,43.4,29.86,South,189,0.0,0.0,66,0.00,,---,0.00,0.00,VWS V14.01,2013-03-16 03:20:00,
2013-03-15 23:21:00,54.6,43.9,29.86,South,189,0.0,0.0,67,0.00,,---,0.00,0.00,VWS V14.01,2013-03-16 03:21:00,
2013-03-15 23:22:00,54.6,44.3,29.86,South,189,0.0,0.0,68,0.00,,---,0.00,0.00,VWS V14.01,2013-03-16 03:22:00,
2013-03-15 23:23:00,54.6,44.3,29.86,South,189,0.0,0.0,68,0.00,,---,0.00,0.00,VWS V14.01,2013-03-16 03:23:00,
2013-03-15 23:24:00,54.2,43.5,29.87,South,190,0.0,2.0,67,0.00,,---,0.00,0.00,VWS V14.01,2013-03-16 03:24:00,
2013-03-15 23:25:00,54.7,44.0,29.86,South,189,0.0,0.0,67,0.00,,---,0.00,0.00,VWS V14.01,2013-03-16 03:25:00,
2013-03-15 23:26:00,54.7,43.6,29.86,South,189,0.0,0.0,66,0.00,,---,0.00,0.00,VWS V14.01,2013-03-16 03:26:00,
2013-03-15 23:27:00,54.7,44.0,29.86,South,189,0.0,0.0,67,0.00,,---,0.00,0.00,VWS V14.01,2013-03-16 03:27:00,
2013-03-15 23:28:00,54.7,44.0,29.86,South,189,0.0,0.0,67,0.00,,---,0.00,0.00,VWS V14.01,2013-03-16 03:28:00,
2013-03-15 23:29:00,54.4,43.3,29.86,South,189,0.0,0.0,66,0.00,,---,0.00,0.00,VWS V14.01,2013-03-16 03:29:00,
2013-03-15 23:30:00,54.7,44.0,29.86,South,189,0.0,2.0,67,0.00,,---,0.00,0.00,VWS V14.01,2013-03-16 03:30:00,
2013-03-15 23:31:00,54.8,44.1,29.86,South,189,0.0,2.0,67,0.00,,---,0.00,0.00,VWS V14.01,2013-03-16 03:31:00,
2013-03-15 23:32:00,54.8,44.1,29.86,South,189,0.0,2.0,67,0.00,,---,0.00,0.00,VWS V14.01,2013-03-16 03:32:00,
2013-03-15 23:33:00,54.9,44.2,29.86,South,189,0.0,2.0,67,0.00,,---,0.00,0.00,VWS V14.01,2013-03-16 03:33:00,
2013-03-15 23:34:00,54.9,44.2,29.86,South,189,0.0,2.0,67,0.00,,---,0.00,0.00,VWS V14.01,2013-03-16 03:34:00,
2013-03-15 23:35:00,54.7,44.0,29.86,South,189,0.0,0.0,67,0.00,,---,0.00,0.00,VWS V14.01,2013-03-16 03:35:00,
2013-03-15 23:37:00,54.9,44.2,29.86,South,189,0.0,2.0,67,0.00,,---,0.00,0.00,VWS V14.01,2013-03-16 03:37:00,
2013-03-15 23:38:00,54.9,43.8,29.86,South,189,0.0,2.0,66,0.00,,---,0.00,0.00,VWS V14.01,2013-03-16 03:38:00,
2013-03-15 23:39:00,54.8,43.7,29.86,South,189,0.0,2.0,66,0.00,,---,0.00,0.00,VWS V14.01,2013-03-16 03:39:00,
2013-03-15 23:40:00,54.8,43.7,29.86,South,189,0.0,2.0,66,0.00,,---,0.00,0.00,VWS V14.01,2013-03-16 03:40:00,
2013-03-15 23:42:00,54.9,43.8,29.86,South,189,0.0,0.0,66,0.00,,---,0.00,0.00,VWS V14.01,2013-03-16 03:42:00,
2013-03-15 23:43:00,54.9,44.2,29.86,South,189,0.0,0.0,67,0.00,,---,0.00,0.00,VWS V14.01,2013-03-16 03:43:00,
2013-03-15 23:44:00,54.9,43.8,29.86,South,189,0.0,0.0,66,0.00,,---,0.00,0.00,VWS V14.01,2013-03-16 03:44:00,
2013-03-15 23:45:00,54.9,44.2,29.86,South,189,0.0,2.0,67,0.00,,---,0.00,0.00,VWS V14.01,2013-03-16 03:45:00,
2013-03-15 23:47:00,54.9,43.8,29.87,South,189,0.0,0.0,66,0.00,,---,0.00,0.00,VWS V14.01,2013-03-16 03:47:00,
2013-03-15 23:48:00,54.9,43.8,29.86,South,189,0.0,0.0,66,0.00,,---,0.00,0.00,VWS V14.01,2013-03-16 03:48:00,
2013-03-15 23:49:00,54.9,43.8,29.86,South,189,0.0,1.0,66,0.00,,---,0.00,0.00,VWS V14.01,2013-03-16 03:49:00,
2013-03-15 23:50:00,54.9,43.8,29.86,South,189,0.0,0.0,66,0.00,,---,0.00,0.00,VWS V14.01,2013-03-16 03:50:00,
2013-03-15 23:51:00,54.9,43.8,29.86,South,189,0.0,0.0,66,0.00,,---,0.00,0.00,VWS V14.01,2013-03-16 03:51:00,
2013-03-15 23:52:00,54.9,43.8,29.87,South,189,0.0,1.0,66,0.00,,---,0.00,0.00,VWS V14.01,2013-03-16 03:52:00,
2013-03-15 23:53:00,54.9,43.8,29.86,South,189,0.0,1.0,66,0.00,,---,0.00,0.00,VWS V14.01,2013-03-16 03:53:00,
2013-03-15 23:54:00,54.8,43.7,29.86,South,189,0.0,1.0,66,0.00,,---,0.00,0.00,VWS V14.01,2013-03-16 03:54:00,
2013-03-15 23:55:00,54.9,43.8,29.87,South,189,0.0,1.0,66,0.00,,---,0.00,0.00,VWS V14.01,2013-03-16 03:55:00,
2013-03-15 23:56:00,54.9,43.8,29.87,South,189,0.0,0.0,66,0.00,,---,0.00,0.00,VWS V14.01,2013-03-16 03:56:00,
2013-03-15 23:57:00,54.8,44.1,29.87,South,189,0.0,1.0,67,0.00,,---,0.00,0.00,VWS V14.01,2013-03-16 03:57:00,
2013-03-15 23:58:00,54.8,44.1,29.87,South,189,2.0,2.0,67,0.00,,---,0.00,0.00,VWS V14.01,2013-03-16 03:58:00,
2013-03-15 23:59:00,54.7,43.6,29.87,SSW,196,3.0,4.0,66,0.00,,---,0.00,0.00,VWS V14.01,2013-03-16 03:59:00,